[[{"header":{"parameterUnit":"m.s-1","parameterCategory":1,"la1":30.6,"la2":29.2853,"lo1":-89.7004,"lo2":-87.6739,"dy":0.0162,"dx":0.0183,"nx":112,"ny":82,"refTime":"2026-04-11T12:00:00:Z","depth":0,"parameterNumber":2,"parameterNumberName":"U-component_of_WINDS"},"data":[0.0,0.0,0.0,0.0,0.0,0.0,0.0,0.0,0.0,0.0,0.0,0.0,0.0,0.0,0.0,0.0,0.0,0.0,0.0,0.0,0.0,0.0,0.0,0.0,0.0,0.0,0.0,0.0,0.0,0.0,0.0,0.0,0.0,0.0,0.0,0.0,0.0,0.0,0.0,0.0,0.0,0.0,0.0,0.0,0.0,0.0,0.0,0.0,0.0,0.0,0.0,0.0,0.0,0.0,0.0,0.0,0.0,0.0,0.0,0.0,0.0,0.0,0.0,0.0,0.0,0.0,0.0,0.0,0.0,0.0,0.0,0.0,0.0,0.0,0.0,0.0,0.0,0.0,0.0,0.0,0.0,0.0,0.0,0.0,0.0,0.0,0.0,0.0,0.0,0.0,0.0,-4.4643,-4.8427,-5.0066,-4.8525,-4.6713,-4.4296,-4.1009,0.0,0.0,0.0,0.0,0.0,0.0,0.0,0.0,0.0,0.0,0.0,0.0,0.0,0.0,0.0,0.0,0.0,0.0,0.0,0.0,0.0,0.0,0.0,0.0,0.0,0.0,0.0,0.0,0.0,0.0,0.0,0.0,0.0,0.0,0.0,0.0,0.0,0.0,0.0,0.0,0.0,0.0,0.0,0.0,0.0,0.0,0.0,0.0,0.0,0.0,0.0,0.0,0.0,0.0,0.0,0.0,0.0,0.0,0.0,0.0,0.0,0.0,0.0,0.0,0.0,0.0,0.0,0.0,0.0,0.0,0.0,0.0,0.0,0.0,0.0,0.0,0.0,0.0,0.0,0.0,0.0,0.0,0.0,0.0,0.0,0.0,0.0,0.0,0.0,0.0,0.0,0.0,0.0,0.0,0.0,0.0,0.0,0.0,0.0,0.0,0.0,0.0,0.0,0.0,-4.1303,-4.6959,-4.8857,-4.933,-4.8385,-4.6093,-4.3601,-4.0964,0.0,0.0,0.0,0.0,0.0,0.0,0.0,0.0,0.0,0.0,0.0,0.0,0.0,0.0,0.0,0.0,0.0,0.0,0.0,0.0,0.0,0.0,0.0,0.0,0.0,0.0,0.0,0.0,0.0,0.0,0.0,0.0,0.0,0.0,0.0,0.0,0.0,0.0,0.0,0.0,0.0,0.0,0.0,0.0,0.0,0.0,0.0,0.0,0.0,0.0,0.0,0.0,0.0,0.0,0.0,0.0,0.0,0.0,0.0,0.0,0.0,0.0,0.0,0.0,0.0,0.0,0.0,0.0,0.0,0.0,0.0,0.0,0.0,0.0,0.0,0.0,0.0,0.0,0.0,0.0,0.0,0.0,0.0,0.0,0.0,0.0,0.0,0.0,0.0,0.0,0.0,0.0,0.0,0.0,0.0,0.0,0.0,0.0,0.0,0.0,0.0,0.0,0.0,-4.0243,-4.3829,-4.7539,-4.8836,-4.8919,-4.7595,-4.5186,-4.2463,-3.9476,-3.6582,0.0,0.0,0.0,0.0,0.0,0.0,0.0,0.0,0.0,0.0,0.0,0.0,0.0,0.0,0.0,0.0,0.0,0.0,0.0,0.0,0.0,0.0,0.0,0.0,0.0,0.0,0.0,0.0,0.0,0.0,0.0,0.0,0.0,0.0,0.0,0.0,0.0,0.0,0.0,0.0,0.0,0.0,0.0,0.0,0.0,0.0,0.0,0.0,0.0,0.0,0.0,0.0,0.0,0.0,0.0,0.0,0.0,0.0,0.0,0.0,0.0,0.0,0.0,0.0,0.0,0.0,0.0,0.0,0.0,0.0,0.0,0.0,0.0,0.0,0.0,0.0,0.0,0.0,0.0,0.0,0.0,0.0,0.0,0.0,0.0,0.0,0.0,0.0,0.0,0.0,0.0,0.0,0.0,0.0,0.0,0.0,0.0,0.0,0.0,0.0,0.0,0.0,-4.2737,-4.5403,-4.7171,-4.8107,-4.7923,-4.6215,-4.3787,-4.099,-3.7822,-3.5316,0.0,0.0,0.0,0.0,0.0,0.0,0.0,0.0,0.0,0.0,0.0,0.0,0.0,0.0,0.0,0.0,0.0,0.0,0.0,0.0,0.0,0.0,0.0,0.0,0.0,0.0,0.0,0.0,0.0,0.0,0.0,0.0,0.0,0.0,0.0,0.0,0.0,0.0,0.0,0.0,0.0,0.0,0.0,0.0,0.0,0.0,0.0,0.0,0.0,0.0,0.0,0.0,0.0,0.0,0.0,0.0,0.0,0.0,0.0,0.0,0.0,0.0,0.0,0.0,0.0,0.0,0.0,0.0,0.0,0.0,0.0,0.0,0.0,0.0,0.0,0.0,0.0,0.0,0.0,0.0,0.0,0.0,0.0,0.0,0.0,0.0,0.0,0.0,0.0,0.0,0.0,0.0,0.0,0.0,0.0,0.0,0.0,0.0,0.0,0.0,0.0,0.0,-4.1795,-4.4024,-4.5834,-4.6222,-4.5668,-4.4067,-4.1592,-3.909,-3.6662,-3.4232,0.0,0.0,0.0,0.0,0.0,0.0,0.0,0.0,0.0,0.0,0.0,0.0,0.0,0.0,0.0,0.0,0.0,0.0,0.0,0.0,0.0,0.0,0.0,0.0,0.0,0.0,0.0,0.0,0.0,0.0,0.0,0.0,0.0,0.0,0.0,0.0,0.0,0.0,0.0,0.0,0.0,0.0,0.0,0.0,0.0,0.0,0.0,0.0,0.0,0.0,0.0,0.0,0.0,0.0,0.0,0.0,0.0,0.0,0.0,0.0,0.0,0.0,0.0,0.0,0.0,0.0,0.0,0.0,0.0,0.0,0.0,0.0,0.0,0.0,0.0,0.0,0.0,0.0,0.0,0.0,0.0,0.0,0.0,0.0,0.0,0.0,0.0,0.0,0.0,0.0,0.0,0.0,0.0,0.0,0.0,0.0,0.0,0.0,0.0,0.0,0.0,0.0,-4.1659,-4.3852,0.0,-4.5895,-4.5319,-4.3641,-4.0757,-3.8007,-3.5627,0.0,0.0,0.0,0.0,0.0,0.0,0.0,0.0,0.0,0.0,0.0,0.0,0.0,0.0,0.0,0.0,0.0,0.0,0.0,0.0,0.0,0.0,0.0,0.0,0.0,0.0,0.0,0.0,0.0,0.0,0.0,0.0,0.0,0.0,0.0,0.0,0.0,0.0,0.0,0.0,0.0,0.0,0.0,0.0,0.0,0.0,0.0,0.0,0.0,0.0,0.0,0.0,0.0,0.0,0.0,0.0,0.0,0.0,0.0,0.0,0.0,0.0,0.0,0.0,0.0,0.0,0.0,0.0,0.0,0.0,0.0,0.0,0.0,0.0,0.0,0.0,0.0,0.0,0.0,0.0,0.0,0.0,0.0,0.0,0.0,0.0,0.0,0.0,0.0,0.0,0.0,0.0,0.0,0.0,0.0,0.0,0.0,0.0,0.0,0.0,0.0,0.0,-3.8385,-4.1055,-4.3225,0.0,-4.494,-4.4168,-4.253,-3.9633,-3.6881,-3.4504,0.0,0.0,0.0,0.0,0.0,0.0,0.0,0.0,0.0,0.0,0.0,0.0,0.0,0.0,0.0,0.0,0.0,0.0,0.0,0.0,0.0,0.0,0.0,0.0,0.0,0.0,0.0,0.0,0.0,0.0,0.0,0.0,0.0,0.0,0.0,0.0,0.0,0.0,0.0,0.0,0.0,0.0,0.0,0.0,0.0,0.0,0.0,0.0,0.0,0.0,0.0,0.0,0.0,0.0,0.0,0.0,0.0,0.0,0.0,0.0,0.0,0.0,0.0,0.0,0.0,0.0,0.0,0.0,0.0,0.0,0.0,0.0,0.0,0.0,0.0,0.0,0.0,0.0,0.0,0.0,0.0,0.0,0.0,0.0,0.0,0.0,0.0,0.0,0.0,0.0,0.0,0.0,0.0,0.0,0.0,0.0,0.0,0.0,0.0,0.0,0.0,0.0,-3.7364,-3.9841,-4.192,-4.3601,-4.3063,-4.1949,-4.033,-3.7993,-3.5626,0.0,0.0,0.0,0.0,0.0,0.0,0.0,0.0,0.0,0.0,0.0,0.0,0.0,0.0,0.0,0.0,0.0,0.0,0.0,0.0,0.0,0.0,0.0,0.0,0.0,0.0,0.0,0.0,0.0,0.0,0.0,0.0,0.0,0.0,0.0,0.0,0.0,0.0,0.0,0.0,0.0,0.0,0.0,0.0,0.0,0.0,0.0,0.0,0.0,0.0,0.0,0.0,0.0,0.0,0.0,0.0,0.0,0.0,0.0,0.0,0.0,0.0,0.0,0.0,0.0,0.0,0.0,0.0,0.0,0.0,0.0,0.0,0.0,0.0,0.0,0.0,0.0,0.0,0.0,0.0,0.0,0.0,0.0,0.0,0.0,0.0,0.0,0.0,0.0,0.0,0.0,0.0,0.0,0.0,0.0,0.0,0.0,0.0,0.0,0.0,0.0,0.0,0.0,-3.6413,-3.8865,-4.0714,-4.1779,-4.1687,-4.1117,-4.0083,-3.7728,-3.5565,-3.3807,0.0,0.0,0.0,0.0,0.0,0.0,0.0,0.0,0.0,0.0,0.0,0.0,0.0,0.0,0.0,0.0,0.0,0.0,0.0,0.0,0.0,0.0,0.0,0.0,0.0,0.0,0.0,0.0,0.0,0.0,0.0,0.0,0.0,0.0,0.0,0.0,0.0,0.0,0.0,0.0,0.0,0.0,0.0,0.0,0.0,0.0,0.0,0.0,0.0,0.0,0.0,0.0,0.0,0.0,0.0,0.0,0.0,0.0,0.0,0.0,0.0,0.0,0.0,0.0,0.0,0.0,0.0,0.0,0.0,0.0,0.0,0.0,0.0,0.0,0.0,0.0,0.0,0.0,0.0,0.0,0.0,0.0,0.0,0.0,0.0,0.0,0.0,0.0,0.0,0.0,0.0,0.0,0.0,0.0,0.0,0.0,0.0,0.0,0.0,0.0,0.0,0.0,-3.5221,-3.7601,-3.9396,-4.0488,-4.0341,-3.996,-3.9486,-3.7249,-3.519,-3.3642,0.0,0.0,0.0,0.0,0.0,0.0,0.0,0.0,0.0,0.0,0.0,0.0,0.0,0.0,0.0,0.0,0.0,0.0,0.0,0.0,0.0,0.0,0.0,0.0,0.0,0.0,0.0,0.0,0.0,0.0,0.0,0.0,0.0,0.0,0.0,0.0,0.0,0.0,0.0,0.0,0.0,0.0,0.0,0.0,0.0,0.0,0.0,0.0,0.0,0.0,0.0,0.0,0.0,0.0,0.0,0.0,0.0,0.0,0.0,0.0,0.0,0.0,0.0,0.0,0.0,0.0,0.0,0.0,0.0,0.0,0.0,0.0,0.0,0.0,0.0,0.0,0.0,0.0,0.0,0.0,0.0,0.0,0.0,0.0,0.0,0.0,0.0,0.0,0.0,0.0,0.0,0.0,0.0,0.0,0.0,0.0,0.0,0.0,0.0,0.0,0.0,0.0,-3.3753,-3.6016,-3.7863,-3.9185,-3.8809,-3.8471,-3.8455,-3.6486,-3.4588,-3.2963,0.0,0.0,0.0,0.0,0.0,0.0,0.0,0.0,0.0,0.0,0.0,0.0,0.0,0.0,0.0,0.0,0.0,0.0,0.0,0.0,0.0,0.0,0.0,0.0,0.0,0.0,0.0,0.0,0.0,0.0,0.0,0.0,0.0,0.0,0.0,0.0,0.0,0.0,0.0,0.0,0.0,0.0,0.0,0.0,0.0,0.0,0.0,0.0,0.0,0.0,0.0,0.0,0.0,0.0,0.0,0.0,0.0,0.0,0.0,0.0,-3.6291,0.0,0.0,0.0,0.0,0.0,0.0,0.0,0.0,0.0,0.0,0.0,0.0,0.0,0.0,0.0,0.0,0.0,0.0,0.0,0.0,0.0,0.0,0.0,0.0,0.0,0.0,0.0,0.0,0.0,0.0,0.0,0.0,0.0,0.0,0.0,0.0,0.0,0.0,0.0,0.0,0.0,-3.1198,-3.3798,-3.5439,-3.5119,-3.6043,-3.6433,-3.5865,-3.5297,-3.4089,-3.1937,-3.0003,0.0,0.0,0.0,0.0,0.0,0.0,0.0,0.0,0.0,0.0,0.0,0.0,0.0,0.0,0.0,0.0,0.0,0.0,0.0,0.0,0.0,0.0,0.0,0.0,0.0,0.0,0.0,0.0,0.0,0.0,0.0,0.0,0.0,0.0,0.0,0.0,0.0,0.0,0.0,0.0,0.0,0.0,0.0,0.0,0.0,0.0,0.0,0.0,0.0,0.0,0.0,0.0,0.0,0.0,0.0,0.0,0.0,0.0,0.0,0.0,-3.731,0.0,0.0,0.0,0.0,0.0,0.0,0.0,0.0,0.0,0.0,0.0,0.0,0.0,0.0,0.0,0.0,0.0,0.0,0.0,0.0,0.0,0.0,0.0,0.0,0.0,0.0,0.0,0.0,0.0,0.0,0.0,0.0,0.0,0.0,0.0,0.0,0.0,0.0,0.0,0.0,-2.9982,-3.1986,-3.3173,-3.2826,-3.3822,-3.4364,-3.4016,-3.3926,-3.3262,-3.1742,-2.9769,0.0,0.0,0.0,0.0,0.0,0.0,0.0,0.0,0.0,0.0,0.0,0.0,0.0,0.0,0.0,0.0,0.0,0.0,0.0,0.0,0.0,0.0,0.0,0.0,0.0,0.0,0.0,0.0,0.0,0.0,0.0,0.0,0.0,0.0,0.0,0.0,0.0,0.0,0.0,0.0,0.0,0.0,0.0,0.0,0.0,0.0,0.0,0.0,0.0,0.0,0.0,0.0,0.0,-4.4337,-4.4575,-4.3445,-4.4644,-4.4133,-4.2244,-4.1741,-4.0741,-3.9378,0.0,0.0,0.0,0.0,0.0,0.0,0.0,0.0,0.0,0.0,0.0,0.0,0.0,0.0,0.0,0.0,0.0,0.0,0.0,0.0,0.0,0.0,0.0,0.0,0.0,-3.1565,-3.0711,0.0,0.0,0.0,0.0,0.0,0.0,0.0,0.0,0.0,0.0,0.0,0.0,-2.9085,-3.0332,-3.1112,-3.1067,-3.1878,-3.2361,-3.2278,-3.2342,-3.2101,-3.1383,-2.9506,-2.808,0.0,0.0,0.0,0.0,0.0,0.0,0.0,0.0,0.0,0.0,0.0,0.0,0.0,0.0,0.0,0.0,0.0,0.0,0.0,0.0,0.0,0.0,0.0,0.0,0.0,0.0,0.0,0.0,0.0,0.0,0.0,0.0,-3.9462,-4.034,0.0,0.0,0.0,0.0,0.0,0.0,0.0,0.0,0.0,0.0,0.0,0.0,0.0,-4.3109,-4.4382,-4.4661,-4.5134,-4.5757,-4.6224,-4.6363,-4.6177,-4.638,-4.5899,-4.4889,-4.4817,0.0,-4.018,-3.9248,0.0,0.0,0.0,0.0,0.0,0.0,0.0,0.0,0.0,0.0,0.0,0.0,0.0,0.0,0.0,0.0,0.0,0.0,0.0,0.0,0.0,0.0,-3.29,-3.3897,-3.3203,-3.2459,0.0,-3.2134,-3.0938,-2.9591,-2.8752,0.0,0.0,0.0,0.0,0.0,0.0,0.0,-2.7441,-2.8699,-2.9331,-2.8647,-2.9899,-3.0518,-2.9828,-3.0414,-3.0432,-2.9588,-2.935,-2.8613,-2.7189,-2.6272,0.0,0.0,0.0,0.0,0.0,0.0,0.0,0.0,0.0,0.0,0.0,0.0,0.0,0.0,0.0,0.0,0.0,0.0,0.0,0.0,0.0,0.0,0.0,0.0,0.0,0.0,0.0,0.0,0.0,-3.888,-4.0719,-4.1398,-4.1385,-4.0932,0.0,0.0,0.0,0.0,0.0,0.0,0.0,0.0,0.0,-4.2241,-4.3344,-4.4496,-4.5718,-4.6225,-4.6717,-4.7128,-4.8066,-4.81,-4.7342,-4.777,-4.7078,-4.5564,-4.5564,-4.429,-4.2071,-4.0671,-3.9089,-3.7352,0.0,0.0,0.0,0.0,-3.2488,-3.2092,-3.2797,-3.3285,0.0,-3.351,0.0,0.0,0.0,0.0,0.0,0.0,0.0,0.0,0.0,0.0,-3.3516,-3.4549,-3.4211,-3.3769,-3.4079,-3.404,-3.329,0.0,-3.0126,-2.9179,-2.766,0.0,0.0,0.0,0.0,-2.7174,-2.7554,-2.81,-2.8185,-2.7487,-2.8442,-2.8955,-2.8647,-2.9279,-2.9758,-2.9878,-2.9484,-2.9143,-2.8972,-2.7432,-2.6109,0.0,0.0,0.0,0.0,0.0,0.0,0.0,0.0,0.0,0.0,0.0,0.0,0.0,0.0,0.0,0.0,0.0,0.0,0.0,0.0,0.0,0.0,0.0,0.0,0.0,0.0,0.0,0.0,-4.005,-4.1805,-4.2282,-4.2516,-4.2187,0.0,0.0,0.0,0.0,0.0,0.0,-4.0622,-4.1822,-4.2784,-4.3513,-4.4555,-4.5547,-4.6494,-4.7148,-4.7549,-4.771,-4.8916,-4.8844,-4.7684,-4.8236,-4.7413,-4.5574,-4.5574,-4.467,-4.3073,-4.1816,-4.0151,-3.8287,-3.7076,-3.5806,-3.4748,-3.5132,-3.4946,-3.459,-3.5217,-3.5628,-3.5849,-3.5517,0.0,-3.356,-3.2896,0.0,0.0,0.0,0.0,-3.2192,-3.2519,-3.2884,-3.3403,-3.4429,-3.4356,-3.4091,-3.408,-3.4404,-3.4079,0.0,-3.1251,-3.0348,-2.8594,0.0,0.0,0.0,0.0,-2.7233,-2.7623,-2.7741,-2.7571,-2.6927,-2.7369,-2.7726,-2.7709,-2.8354,-2.9119,-2.9903,-2.954,-2.9507,-2.9971,-2.8202,-2.6687,-2.5563,0.0,0.0,0.0,0.0,0.0,0.0,0.0,0.0,0.0,0.0,0.0,0.0,0.0,0.0,0.0,0.0,0.0,0.0,0.0,0.0,0.0,0.0,0.0,0.0,0.0,0.0,0.0,0.0,0.0,-4.353,-4.4064,0.0,0.0,0.0,0.0,-4.1719,-4.2303,-4.3007,-4.3744,-4.4423,-4.5161,-4.5799,-4.5893,-4.6282,-4.7037,-4.7476,-4.7681,-4.7719,-4.8174,-4.8008,-4.7341,-4.7373,-4.6589,-4.5229,-4.5229,-4.4012,-4.2093,-4.2267,-4.1545,-4.0284,-3.9495,-3.823,-3.6888,-3.7214,-3.6724,-3.6041,-3.7002,-3.6955,-3.6554,-3.7155,-3.5284,-3.2694,-3.2352,-3.1469,0.0,0.0,-3.1941,-3.1683,-3.3093,-3.2847,-3.2504,-3.3518,-3.3353,-3.2975,-3.2975,-3.2497,-3.2122,0.0,-3.2242,-3.1495,-2.9245,0.0,-2.7504,-2.6877,-2.7454,-2.7657,-2.6877,-2.7385,-2.7519,-2.6793,-2.6859,-2.6877,-2.6691,-2.7417,-2.8142,-2.8734,-2.9465,-2.957,-2.8895,-2.816,-2.6742,-2.4608,-2.3021,0.0,0.0,0.0,0.0,0.0,0.0,0.0,0.0,0.0,0.0,0.0,0.0,0.0,0.0,0.0,0.0,0.0,0.0,0.0,0.0,0.0,0.0,0.0,0.0,0.0,0.0,0.0,0.0,-4.5639,-4.6167,0.0,-4.4939,-4.4006,-4.3487,-4.3632,-4.4139,-4.4768,-4.545,-4.6527,-4.7042,-4.683,-4.724,-4.746,-4.7402,-4.7537,-4.7702,-4.7906,-4.8028,-4.7521,-4.6477,-4.6477,-4.5734,-4.4412,-4.4412,-4.382,-4.2843,-4.2934,-4.1552,-3.9395,-3.9124,-3.8288,-3.7232,-3.7706,-3.7277,-3.6505,-3.677,-3.6692,-3.6492,-3.6384,-3.5268,-3.3911,-3.3544,-3.2903,-3.2323,-3.2228,-3.2309,-3.2415,-3.24,-3.2557,-3.284,-3.3335,-3.3425,-3.3292,-3.2802,-3.2562,-3.2168,-3.1316,-3.0904,-3.0495,-2.9843,-2.8439,-2.7836,-2.9192,-2.8531,-2.813,-2.8805,-2.8246,-2.7705,-2.7435,-2.703,-2.6725,-2.6606,-2.6669,-2.6979,-2.7634,-2.7729,-2.7882,-2.8148,-2.7017,-2.5781,-2.4528,-2.349,-2.2205,0.0,0.0,0.0,0.0,0.0,0.0,0.0,0.0,0.0,0.0,0.0,0.0,0.0,0.0,0.0,0.0,0.0,0.0,0.0,0.0,0.0,0.0,0.0,0.0,0.0,0.0,-4.5458,-4.6852,-4.7367,-4.7292,-4.6445,-4.5725,-4.5146,-4.4839,-4.5552,-4.6082,-4.6264,-4.7578,-4.7982,-4.7324,-4.7728,-4.783,-4.751,-4.7553,-4.7666,-4.788,-4.7964,-4.7308,-4.6017,-4.6017,-4.5287,-4.3988,-4.3988,-4.3723,-4.3213,-4.3288,-4.1855,-3.9612,-3.9692,-3.9188,-3.8435,-3.876,-3.8507,-3.7897,-3.7354,-3.7169,-3.7016,-3.5967,-3.5347,-3.4881,-3.4372,-3.3926,-3.3439,-3.264,-3.2699,-3.2831,-3.2056,-3.2265,-3.2715,-3.2839,-3.2985,-3.2992,-3.2494,-3.209,-3.1517,-3.0523,-3.017,-2.996,-2.9697,-2.858,-2.822,-2.9696,-2.9025,-2.8535,-2.9057,-2.8451,-2.778,-2.7311,-2.6824,-2.6487,-2.6381,-2.6137,-2.6173,-2.6536,-2.6552,-2.6661,-2.6944,-2.6241,-2.5382,-2.441,-2.3475,-2.2118,-2.0354,0.0,0.0,0.0,0.0,0.0,0.0,0.0,0.0,0.0,0.0,0.0,0.0,0.0,0.0,0.0,0.0,0.0,0.0,0.0,0.0,0.0,0.0,0.0,-4.2423,-4.4389,-4.6097,-4.7204,-4.7542,-4.76,-4.7399,-4.6971,-4.6353,-4.5469,-4.6651,-4.7115,-4.6456,-4.7638,-4.8042,-4.7354,-4.7354,-4.7339,-4.7309,-4.7525,-4.7611,-4.7581,-4.7822,-4.7266,-4.6006,-4.5991,-4.5263,-4.4018,-4.4018,-4.3638,-4.3016,-4.3243,-4.2493,-4.1255,-4.1515,-4.1155,-4.0489,-4.0489,-4.0489,-4.0274,-3.8921,-3.8477,-3.8154,-3.6153,-3.5537,-3.5383,-3.4736,-3.4387,-3.4056,-3.3383,-3.3099,-3.2846,-3.2163,-3.1996,-3.1996,-3.1996,-3.1996,-3.1996,-3.1996,-3.0949,-3.0008,-3.0008,-3.0248,-3.0014,-2.879,-2.8747,-2.8672,-2.8123,-2.877,0.0,-2.742,-2.7819,-2.7725,-2.6352,-2.617,-2.6099,-2.5881,-2.5775,-2.5663,-2.5438,-2.5953,-2.5958,-2.5266,-2.5819,-2.5511,-2.4167,-2.2833,-2.1553,-2.03,0.0,0.0,0.0,0.0,0.0,0.0,0.0,0.0,0.0,0.0,0.0,0.0,0.0,0.0,0.0,0.0,0.0,0.0,0.0,0.0,0.0,-4.2147,-4.3195,-4.3114,-4.5282,-4.7292,-4.861,-4.9194,-4.9464,-4.9388,-4.9314,-4.8925,-4.8266,-4.8955,-4.9149,-4.8491,-4.9239,-4.9179,-4.8057,-4.8476,-4.8267,-4.7309,-4.7817,-4.786,-4.7381,-4.6944,-4.6566,-4.619,-4.5695,-4.5004,-4.4208,-4.4208,-4.3967,-4.3521,-4.3559,-4.2872,-4.176,-4.1643,-4.1155,-4.0489,-4.0489,-4.0182,-3.9567,-3.8246,-3.7769,-3.76,-3.6553,-3.5891,-3.5445,-3.5124,-3.4621,-3.4026,-3.3282,-3.3012,-3.2846,-3.2163,-3.1996,-3.1996,-3.1996,-3.1996,-3.1996,-3.1996,-3.0949,-3.0008,-3.0008,-2.9281,-2.864,-2.8474,-2.8183,-2.8158,-2.872,-2.8271,0.0,-2.8047,-2.7357,-2.6697,-2.6309,-2.5791,-2.5408,-2.5272,-2.4617,-2.416,-2.4057,-2.3507,-2.3354,-2.3608,-2.335,-2.2991,-2.2617,-2.1854,-2.1108,0.0,0.0,0.0,0.0,0.0,0.0,0.0,0.0,0.0,0.0,0.0,0.0,0.0,0.0,0.0,0.0,0.0,0.0,0.0,0.0,0.0,0.0,-4.3928,-4.5125,-4.5005,-4.6561,-4.8207,-4.9523,-4.9763,-4.9942,-5.0166,-5.0196,-4.9972,-4.9359,-4.9868,-4.9838,-4.8955,-4.9479,-4.9224,-4.7923,-4.8252,-4.8072,-4.7309,-4.7683,-4.7683,-4.7309,-4.692,-4.6441,-4.5873,-4.5484,-4.4781,0.0,-4.3898,-4.3728,-4.3557,-4.3651,-4.2984,0.0,0.0,0.0,0.0,0.0,-4.0052,-3.9516,-3.817,-3.7711,-3.7543,-3.661,-3.6029,-3.5676,-3.5568,-3.5186,-3.4623,-3.3622,-3.326,-3.2974,-3.2039,-3.1798,-3.1798,-3.1798,-3.1798,-3.1798,-3.1798,-3.0757,-2.9822,-2.9822,-2.8761,0.0,-2.8039,-2.7994,-2.814,-2.8771,-2.8295,-2.7844,-2.7692,-2.6978,-2.6233,-2.5647,-2.5199,-2.4902,-2.4799,-2.3975,0.0,0.0,0.0,-2.2297,-2.2985,-2.2636,0.0,0.0,0.0,0.0,0.0,0.0,0.0,0.0,-2.108,-2.0965,0.0,0.0,0.0,0.0,0.0,0.0,0.0,0.0,0.0,0.0,0.0,0.0,0.0,0.0,0.0,0.0,-4.4855,-4.68,-4.7534,-4.8132,-4.894,-5.0061,-4.9673,-4.9523,-5.0121,-5.0121,-4.9898,-4.9359,-4.9868,-4.9703,-4.8461,0.0,0.0,0.0,0.0,-4.7459,-4.7309,-4.7309,-4.7309,-4.7309,-4.716,-4.6486,-4.5409,-4.5334,-4.4616,-4.3409,-4.3409,-4.3364,-4.3329,-4.3557,-4.2868,-4.1648,-4.1758,-4.1043,-4.0011,-4.0011,-4.0011,-3.9813,-3.8478,0.0,0.0,-3.6461,-3.6005,-3.6005,-3.5973,-3.5831,-3.5416,-3.412,-3.3637,-3.3185,-3.1854,-3.1511,-3.1511,-3.1511,-3.1511,-3.1511,-3.1511,-3.0507,-2.9606,-2.9606,-2.8528,-2.76,-2.76,-2.7989,-2.8332,-2.8383,-2.8449,-2.8023,-2.6843,-2.6563,-2.5967,-2.4735,0.0,0.0,-2.44,-2.3666,-2.2922,-2.2213,-2.2044,-2.2232,-2.2839,-2.293,-2.293,-2.2854,-2.2341,-2.1717,-2.1029,-2.0571,-2.0939,-2.2026,-2.1031,-2.0498,0.0,0.0,0.0,0.0,0.0,0.0,0.0,0.0,0.0,0.0,0.0,0.0,0.0,0.0,0.0,-4.4407,-4.6516,-4.8327,-4.9463,-4.9732,-4.9912,-5.0166,-4.9673,-4.9523,-5.0121,-4.9763,-4.9449,-4.9329,-4.9868,-4.9898,-4.9164,-4.9703,-4.9449,-4.8132,-4.8655,-4.8371,-4.7309,-4.7309,-4.7309,-4.7294,0.0,0.0,-4.6112,-4.5544,-4.487,-4.4122,-4.4122,-4.3783,-4.329,-4.3384,-4.2605,-4.1393,-4.0671,-4.0238,-4.0011,-4.0011,-4.0011,-3.9813,-3.8478,-3.8007,-3.7795,-3.6461,-3.6005,-3.5973,-3.5831,-3.572,0.0,-3.3951,-3.353,-3.3185,-3.1854,-3.1511,-3.1511,-3.1511,-3.1511,-3.1511,-3.1511,-3.0507,-2.9606,-2.9606,-2.8528,-2.76,-2.76,-2.77,-2.775,-2.776,-2.7333,-2.6919,-2.6639,-2.5673,-2.4897,-2.4641,-2.4135,-2.3803,-2.3782,-2.3188,-2.2751,-2.2575,-2.2059,-2.1814,-2.1954,-2.2465,-2.251,-2.1949,-2.1834,-2.1177,-1.9996,-2.0414,-2.076,-2.1001,-2.1523,-2.2007,0.0,0.0,0.0,0.0,0.0,0.0,0.0,0.0,0.0,0.0,0.0,-4.1175,-4.2177,0.0,-4.4512,-4.5496,-4.7212,-4.8639,-4.9232,-4.9946,-5.0424,-5.0689,-5.0152,-5.0002,-5.0629,-5.0137,-4.9748,-4.9748,-4.9748,-4.9613,-4.9329,-4.9583,-4.9299,-4.8312,-4.8596,-4.8297,-4.7309,-4.698,-4.6815,-4.68,-4.5783,-4.5304,-4.5304,-4.496,-4.4451,-4.3783,-4.3783,-4.3604,-4.3245,-4.2626,-4.1968,-4.1287,-4.0151,-3.9711,-3.9711,-3.9711,-3.9711,-3.9516,-3.8174,-3.7707,-3.7496,-3.617,-3.5733,-3.5733,-3.5636,-3.5589,-3.5319,-3.3904,-3.3499,-3.3185,-3.1854,-3.1511,-3.1511,-3.1511,-3.1511,-3.1511,-3.1511,-3.0507,-2.9606,-2.9606,-2.8528,-2.76,-2.76,-2.76,-2.76,-2.76,-2.7315,-2.6986,-2.6632,-2.5734,-2.4963,-2.4649,-2.4014,-2.3595,-2.3595,-2.3062,-2.2703,-2.2703,-2.2054,-2.1844,-2.2194,-2.2523,-2.2688,-2.2652,-2.2338,-2.1879,-2.1205,-2.1201,-2.138,-2.1695,-2.2169,-2.238,0.0,0.0,0.0,0.0,0.0,0.0,0.0,0.0,-4.0516,-4.1698,-4.3,-4.3992,-4.4355,-4.5409,-4.6146,-4.6146,-4.7436,-4.857,-4.8688,-4.9631,-5.0437,-5.0832,-5.037,-5.0266,-5.0835,-5.0297,-4.9896,-4.9776,-4.9494,-4.9254,-4.912,-4.9359,-4.909,-4.8312,-4.8416,-4.8102,-4.7309,-4.6516,-4.6187,-4.6264,-4.5499,-4.4825,-4.4317,-4.4317,-4.3917,-4.329,-4.329,-4.329,-4.3185,-4.1923,-4.1422,-4.1287,-3.9933,-3.9388,-3.9388,-3.9388,-3.9388,-3.9194,-3.7883,-3.7404,-3.7195,-3.5923,-3.5504,-3.5504,-3.5504,-3.5504,-3.522,-3.3873,-3.3499,-3.3185,-3.1854,-3.1511,-3.1511,-3.1511,-3.1511,-3.1511,-3.1511,-3.0507,-2.9606,-2.9606,-2.8528,-2.76,-2.76,-2.76,-2.76,-2.76,-2.76,-2.7405,-2.6866,-2.6093,-2.5382,-2.4844,-2.4088,-2.3595,-2.3595,-2.3152,-2.2823,-2.2703,-2.2194,-2.2149,-2.2673,-2.2703,-2.2927,-2.3415,-2.2957,-2.2643,-2.2508,-2.2084,-2.2179,-2.2703,-2.2823,-2.2598,-3.7996,-3.8601,-4.0277,-4.1632,-4.1946,-4.2141,0.0,0.0,-4.3065,-4.3838,-4.5065,-4.5744,-4.5054,-4.5936,-4.674,-4.6579,-4.7626,-4.8717,-4.9292,-4.9513,-4.9648,-4.9681,-4.9622,-4.9607,-4.9681,-4.9304,-4.8818,-4.8209,-4.888,-4.906,-4.8416,-4.9494,-4.9568,-4.8327,-4.8895,-4.8566,-4.7309,-4.6037,-4.5723,-4.6264,-4.5035,-4.4392,-4.4317,-4.4317,-4.3917,-4.329,-4.329,-4.329,-4.3185,-4.1923,-4.1422,-4.1287,-3.9933,-3.9388,-3.9388,-3.9388,-3.9388,-3.9194,-3.7883,-3.7404,-3.7195,-3.5923,-3.5504,-3.5504,-3.5504,-3.5504,-3.522,-3.3873,-3.3499,-3.3185,-3.1854,-3.1511,-3.1511,-3.1511,-3.1511,-3.1511,-3.1511,-3.0507,-2.9606,-2.9606,-2.8528,-2.76,-2.76,-2.76,-2.76,-2.76,-2.76,-2.757,-2.7495,-2.6378,-2.5561,-2.551,-2.4358,-2.3595,-2.3595,-2.3535,-2.3266,-2.2733,-2.2628,-2.2628,-2.2703,-2.2703,-2.2733,-2.2808,-2.2733,-2.2418,-2.1799,-2.2343,-2.2628,-2.2703,-2.3236,-2.346,-4.0738,-4.1175,-4.2417,-4.3733,-4.4661,-4.5409,-4.6082,-4.6232,-4.6396,-4.7055,-4.7821,-4.8149,-4.7392,-4.7791,-4.8036,0.0,-4.8112,-4.8573,-4.8518,-4.8825,-4.8913,-4.8547,-4.8503,-4.8644,-4.8923,-4.8932,-4.8639,-4.7941,-4.8044,-4.8177,-4.8282,-4.8805,-4.885,-4.8312,-4.8551,-4.8252,-4.7309,-4.6367,-4.5843,-4.5723,-4.4766,-4.4122,-4.3708,-4.3708,-4.3559,-4.3275,-4.294,-4.2776,-4.2656,-4.1354,-4.0816,-4.0711,-3.9783,-3.9388,-3.9388,-3.9388,-3.9388,-3.9194,-3.7883,-3.7404,-3.7195,-3.5923,-3.5504,-3.5504,-3.5504,-3.5504,-3.522,-3.3873,-3.3499,-3.3185,-3.1854,-3.1511,-3.1511,-3.1511,-3.1511,-3.1511,-3.1511,-3.0507,-2.9606,-2.9606,-2.8528,-2.76,-2.76,-2.76,-2.76,-2.76,-2.76,-2.76,-2.76,-2.6422,-2.5315,-2.4522,-2.3924,-2.3595,-2.3595,-2.3595,-2.349,-2.3236,-2.3206,-2.3206,-2.3206,-2.3206,-2.3206,-2.3206,-2.3206,-2.3086,-2.2802,-2.3086,-2.3206,-2.3242,-2.3475,-2.3595,-4.2715,-4.324,-4.4152,-4.5289,-4.6576,-4.7653,-4.7952,-4.8162,-4.8371,-4.8715,-4.8939,-4.8936,-4.8371,-4.8286,-4.8272,-4.8062,-4.8254,-4.842,-4.8319,-4.8391,-4.829,-4.784,-4.7477,-4.7372,-4.7548,-4.8262,-4.8323,-4.751,-4.7421,-4.7523,-4.7821,-4.8015,-4.8015,-4.7836,-4.8044,-4.7865,-4.7222,-4.6608,-4.5978,-4.5289,-4.4631,-4.3932,-4.329,-4.329,-4.329,-4.326,-4.2641,-4.2306,-4.2036,-4.0876,-4.0292,-4.0083,-3.9604,-3.9388,-3.9394,-3.92,-3.9125,-3.8945,-3.7614,-3.715,-3.6971,-3.5863,-3.5504,-3.5504,-3.5504,-3.5504,-3.522,-3.3873,-3.3499,-3.3185,-3.1854,-3.1511,-3.1511,-3.1511,-3.1511,-3.1511,-3.1511,-3.0642,-2.9789,-2.9636,-2.8678,-2.7824,-2.763,-2.76,-2.76,-2.76,-2.76,-2.76,-2.76,-2.6422,-2.5091,-2.3744,-2.3595,-2.3595,-2.3595,-2.3595,-2.3588,-2.3566,-2.3566,-2.3566,-2.3523,-2.3523,-2.3523,-2.3523,-2.3523,-2.3545,-2.3566,-2.3566,-2.3566,-2.3566,-2.3566,-2.3566,-4.2955,-4.4257,-4.5409,-4.6112,-4.7279,-4.8087,-4.7474,-4.7833,-4.8117,-4.7489,-4.7225,-4.7006,-4.6698,-4.6505,-4.6706,-4.7625,-4.7843,-4.8232,-4.9451,-4.8566,-4.7796,-4.7782,-4.6693,-4.5737,0.0,-4.6967,-4.7689,-4.6342,-4.708,-4.7317,-4.6712,-4.7258,-4.7317,-4.6683,-4.7481,-4.7585,-4.6931,-4.6522,-4.5978,-4.5289,-4.4631,-4.3932,-4.329,-4.329,-4.329,-4.326,-4.2641,-4.2036,-4.1392,-4.0681,-4.0023,-3.9454,-3.9388,-3.9388,-3.9298,-3.8661,-3.8422,-3.8242,-3.6956,-3.6507,-3.6402,-3.5729,-3.5504,-3.5504,-3.5504,-3.5504,-3.522,-3.3873,-3.3499,-3.3185,-3.1854,-3.1511,-3.1511,-3.1511,-3.1511,-3.1511,-3.1511,-3.0943,-3.0298,-2.9726,-2.9026,-2.8353,-2.7705,-2.76,-2.76,-2.76,-2.76,-2.76,-2.76,-2.6422,-2.5091,-2.3744,-2.3595,-2.3595,-2.3595,-2.3595,-2.3566,-2.3509,-2.3509,-2.3429,-2.3319,-2.3319,-2.3319,-2.3319,-2.3319,-2.3363,-2.3509,-2.3509,-2.3509,-2.3509,-2.3509,-2.3509,-4.3629,-4.496,-4.6142,-4.6815,-4.8282,-4.9419,-4.876,-4.9105,-4.9269,-4.8177,-4.7302,-4.6697,-4.6639,-4.6284,-4.6261,-4.7013,-4.7854,-4.8406,-4.842,-4.8406,-4.8101,-4.7259,-4.678,0.0,0.0,0.0,0.0,-4.501,-4.5756,-4.6196,-4.5931,-4.655,-4.6815,-4.6609,-4.7007,-4.6946,-4.6322,-4.6299,-4.5753,-4.4631,-4.3947,-4.3499,-4.329,-4.2895,-4.2686,-4.2626,-4.1534,-4.0681,-4.0068,-3.9843,-3.9349,-3.8781,-3.9245,-3.9388,-3.9239,-3.8153,-3.7749,-3.7629,-3.6776,-3.6492,-3.6372,-3.5714,-3.5504,-3.5504,-3.5504,-3.5504,-3.522,-3.3873,-3.3499,-3.3185,-3.1854,-3.1511,-3.1511,-3.1511,-3.1511,-3.1511,-3.1511,-3.0957,-3.0447,-3.0238,-2.9325,-2.8532,-2.8293,-2.7899,-2.76,-2.76,-2.76,-2.7435,-2.7001,-2.6153,-2.5247,-2.435,-2.3879,-2.3595,-2.3595,-2.3545,-2.3516,-2.3509,-2.3422,-2.3341,-2.3297,-2.3297,-2.3297,-2.3297,-2.3297,-2.3363,-2.3509,-2.3407,-2.3407,-2.3509,-2.3407,-2.3407,-4.4723,-4.605,-4.713,-4.7549,-4.879,-4.9658,-4.876,-4.9075,-4.9119,-4.776,-4.6472,-4.5621,-4.577,-4.5274,-4.5213,-4.6316,-4.7564,-4.8246,-4.784,-4.813,-4.7999,-4.6908,-4.6417,-4.5576,0.0,0.0,0.0,-4.3859,-4.479,-4.5361,-4.5361,-4.6006,-4.6328,-4.6328,-4.6535,-4.6358,-4.5781,-4.5966,-4.5382,-4.4098,-4.3403,-4.313,-4.318,-4.2524,-4.2183,-4.1976,-4.0621,-3.9544,-3.8686,-3.8945,-3.8661,-3.8123,-3.905,-3.9388,-3.926,-3.7898,-3.7404,-3.7285,-3.6432,-3.6133,-3.6073,-3.5639,-3.5504,-3.5504,-3.5504,-3.5504,-3.5265,-3.4158,-3.3679,-3.3245,-3.2123,-3.1675,-3.1511,-3.1511,-3.1511,-3.1511,-3.1511,-3.1152,-3.0806,-3.0552,-2.9654,-2.8876,-2.8637,-2.8049,-2.76,-2.76,-2.7549,-2.73,-2.6618,-2.6156,-2.5521,-2.4558,-2.4067,-2.3732,-2.3516,-2.3451,-2.3422,-2.3356,-2.3268,-2.3223,-2.3157,-2.3157,-2.3157,-2.3157,-2.3157,-2.3209,-2.3371,-2.3268,-2.3268,-2.3356,-2.3268,-2.3268,-4.6203,-4.7527,-4.8371,-4.8341,-4.8835,-4.9015,-4.7653,-4.7818,-4.7804,-4.6215,-4.4652,-4.3649,-4.4029,-4.3466,-4.3515,-4.543,-4.6867,-4.7738,-4.7738,-4.7753,-4.755,0.0,0.0,0.0,0.0,0.0,0.0,-4.305,0.0,-4.4835,-4.4835,-4.5503,-4.5866,-4.5837,-4.6047,-4.5844,-4.5215,-4.5373,-4.4853,-4.3643,-4.2983,-4.2809,-4.2966,-4.2283,-4.173,-4.125,-3.9933,-3.8601,-3.7419,-3.8108,-3.8003,-3.7539,-3.8886,-3.9388,-3.926,-3.7898,-3.7404,-3.7225,-3.5953,-3.5504,-3.5504,-3.5504,-3.5504,-3.5504,-3.5504,-3.5504,-3.5355,-3.4698,-3.4054,-3.338,-3.2691,-3.2019,-3.154,-3.1511,-3.1511,-3.1511,-3.1511,-3.1511,-3.1316,-3.0687,-3.0028,-2.9355,-2.8667,-2.8008,-2.76,-2.7575,-2.7463,-2.7179,-2.653,-2.6426,-2.5844,-2.4402,-2.4225,-2.396,-2.3341,-2.3297,-2.3246,-2.3105,-2.3082,-2.3015,-2.2888,-2.2865,-2.2865,-2.2865,-2.2865,-2.2947,-2.3082,-2.306,-2.306,-2.306,-2.306,-2.306,-4.746,-4.8665,-4.9628,-4.9134,-4.9508,-4.9643,-4.8327,-4.7656,-4.678,-4.4894,-4.2799,-4.1356,-4.1466,-4.1543,0.0,-4.3485,-4.5605,0.0,-4.7071,-4.7491,0.0,-4.6865,0.0,-4.5895,-4.4763,-4.4501,0.0,0.0,-4.4037,-4.4211,-4.4211,-4.5285,-4.5648,-4.5155,-4.542,-4.4966,-4.3798,-4.3551,-4.3263,-4.2939,-4.2777,-4.2809,-4.2951,-4.1837,-4.109,-4.0576,-3.923,-3.7913,-3.6806,-3.7928,-3.8003,-3.7539,-3.8886,-3.9388,-3.926,-3.7898,-3.7404,-3.7225,-3.5953,-3.5504,-3.5504,-3.5504,-3.5504,-3.5504,-3.5504,-3.5504,-3.5355,-3.4698,-3.4384,-3.3994,-3.2811,-3.2363,-3.2108,-3.163,-3.1511,-3.1511,-3.1511,-3.1511,-3.1451,-3.1271,-3.0357,-2.9194,-2.7925,-2.7556,-2.7412,-2.7335,-2.7284,-2.7225,-2.7138,-2.6618,-2.5923,-2.5044,-2.4505,-2.396,-2.3341,-2.3201,-2.3149,-2.3105,-2.2962,-2.2826,-2.2684,-2.2684,-2.2684,-2.2684,-2.2684,-2.2715,-2.2799,-2.2646,-2.2578,-2.2578,-2.2486,-2.2486,-4.8779,-4.9611,-5.0046,-4.9434,-4.9538,-4.9389,-4.7788,-4.6524,-4.5236,-4.339,-4.0984,-3.9349,-3.9833,-4.011,-4.0858,0.0,0.0,0.0,-4.6417,-4.6969,-4.7129,0.0,-4.6417,0.0,-4.498,-4.4879,-4.4632,0.0,-4.424,-4.4385,-4.4385,-4.5343,-4.5576,-4.4908,-4.5069,-4.4501,-4.3175,-4.2658,-4.2433,-4.2433,-4.2433,-4.2541,-4.2684,-4.1401,-4.0446,-3.9742,0.0,-3.7103,-3.6015,-3.7297,-3.761,-3.7451,-3.8743,-3.9301,-3.926,-3.7898,-3.7404,-3.7225,-3.5953,-3.5504,-3.5504,-3.5504,-3.5504,-3.5504,-3.5504,-3.5504,-3.5429,-3.504,-3.4743,-3.4279,-3.3215,-3.2736,-3.2318,-3.166,-3.1511,-3.1511,-3.1511,-3.1511,-3.1406,-3.1122,-3.0268,-2.9223,-2.8021,-2.7594,-2.735,-2.7233,-2.7144,-2.7144,-2.7196,-2.6821,-2.6157,-2.5155,-2.4745,-2.4122,-2.3208,-2.3045,-2.3015,-2.3015,-2.2812,-2.2629,-2.2417,-2.2417,-2.2417,-2.2417,-2.2417,-2.2426,-2.248,-2.224,-2.2077,-2.1969,-2.1874,-2.1898,-5.0153,-5.0396,-5.0197,-4.9449,-4.9239,-4.864,-4.6531,-4.4795,-4.3233,-4.1627,-3.9112,-3.7478,-3.8516,-3.8826,-3.9755,-4.2208,0.0,-4.5663,-4.575,-4.6229,-4.6374,-4.5822,-4.575,-4.5518,-4.4937,-4.4966,-4.4806,-4.4284,-4.4734,-4.498,-4.4879,-4.5518,-4.5547,-4.4792,-4.4603,-4.3979,-4.2876,-4.2353,-4.2092,-4.2092,-4.2005,-4.207,-4.2216,-4.09,-3.9789,-3.8911,-3.7608,0.0,-3.5284,-3.6556,-3.7124,-3.7327,-3.8585,-3.9228,-3.926,-3.7898,-3.7404,-3.7225,-3.5953,-3.5504,-3.5504,-3.5504,-3.5504,-3.5504,-3.5504,-3.5504,-3.5504,-3.5504,-3.507,-3.4474,-3.3694,-3.3066,-3.2452,-3.1675,-3.1511,-3.1511,-3.1511,-3.1511,-3.1301,-3.0642,-3.0073,-2.9433,-2.8527,-2.7906,-2.7413,-2.7196,-2.7041,-2.6977,-2.6977,-2.6977,-2.6458,-2.5164,-2.5009,-2.4467,-2.3204,-2.3016,-2.295,-2.2927,-2.2658,-2.237,-2.2114,-2.2091,-2.2091,-2.2091,-2.2091,-2.2091,-2.2091,-2.1817,-2.1595,-2.1418,-2.1418,-2.1448,-5.149,-5.1213,-5.0765,-4.9614,-4.885,-4.7788,-4.5244,-4.2946,0.0,-3.8952,-3.6649,-3.5174,-3.593,-3.691,-3.8289,-4.0278,-4.2687,-4.4487,-4.498,-4.5155,-4.5184,0.0,-4.5053,0.0,0.0,0.0,0.0,0.0,0.0,-4.5474,-4.4922,-4.5518,-4.5343,-4.4182,-4.3123,-4.2469,-4.2252,-4.215,-4.2092,-4.2092,-4.1541,-4.1386,-4.1514,-4.0227,-3.9164,-3.8222,-3.7325,0.0,-3.5284,-3.6468,-3.7035,-3.7327,-3.8585,-3.9228,-3.926,-3.7898,-3.7404,-3.7225,-3.5953,-3.5504,-3.5504,-3.5504,-3.5504,-3.5504,-3.5504,-3.5504,-3.5504,-3.5504,-3.5415,-3.504,-3.3814,-3.341,-3.3021,-3.1795,-3.1511,-3.1511,-3.1511,-3.1511,-3.1301,-3.0642,-3.0417,-2.9886,-2.848,-2.8131,-2.78,-2.6983,-2.6858,-2.6832,-2.6832,-2.6832,-2.6515,-2.573,-2.5546,-2.5117,-2.4218,-2.3578,-2.3174,-2.3068,-2.2361,-2.1817,-2.1544,-2.1544,-2.1544,-2.1544,-2.1544,-2.1544,-2.1544,-2.1277,-2.1261,-2.1471,-2.1471,-2.1733,-5.218,-5.144,-5.0391,-4.909,-4.7997,-4.6576,-4.3898,0.0,0.0,-3.724,-3.4771,-3.3311,-3.4632,-3.5386,-3.6635,-3.9218,-4.1236,-4.2818,-4.3776,-4.4197,0.0,-4.4414,-4.469,0.0,0.0,0.0,0.0,0.0,0.0,-4.575,-4.5416,-4.5082,-4.4618,-4.4008,-4.276,-4.2092,-4.2092,-4.2092,-4.2092,-4.2092,-4.1424,-4.0957,-4.0669,-3.9401,-3.8267,-3.7273,-3.6555,0.0,-3.5019,-3.6261,-3.679,-3.7013,-3.831,-3.8922,-3.8941,-3.7599,-3.7193,-3.7069,-3.5773,-3.5407,-3.5504,-3.5504,-3.5265,-3.504,-3.5385,-3.525,-3.504,-3.54,-3.5504,-3.519,-3.3844,-3.3499,-3.3155,-3.1824,-3.1511,-3.1511,-3.1511,-3.1511,-3.1406,-3.1077,-3.0746,-3.0214,-2.9328,-2.8636,-2.7998,-2.737,-2.6997,-2.6806,-2.6806,-2.6712,-2.6425,-2.585,-2.5629,-2.5126,-2.423,-2.368,-2.3186,-2.2669,-2.2119,-2.1549,-2.1008,-2.0981,-2.0981,-2.0981,-2.0981,-2.0981,-2.0995,-2.1012,-2.1056,-2.1091,-2.1359,-2.1641,-5.2394,-5.1349,-4.9882,-4.8611,-4.7085,-4.52,-4.259,-3.9549,-3.6956,-3.5684,-3.3255,-3.1862,-3.3518,-3.392,-3.4965,0.0,-3.9567,-4.0974,-4.2382,-4.3166,-4.3631,0.0,0.0,0.0,0.0,0.0,0.0,0.0,0.0,0.0,-4.5677,-4.4603,-4.3921,-4.3776,-4.2687,-4.2092,-4.2092,-4.2092,-4.2034,-4.1874,-4.1207,-4.0466,-3.9654,-3.8522,-3.7427,-3.6365,-3.5804,0.0,0.0,-3.6096,-3.6652,-3.6906,-3.793,-3.8421,-3.8443,-3.7161,-3.6793,-3.6738,-3.5596,-3.5326,-3.5504,-3.5504,-3.504,-3.4638,-3.5295,-3.5026,-3.4653,-3.531,-3.5504,-3.519,-3.3844,-3.3499,-3.3155,-3.1824,-3.1511,-3.1511,-3.1511,-3.1511,-3.1511,-3.1511,-3.1062,-3.0559,-3.0171,-2.9286,-2.841,-2.7794,-2.7316,-2.6939,-2.6835,-2.6618,-2.6297,-2.5859,-2.5623,-2.5097,-2.4211,-2.3747,-2.3186,-2.2466,-2.2073,-2.1576,-2.0913,-2.0887,-2.0887,-2.0887,-2.0887,-2.0887,-2.0861,-2.1106,-2.1159,-2.1056,-2.1496,-2.1732,-5.1902,-5.0985,-4.9882,-4.8611,-4.6381,-4.3808,-4.1175,0.0,-3.508,-3.3817,-3.2118,-3.1113,-3.1873,-3.239,-3.3354,-3.5421,-3.7273,-3.9117,-4.1004,-4.1845,-4.2469,-4.3021,0.0,0.0,0.0,0.0,0.0,0.0,0.0,0.0,-4.498,-4.4342,-4.3718,-4.3108,-4.244,-4.2092,-4.2092,-4.2092,-4.1787,-4.1178,-4.051,-3.9552,-3.8362,-3.7694,-3.6771,-3.5692,-3.5476,0.0,0.0,-3.6081,-3.6793,-3.7528,-3.7645,-3.7812,-3.7845,-3.6468,-3.6098,-3.6179,-3.5466,-3.5326,-3.5504,-3.5504,-3.504,-3.4638,-3.5295,-3.5026,-3.4653,-3.531,-3.5504,-3.519,-3.3844,-3.3499,-3.3155,-3.1824,-3.1511,-3.1511,-3.1511,-3.1511,-3.1511,-3.1511,-3.1451,-3.1126,-3.0259,-2.9996,-2.9411,-2.7924,-2.7652,-2.7405,-2.6852,-2.6525,-2.6215,-2.5918,-2.5755,-2.5453,-2.4954,-2.4106,-2.3454,-2.3137,-2.2473,-2.1971,-2.1796,-2.1796,-2.1796,-2.1796,-2.1796,-2.1796,-2.1796,-2.1697,-2.1825,-2.2159,-2.2209,-2.2498,-5.074,-4.9827,-4.8541,-4.7087,-4.4633,-4.1953,-3.9709,-3.679,-3.4337,-3.3492,-3.1987,-3.0981,-3.167,-3.1837,-3.2542,-3.4472,-3.5749,-3.7194,-3.9088,-4.0234,-4.1134,-4.1773,0.0,0.0,0.0,0.0,0.0,0.0,0.0,0.0,-4.379,-4.3515,-4.3268,-4.3007,-4.2411,-4.2092,-4.2092,-4.17,-4.1163,-4.0481,-3.945,-3.8289,-3.7041,-3.6417,-3.5668,-3.4908,-3.5267,0.0,0.0,-3.6511,-3.7106,-3.7397,-3.7397,-3.7485,-3.7397,-3.6082,-3.5771,-3.5906,-3.527,-3.5213,-3.5504,-3.5504,-3.504,-3.4638,-3.5295,-3.5026,-3.4653,-3.531,-3.5504,-3.528,-3.4369,-3.3499,-3.2766,-3.2213,-3.1795,-3.1511,-3.1511,-3.1511,-3.1511,-3.1511,-3.1511,-3.1334,-3.0777,-3.0364,-2.9808,-2.897,-2.8188,-2.7608,-2.7389,-2.6662,-2.6028,-2.5646,-2.5411,-2.5061,-2.4507,-2.3922,-2.3331,-2.2697,-2.2394,-2.2043,-2.1673,-2.166,-2.166,-2.166,-2.166,-2.166,-2.166,-2.1933,-2.2153,-2.2322,-2.2619,-2.2895,-4.9684,-4.9151,-4.8046,-4.649,-4.3717,-4.092,-3.911,-3.6242,-3.385,-3.345,-3.2032,-3.1027,-3.1512,-3.1403,-3.1743,-3.3296,-3.4254,-3.5436,-3.7114,-3.8623,-3.9784,0.0,0.0,0.0,0.0,0.0,0.0,0.0,0.0,0.0,0.0,-4.2818,-4.2716,-4.2716,-4.2324,-4.2092,-4.2092,-4.1439,-4.067,-3.9813,-3.8725,-3.7433,-3.6011,-3.5595,-3.5145,-3.4719,0.0,0.0,0.0,-3.6925,-3.7418,-3.7535,-3.7157,-3.7012,-3.6852,-3.5561,-3.5322,-3.5554,-3.5049,-3.5148,-3.5504,-3.5504,-3.5175,-3.4876,-3.5355,-3.5026,-3.4653,-3.531,-3.5355,-3.51,-3.4638,-3.3649,-3.2766,-3.2557,-3.2123,-3.1735,-3.154,-3.1511,-3.1511,-3.1511,-3.1511,-3.1424,-3.119,-3.0762,-3.0291,-2.9769,-2.8926,-2.8186,-2.7753,-2.6883,-2.6021,-2.537,-2.495,-2.4507,-2.3985,-2.3704,-2.3255,-2.2585,-2.2531,-2.2385,-2.1995,-2.197,-2.197,-2.197,-2.197,-2.197,-2.197,-2.2343,-2.2531,-2.2543,-2.292,-2.3108,-4.8926,-4.9166,-4.9067,-4.7406,-4.4167,-4.104,-3.9709,-3.6342,-3.3499,-3.3499,-3.2228,-3.1117,-3.1117,-3.0836,-3.083,-3.1438,-3.2643,-3.3968,-3.5247,-3.7027,0.0,0.0,0.0,0.0,0.0,0.0,0.0,0.0,0.0,0.0,0.0,-4.2426,-4.2107,-4.2107,-4.2092,-4.2092,-4.2092,-4.1439,-4.0466,-3.9204,-3.8522,-3.7215,-3.5407,-3.5392,-3.5392,0.0,0.0,0.0,0.0,-3.7302,-3.7651,-3.8072,-3.6809,-3.6315,-3.617,-3.4893,-3.4616,-3.4902,-3.4902,-3.5148,-3.5504,-3.5504,-3.5504,-3.5489,-3.5504,-3.5026,-3.4653,-3.531,-3.5011,-3.4518,-3.4503,-3.3978,-3.332,-3.2677,-3.2482,-3.2303,-3.1645,-3.1511,-3.1511,-3.1511,-3.1511,-3.1467,-3.1322,-3.1278,-3.0968,-3.0059,-2.9885,-2.9359,-2.7897,-2.7185,-2.6329,-2.5131,-2.4452,-2.3956,-2.3628,-2.348,-2.33,-2.3095,-2.3095,-2.3095,-2.3083,-2.3083,-2.3083,-2.3083,-2.3083,-2.3083,-2.3083,-2.3095,-2.3095,-2.3095,-2.3108,-2.3108,-4.6044,-4.5816,-4.5172,-4.3906,-4.1467,-3.9005,-3.7704,-3.5385,-3.3365,-3.2916,-3.1901,-3.1117,-3.1117,-3.0821,-3.0816,-3.1409,-3.2251,-3.3412,0.0,0.0,0.0,0.0,0.0,0.0,0.0,0.0,0.0,0.0,0.0,0.0,0.0,-4.2194,-4.2092,-4.2092,-4.2092,-4.2092,-4.2092,-4.0974,-3.977,-3.8507,-3.7418,-3.6141,-3.4733,-3.5203,0.0,0.0,0.0,0.0,0.0,-3.7752,-3.8028,-3.8072,-3.6809,-3.6301,-3.6156,-3.4878,-3.4601,-3.4902,-3.4902,-3.5148,-3.5429,-3.4966,-3.4722,-3.4537,-3.412,-3.4541,-3.522,-3.5444,-3.5355,-3.5175,-3.5175,-3.4337,-3.344,-3.323,-3.2467,-3.1765,-3.1555,-3.1511,-3.1511,-3.1511,-3.1511,-3.1467,-3.1322,-3.1234,-3.0999,-3.0455,-2.99,-2.9305,-2.8596,-2.734,-2.6197,-2.5356,-2.4498,-2.3776,-2.3288,-2.3228,-2.3168,-2.3108,-2.3108,-2.3108,-2.3108,-2.3108,-2.3108,-2.3108,-2.3108,-2.3108,-2.3108,-2.3108,-2.3108,-2.3108,-2.3108,-2.3108,-4.3388,-4.3529,-4.2888,-4.1599,-3.9642,-3.7689,-3.6402,-3.4562,-3.3006,-3.2602,-3.1768,-3.1117,-3.1117,-3.0631,-3.0422,-3.1061,-3.1714,-3.273,0.0,0.0,0.0,0.0,0.0,0.0,0.0,0.0,0.0,0.0,0.0,0.0,-4.2121,-4.2092,-4.2092,-4.2092,-4.2092,-4.1976,-4.1729,-4.0641,-3.9349,-3.7854,-3.6809,-3.5633,-3.4428,-3.5101,0.0,0.0,0.0,0.0,0.0,-3.8043,-3.8072,-3.7767,-3.6722,-3.6156,-3.5822,-3.4791,-3.4601,-3.4902,-3.4902,-3.5148,-3.5385,-3.4728,-3.423,-3.3867,-3.3432,-3.4105,-3.5019,-3.5115,-3.5295,-3.5504,-3.5504,-3.4681,-3.3799,-3.3559,-3.2677,-3.1809,-3.1555,-3.1511,-3.1511,-3.1511,-3.1511,-3.1467,-3.138,-3.1263,-3.1029,-3.0568,-3.0011,-2.9367,-2.8584,-2.7497,-2.6375,-2.5309,-2.4532,-2.3829,-2.315,-2.3108,-2.3108,-2.3108,-2.3108,-2.3108,-2.3108,-2.3108,-2.3108,-2.3108,-2.3108,-2.3108,-2.3108,-2.3108,-2.3108,-2.3108,-2.3108,-2.3221,0.0,-4.1938,-4.1832,-4.0314,-3.8605,-3.6941,-3.5714,-3.3918,0.0,-3.2452,-3.1723,-3.1117,-3.1117,-3.0309,-2.99,-3.0569,-3.1177,-3.2063,0.0,-3.5822,0.0,0.0,0.0,0.0,0.0,0.0,0.0,0.0,0.0,0.0,-4.2092,-4.2092,-4.2078,-4.2034,-4.2034,-4.17,-4.1033,-4.0321,-3.9044,-3.723,-3.6606,-3.5662,-3.4501,-3.5218,0.0,0.0,0.0,0.0,0.0,-3.8159,-3.781,-3.7244,-3.6519,-3.588,-3.5319,-3.4646,-3.4601,-3.4902,-3.4902,-3.5148,-3.5352,-3.4651,-3.3933,-3.3334,-3.3196,-3.367,-3.4267,-3.444,-3.4966,-3.5504,-3.5504,-3.4966,-3.4279,-3.3649,-3.2961,-3.2243,-3.163,-3.1511,-3.1511,-3.1511,-3.1511,-3.1511,-3.1511,-3.1351,-3.1014,-3.0342,-3.0129,-2.9473,-2.7995,-2.7539,-2.6734,-2.5158,-2.4661,-2.4093,-2.3301,-2.3145,-2.3108,-2.3108,-2.3108,-2.3108,-2.3108,-2.3108,-2.3108,-2.3108,-2.3108,-2.3108,-2.3108,-2.3108,-2.3108,-2.3108,-2.3108,-2.3409,-3.7123,0.0,-3.8309,-3.8251,-3.7079,-3.5729,0.0,-3.3574,-3.2333,-3.1839,-3.1382,-3.1117,-3.1117,-3.0704,-3.0553,-3.1192,-3.1845,-3.2904,-3.4709,0.0,0.0,0.0,0.0,0.0,0.0,0.0,0.0,0.0,0.0,-4.2092,-4.2092,-4.2092,-4.186,-4.1352,-4.1337,-4.1004,-4.0336,-3.9218,-3.7941,-3.6533,-3.6388,-3.5894,-3.5218,-3.633,-3.6925,0.0,0.0,0.0,-3.8159,-3.7709,-3.7433,-3.7186,-3.604,-3.5523,-3.5319,-3.4646,-3.4549,-3.4765,-3.4765,-3.4997,-3.51,-3.394,-3.2795,-3.1812,-3.1782,-3.3034,-3.444,-3.4472,-3.4966,-3.5504,-3.5504,-3.4622,-3.3694,-3.3529,-3.2617,-3.169,-3.154,-3.1511,-3.1511,-3.1511,-3.1409,-3.1351,-3.1351,-3.0896,-3.0403,-2.9976,-2.9467,-2.8844,-2.8053,-2.7311,-2.6633,-2.5955,-2.5288,-2.4716,-2.4443,-2.3597,-2.3108,-2.3108,-2.3108,-2.3108,-2.3108,-2.3108,-2.3108,-2.3108,-2.3108,-2.3108,-2.3108,-2.3108,-2.3108,-2.3108,-2.3108,-2.3409,-3.5274,-3.5615,-3.5916,-3.618,-3.5389,-3.4412,-3.3739,-3.2542,-3.1495,-3.1107,-3.0566,-3.0262,-3.0572,-3.0368,-3.0437,-3.1335,-3.2324,0.0,0.0,0.0,0.0,0.0,0.0,0.0,0.0,0.0,0.0,0.0,0.0,-4.2092,-4.2092,-4.1802,-4.1468,-4.1105,-4.0525,-3.99,-3.9233,-3.8855,-3.7868,-3.6301,-3.662,-3.6431,-3.5872,-3.6852,-3.7302,0.0,0.0,0.0,-3.8159,-3.7549,-3.7128,-3.6751,-3.5784,-3.5218,-3.4893,-3.4545,-3.4515,-3.4698,-3.4698,-3.4533,-3.4157,-3.3505,-3.2437,-3.138,-3.1322,-3.2363,-3.3649,-3.3933,-3.4517,-3.51,-3.5429,-3.4726,-3.3873,-3.3559,-3.2721,-3.1869,-3.157,-3.1511,-3.1511,-3.1511,-3.138,-3.1219,-3.097,-3.0523,-2.9962,-2.9202,-2.8739,-2.8189,-2.7477,-2.6984,-2.6501,-2.5981,-2.5557,-2.5136,-2.4845,-2.4224,-2.3885,-2.3885,-2.3885,-2.3885,-2.3885,-2.3885,-2.3885,-2.3885,-2.3885,-2.3885,-2.3885,-2.3885,-2.3885,-2.3885,-2.3885,-2.4205,-3.4573,-3.4652,-3.4533,-3.4638,-3.4218,-3.3634,-3.2961,-3.1779,-3.0806,-3.0806,-3.0075,-2.9613,-3.0263,-3.0192,0.0,-3.1758,0.0,0.0,-3.8725,-3.9712,0.0,0.0,0.0,0.0,0.0,0.0,0.0,0.0,0.0,-4.2049,-4.1947,-4.141,-4.1004,-4.0815,-3.9755,-3.8783,-3.7926,-3.858,-3.7984,-3.617,-3.6939,-3.7012,-3.6489,-3.7143,-3.7447,-3.7476,0.0,0.0,-3.8144,-3.7447,-3.6823,-3.6228,-3.5503,-3.4893,-3.4414,-3.4414,-3.4515,-3.465,-3.4581,-3.3909,-3.3115,-3.3118,-3.2362,-3.1409,-3.1322,-3.1767,-3.2482,-3.3275,-3.3963,-3.4668,-3.5325,-3.4996,-3.4369,-3.3784,-3.3066,-3.2333,-3.178,-3.157,-3.1511,-3.1511,-3.138,-3.1102,-3.0554,-3.0206,-2.9591,-2.8481,-2.8105,-2.7643,-2.6884,-2.676,-2.6468,-2.5841,-2.5757,-2.5548,-2.5109,-2.5071,-2.5071,-2.5071,-2.4888,-2.4788,-2.4788,-2.4788,-2.4788,-2.4788,-2.4788,-2.4788,-2.4788,-2.4788,-2.4788,-2.4788,-2.4788,-2.5096,-3.4573,-3.4652,-3.4653,-3.519,-3.5265,-3.5011,-3.4369,-3.3155,-3.2198,-3.2198,-3.1456,-3.097,-3.1603,-3.1886,-3.2452,0.0,0.0,-3.7302,0.0,0.0,0.0,0.0,0.0,0.0,0.0,0.0,0.0,0.0,0.0,0.0,-4.1279,-4.1149,-4.0612,-3.9523,-3.9305,-3.8362,-3.662,-3.7259,-3.6896,-3.5552,-3.6736,-3.7259,-3.7172,-3.7781,-3.8072,-3.8072,0.0,-3.8202,-3.8115,-3.6939,-3.6402,-3.6185,-3.5024,-3.4501,-3.4414,-3.4414,-3.4414,-3.4409,-3.4007,-3.3384,-3.2698,-3.2326,-3.1722,-3.1161,-3.1263,-3.1381,-3.1782,-3.3125,-3.3963,-3.4668,-3.5325,-3.4996,-3.4474,-3.4384,-3.3395,-3.2452,-3.2377,-3.1899,-3.1511,-3.1511,-3.1307,-3.0969,-3.0433,-2.9839,-2.917,-2.8417,-2.7875,-2.749,-2.7235,-2.6918,-2.6654,-2.6531,-2.6429,-2.6336,-2.6248,-2.6248,-2.6248,-2.6248,-2.5335,-2.4788,-2.4788,-2.4788,-2.4788,-2.4788,-2.4788,-2.4788,-2.4788,-2.4788,-2.4788,-2.4788,-2.4788,-2.5096,-3.4147,-3.4377,-3.4578,-3.4861,-3.5489,-3.5848,-3.519,-3.3993,-3.2946,-3.2557,-3.1812,0.0,0.0,0.0,-3.4399,-3.662,0.0,-3.8783,0.0,0.0,0.0,0.0,0.0,0.0,0.0,0.0,0.0,0.0,0.0,0.0,-4.112,-4.0452,-3.9799,-3.9218,-3.8536,-3.7578,-3.6315,-3.662,-3.6286,-3.5407,-3.6315,-3.6765,-3.678,-3.7433,-3.7723,-3.7738,0.0,-3.8014,-3.7651,-3.6693,-3.6112,-3.5706,-3.4777,-3.4414,-3.4414,-3.4414,-3.4414,-3.437,-3.428,-3.3805,-3.3238,-3.3134,-3.2399,-3.1589,-3.1753,-3.156,-3.1618,-3.3095,-3.3709,-3.4188,-3.5235,-3.5265,-3.4936,-3.4593,-3.4039,-3.338,-3.2677,-3.2243,-3.1929,-3.157,-3.1278,-3.0851,-3.0009,-2.9498,-2.8881,-2.7908,-2.7556,-2.7335,-2.7146,-2.6977,-2.6829,-2.6714,-2.6658,-2.6589,-2.6499,-2.6499,-2.6499,-2.6499,-2.6021,-2.5711,-2.5711,-2.5711,-2.5711,-2.5711,-2.5711,-2.5711,-2.5711,-2.5711,-2.5711,-2.5711,-2.5711,-2.5837,-3.3772,-3.3904,-3.4129,-3.4429,-3.5522,-3.6357,-3.5848,-3.4816,-3.3873,-3.3514,0.0,0.0,0.0,-3.474,0.0,-3.8792,-3.9204,0.0,0.0,0.0,0.0,0.0,0.0,0.0,0.0,0.0,0.0,0.0,0.0,0.0,-4.067,-3.9726,-3.9059,-3.8768,-3.7825,-3.691,-3.6098,-3.6083,-3.5851,-3.5407,-3.5996,-3.6301,-3.633,-3.6997,-3.7302,-3.7331,-3.7796,-3.7738,-3.7244,-3.6417,-3.5807,-3.5334,-3.4661,-3.4414,-3.4414,-3.4414,-3.4414,-3.4399,-3.4422,-3.4061,-3.3641,-3.3671,-3.2952,-3.2115,-3.2121,-3.1782,-3.1664,-3.29,-3.3319,-3.3783,-3.5128,-3.5504,-3.537,-3.4846,-3.4623,-3.4234,-3.3185,-3.2736,-3.2333,-3.1824,-3.1382,-3.0747,-2.9673,-2.9279,-2.8757,-2.7706,-2.7564,-2.7548,-2.7533,-2.7361,-2.7182,-2.6985,-2.6802,-2.6658,-2.6499,-2.6499,-2.6499,-2.6499,-2.6499,-2.6499,-2.6499,-2.6499,-2.6499,-2.6499,-2.6499,-2.6499,-2.6499,-2.6499,-2.6499,-2.6499,-2.6499,-2.6499,-3.3783,-3.3232,-3.2946,-3.4204,-3.5522,-3.6477,-3.6432,-3.5863,-3.5519,-3.6088,0.0,0.0,0.0,-3.6777,-3.7791,-3.901,-3.9204,0.0,0.0,0.0,0.0,0.0,0.0,0.0,0.0,0.0,0.0,0.0,0.0,0.0,-3.9407,-3.9247,-3.8667,-3.7476,-3.736,-3.6707,-3.5479,-3.5465,-3.5436,-3.5407,-3.5996,-3.6301,-3.633,-3.6997,-3.7302,-3.7302,-3.736,-3.7346,-3.7201,-3.5988,-3.5436,-3.5334,-3.4661,-3.4414,-3.4414,-3.4414,-3.4414,-3.4327,-3.3779,-3.3532,-3.3402,-3.2806,-3.2559,-3.237,-3.1962,-3.1804,-3.1865,-3.2272,-3.2838,-3.3642,-3.5128,-3.5504,-3.5489,-3.5444,-3.4936,-3.4474,-3.4384,-3.338,-3.2497,-3.2452,-3.1723,-3.0747,-2.9673,-2.9279,-2.8925,-2.8413,-2.832,-2.8516,-2.9043,-2.8464,-2.7954,-2.7828,-2.7147,-2.6658,-2.6499,-2.6499,-2.6499,-2.6499,-2.6499,-2.6499,-2.6499,-2.6499,-2.6499,-2.6499,-2.6499,-2.6499,-2.6499,-2.6499,-2.6499,-2.6499,-2.6499,-2.6499,-3.3142,-3.2778,-3.2736,-3.3649,-3.4876,-3.5983,-3.6387,-3.6911,-3.7375,-3.7614,-3.7415,0.0,0.0,0.0,-3.9132,-3.9649,0.0,0.0,0.0,0.0,0.0,0.0,0.0,0.0,0.0,0.0,0.0,0.0,0.0,0.0,0.0,-3.8797,-3.8188,-3.7331,-3.691,-3.6257,-3.5407,-3.5,-3.4777,-3.4777,-3.5415,-3.5755,-3.5799,-3.6823,-3.7085,-3.6707,-3.7128,-3.6838,-3.6104,-3.561,-3.516,-3.4748,-3.4501,-3.4414,-3.4414,-3.4414,-3.4414,-3.4385,-3.4138,-3.4051,-3.4022,-3.3775,-3.3166,-3.2469,-3.2397,-3.1816,-3.1335,-3.2093,-3.2481,-3.3001,-3.45,-3.519,-3.5504,-3.5504,-3.531,-3.4996,-3.4593,-3.4114,-3.3619,-3.32,-3.2658,-3.1944,-3.0878,-3.042,-2.9921,-2.9083,-2.897,-2.9048,-2.9284,-2.9008,-2.8594,-2.7965,-2.7103,-2.6555,-2.6499,-2.6499,-2.6499,-2.6499,-2.6499,-2.6499,-2.6499,-2.6499,-2.6499,-2.6499,-2.6499,-2.6499,-2.6499,-2.6499,-2.6499,-2.6499,-2.6499,-2.6499,-3.2668,-3.2203,-3.2093,-3.2961,-3.4188,-3.5415,-3.6282,-3.7644,-3.8781,-3.8975,-3.902,-3.8853,-3.8235,0.0,0.0,0.0,0.0,0.0,0.0,0.0,0.0,0.0,0.0,0.0,0.0,0.0,0.0,0.0,0.0,0.0,0.0,-3.8312,-3.7765,-3.7012,-3.6548,-3.5909,-3.5101,-3.4835,-3.4617,-3.4428,-3.5256,-3.5581,-3.5436,-3.6489,-3.6736,-3.6315,-3.6577,-3.622,-3.5378,-3.5174,-3.4806,-3.4414,-3.4414,-3.4414,-3.4414,-3.4414,-3.4414,-3.4385,-3.4182,-3.4124,-3.408,-3.3877,-3.3191,-3.2483,-3.2378,-3.1724,-3.1142,-3.1737,-3.2079,-3.245,-3.3588,-3.4517,-3.5235,-3.5444,-3.5504,-3.537,-3.4906,-3.459,-3.4274,-3.3826,-3.3199,-3.2437,-3.1453,-3.0981,-3.0453,-2.9652,-2.9549,-2.9614,-2.9797,-2.9653,-2.9119,-2.8004,-2.7256,-2.6744,-2.6512,-2.6499,-2.6499,-2.6499,-2.6499,-2.6499,-2.6499,-2.6499,-2.6499,-2.6499,-2.6499,-2.6499,-2.6499,-2.6499,-2.6499,-2.6499,-2.6499,-2.6587,-3.2492,-3.1493,-3.0851,-3.2198,-3.3529,-3.4878,-3.6193,-3.8018,-3.9619,-4.0277,-4.0397,-4.0077,-3.8974,-3.8819,0.0,0.0,0.0,0.0,0.0,0.0,0.0,0.0,0.0,0.0,0.0,0.0,0.0,0.0,0.0,0.0,0.0,-3.7777,-3.7414,-3.6344,-3.6301,-3.5691,-3.4428,-3.5072,-3.5072,-3.4428,-3.5691,-3.5967,-3.5421,-3.6011,-3.6301,-3.6272,-3.5668,-3.5392,-3.5334,-3.4675,-3.4414,-3.4414,-3.4414,-3.4414,-3.4414,-3.4414,-3.4414,-3.4312,-3.3736,-3.3518,-3.3402,-3.2745,-3.2495,-3.2365,-3.1698,-3.1495,-3.1442,-3.1161,-3.1515,-3.2077,-3.2422,-3.3484,-3.4668,-3.5325,-3.5504,-3.5504,-3.5504,-3.4822,-3.4203,-3.4203,-3.3127,-3.1982,-3.1249,-3.0658,-3.0269,-3.0131,-3.0113,-3.0309,-3.0908,-3.049,-2.9548,-2.8055,-2.7739,-2.7288,-2.6584,-2.6499,-2.6499,-2.6499,-2.6499,-2.6499,-2.6499,-2.6499,-2.6499,-2.6499,-2.6499,-2.6499,-2.6499,-2.6499,-2.6499,-2.6499,-2.6499,-2.6801,-3.2219,-3.2078,-3.2243,-3.3559,0.0,0.0,0.0,-3.9005,0.0,0.0,-4.0726,-3.9979,-3.8629,0.0,0.0,0.0,0.0,0.0,0.0,0.0,0.0,0.0,0.0,0.0,0.0,0.0,0.0,0.0,0.0,0.0,0.0,-3.7068,-3.6804,-3.6309,-3.588,-3.5241,-3.4428,-3.4603,-3.4603,-3.4428,-3.5256,-3.5581,-3.5421,-3.6011,-3.6069,-3.5668,-3.5479,-3.5145,-3.4675,-3.4486,-3.4414,-3.4414,-3.4414,-3.4414,-3.4414,-3.4414,-3.4414,-3.4385,-3.4196,-3.4124,-3.4109,-3.3906,-3.3238,-3.2452,-3.2249,-3.1646,-3.101,-3.1073,-3.1294,-3.1679,-3.2333,-3.2811,-3.338,-3.4548,-3.516,-3.5504,-3.5504,-3.521,-3.4771,-3.435,-3.3772,-3.3002,-3.1983,-3.1549,-3.1198,-3.0786,-3.0725,-3.079,-3.096,-3.0366,-2.9725,-2.9279,-2.827,-2.751,-2.7275,-2.6817,-2.6499,-2.6499,-2.6499,-2.6499,-2.6499,-2.6499,-2.6499,-2.6499,-2.6499,-2.6499,-2.6499,-2.6499,-2.6499,-2.6499,-2.6889,-2.7165,-3.198,-3.2491,-3.3215,-3.4547,-3.5878,-3.727,-3.8841,0.0,0.0,0.0,-4.0681,-4.0031,-3.879,-3.8837,0.0,0.0,0.0,0.0,0.0,0.0,0.0,0.0,0.0,0.0,0.0,0.0,0.0,0.0,0.0,0.0,0.0,-3.6438,-3.6493,-3.6294,-3.5938,-3.5546,-3.5169,-3.5169,-3.5038,-3.4791,-3.5218,-3.5261,-3.5009,-3.5648,-3.5755,-3.5392,-3.5131,-3.4762,-3.4414,-3.4414,-3.4414,-3.4414,-3.4414,-3.4414,-3.4414,-3.4414,-3.4414,-3.4385,-3.4124,-3.4037,-3.3993,-3.3746,-3.2962,-3.2121,-3.2198,-3.1563,-3.0851,-3.1102,-3.1234,-3.1425,-3.1959,-3.2288,-3.2781,-3.3844,-3.456,-3.4989,-3.4989,-3.4857,-3.462,-3.4192,-3.3644,-3.2981,-3.2137,-3.1763,-3.1445,-3.1061,-3.0986,-3.0986,-3.0986,-3.0561,-3.0138,-2.9831,-2.9003,-2.8324,-2.7964,-2.7506,-2.7211,-2.7153,-2.7153,-2.7153,-2.7153,-2.6725,-2.6499,-2.6499,-2.6499,-2.6499,-2.6499,-2.6499,-2.6612,-2.6839,-2.7165,-2.7519,-3.1799,-3.2779,-3.3934,-3.5265,-3.6596,0.0,-3.9888,-4.0307,-4.0337,-4.0382,0.0,-4.0091,-3.9245,0.0,0.0,0.0,0.0,0.0,0.0,0.0,0.0,0.0,0.0,0.0,0.0,0.0,0.0,0.0,0.0,0.0,0.0,-3.5867,-3.6222,-3.6294,-3.6257,-3.6228,-3.6228,-3.6228,-3.5909,-3.5319,-3.5319,-3.5,-3.4428,-3.5043,-3.5319,-3.5276,-3.4661,-3.4414,-3.4414,-3.4414,-3.4414,-3.4414,-3.4414,-3.4414,-3.4414,-3.4414,-3.4414,-3.4327,-3.3779,-3.359,-3.3489,-3.2875,-3.2162,-3.1644,-3.1829,-3.1377,-3.0881,-3.1205,-3.1307,-3.1351,-3.1467,-3.1944,-3.2542,-3.314,-3.3764,-3.4203,-3.4125,-3.4086,-3.4011,-3.3693,-3.2925,-3.22,-3.1813,-3.1482,-3.1198,-3.1024,-3.0986,-3.0986,-3.0986,-3.0986,-3.0703,-2.9984,-2.9844,-2.9452,-2.8598,-2.8437,-2.8303,-2.8133,-2.8109,-2.8109,-2.8109,-2.7178,-2.6612,-2.6562,-2.6562,-2.6549,-2.6499,-2.6549,-2.6826,-2.7281,-2.7394,-2.7971,-3.1691,-3.3215,0.0,-3.5971,-3.7644,-3.9059,-3.9529,-3.9634,-3.9768,-4.0292,-3.9993,-3.9553,0.0,0.0,0.0,0.0,0.0,0.0,0.0,0.0,0.0,0.0,0.0,0.0,0.0,0.0,0.0,0.0,0.0,0.0,-3.4906,-3.5173,-3.5648,-3.628,-3.5822,-3.5595,-3.5595,-3.5595,-3.5241,0.0,-3.4617,-3.4545,-3.4414,-3.4559,-3.4617,-3.4617,-3.4472,-3.4414,-3.4414,-3.4414,-3.4414,-3.4414,-3.4414,-3.4414,-3.4414,-3.4414,-3.4414,-3.4385,-3.4254,-3.4211,-3.4182,-3.4051,-3.3238,-3.2295,-3.247,-3.1835,-3.1073,-3.1263,-3.138,-3.1467,-3.1511,-3.1542,-3.1589,-3.1738,-3.3016,-3.4093,-3.3674,-3.3739,-3.3589,-3.2648,-3.2187,-3.1776,-3.1272,-3.1099,-3.1061,-3.1024,-3.0986,-3.0986,-3.0986,-3.0986,-3.0934,-3.0766,-3.0201,-2.9716,-2.9527,-2.8811,-2.8375,-2.8339,-2.8206,-2.8109,-2.8109,-2.7871,-2.7544,-2.7153,-2.714,-2.6927,-2.6499,-2.6927,-2.7203,-2.7306,-2.8172,-2.8662,-3.1668,0.0,0.0,-3.7349,0.0,-3.9388,-3.9388,-3.9388,-3.9514,-3.9858,-3.9649,0.0,0.0,0.0,0.0,0.0,0.0,0.0,0.0,0.0,0.0,0.0,0.0,0.0,0.0,0.0,0.0,0.0,0.0,-3.5745,-3.5063,-3.5325,-3.5812,-3.6475,-3.5892,-3.5704,-3.6021,-3.5522,-3.5114,-3.4864,-3.4559,-3.4414,-3.4414,-3.4414,-3.4414,-3.4414,-3.4414,-3.4414,-3.4414,-3.4414,-3.4414,-3.4414,-3.4414,-3.4414,-3.4414,-3.4414,-3.4414,-3.4414,-3.4414,-3.4414,-3.4356,-3.4051,-3.3296,-3.2454,-3.2324,-3.1657,-3.1014,-3.1234,-3.1351,-3.1409,-3.1467,-3.1409,-3.1248,-3.097,-3.2097,-3.3138,-3.2753,-3.2902,-3.2889,-3.2101,-3.1763,-3.1445,-3.1061,-3.0986,-3.0986,-3.0986,-3.0986,-3.0986,-3.0986,-3.0986,-3.0986,-3.0986,-3.0637,-3.0344,-3.0232,-2.9688,-2.9336,-2.9224,-2.9025,-2.8913,-2.8913,-2.8913,-2.8524,-2.7695,-2.7419,-2.7268,-2.7291,-2.7268,-2.7557,-2.8084,-2.8624,-2.9038,-3.1491,0.0,-3.5711,-3.8547,-3.9245,0.0,-3.9245,-3.9155,-3.9029,-3.9029,0.0,0.0,0.0,0.0,0.0,0.0,0.0,0.0,0.0,0.0,0.0,0.0,0.0,0.0,0.0,0.0,0.0,0.0,0.0,-3.6027,-3.5352,-3.5571,-3.5869,-3.6242,-3.5715,-3.5701,-3.6279,-3.5454,-3.5125,-3.5232,-3.4661,-3.4414,-3.4414,-3.4414,-3.4414,-3.4414,-3.4414,-3.4414,-3.4414,-3.4414,-3.4414,-3.4414,-3.4414,-3.4414,-3.4414,-3.4414,-3.4414,-3.4414,-3.4414,-3.4414,-3.4312,-3.3707,-3.3035,-3.2428,-3.1946,-3.1333,-3.0881,-3.1176,-3.1263,-3.1292,-3.1395,-3.1292,-3.1014,-3.0524,-3.1111,-3.1742,-3.165,-3.1923,-3.2078,-3.1713,-3.1445,-3.1198,-3.1024,-3.0986,-3.0986,-3.0986,-3.0986,-3.0986,-3.0986,-3.0986,-3.0986,-3.0986,-3.0986,-3.0911,-3.0773,-3.0533,-3.033,-3.0152,-2.9934,-2.9792,-2.9792,-2.9792,-2.9352,-2.8411,-2.7858,-2.7745,-2.8109,-2.7745,-2.8034,-2.8888,-2.9001,-2.934,-3.0815,0.0,-3.6767,0.0,-3.8527,-3.8527,0.0,0.0,-3.7674,0.0,0.0,0.0,0.0,0.0,0.0,0.0,0.0,0.0,0.0,0.0,0.0,0.0,0.0,0.0,0.0,0.0,0.0,0.0,-3.6357,-3.5745,-3.5074,-3.4657,-3.4478,-3.4544,-3.446,-3.4423,-3.4544,-3.4747,-3.4721,-3.4545,-3.4443,-3.4414,-3.4414,-3.4414,-3.4414,-3.4414,-3.4414,-3.4414,-3.4414,-3.4414,-3.4414,-3.4414,-3.4414,-3.4414,-3.4414,-3.4414,-3.4414,-3.4414,-3.4414,-3.4414,-3.4312,-3.3707,-3.3035,-3.2428,-3.1946,-3.1333,-3.0851,-3.1073,-3.1132,-3.1132,-3.1146,-3.0791,-3.0372,-3.019,-3.0076,-3.0127,-3.0446,-3.0893,-3.1159,-3.1106,-3.1061,-3.1024,-3.0986,-3.0986,-3.0986,-3.0986,-3.0986,-3.0986,-3.0986,-3.0986,-3.0986,-3.0986,-3.0986,-3.0986,-3.0949,-3.0634,-3.0406,-3.0368,-3.0011,-2.9792,-2.9792,-2.9792,-2.9729,-2.9578,-2.9001,-2.8511,-2.8109,-2.8511,-2.875,-2.89,-2.9453,-2.9716,-3.0815,-3.3879,-3.6595,0.0,-3.8392,-3.8392,-3.8392,0.0,0.0,0.0,0.0,0.0,0.0,0.0,0.0,0.0,0.0,0.0,0.0,0.0,0.0,0.0,0.0,0.0,0.0,0.0,0.0,0.0,-3.5573,-3.5194,-3.4789,-3.4441,-3.4177,-3.4089,-3.3882,-3.3798,-3.3857,-3.3945,-3.4,-3.4122,-3.4074,-3.4128,-3.423,-3.4346,-3.4414,-3.4414,-3.4414,-3.4414,-3.4414,-3.4414,-3.4414,-3.4414,-3.4414,-3.4414,-3.4414,-3.4414,-3.4414,-3.4414,-3.4414,-3.4414,-3.4254,-3.3267,-3.2745,-3.2324,-3.1506,-3.0981,-3.0672,-3.0672,-3.0598,-3.0564,-3.0682,-3.0489,-3.0228,-3.0239,-2.9822,-2.9558,-3.0082,-3.0445,-3.0718,-3.0944,-3.1248,-3.1365,-3.1039,-3.1248,-3.1352,-3.1039,-3.0986,-3.0986,-3.0986,-3.0986,-3.0986,-3.0986,-3.0986,-3.0986,-3.0986,-3.0634,-3.0406,-3.0406,-3.0011,-2.9792,-2.9792,-2.9792,-2.9792,-2.9792,-2.9227,-2.8925,-2.9051,-2.8925,-2.9051,-2.9415,-2.9679,-2.9792,0.0,0.0,-3.5591,-3.7109,-3.7627,-3.7826,0.0,0.0,0.0,0.0,0.0,0.0,0.0,0.0,0.0,0.0,0.0,0.0,0.0,0.0,0.0,0.0,0.0,0.0,0.0,0.0,0.0,0.0,-3.4785,-3.4441,-3.4217,-3.3817,-3.3471,-3.3243,-3.305,-3.3028,-3.3221,-3.326,-3.3437,-3.3744,-3.3667,-3.3791,-3.4025,-3.4264,-3.4414,-3.4414,-3.4414,-3.4414,-3.4414,-3.4414,-3.4414,-3.4414,-3.4414,-3.4414,-3.4414,-3.4414,-3.4414,-3.4414,-3.4414,-3.4414,-3.4225,-3.3122,-3.2611,-3.2278,-3.1238,-3.0683,-3.0357,-3.0174,-3.0121,-3.0162,-3.0251,-3.0229,-3.0248,-3.0208,-2.9752,-2.9377,-2.9804,-3.0246,-3.0648,-3.0932,-3.1326,-3.1445,-3.1065,-3.1339,-3.1445,-3.1052,-3.0986,-3.0986,-3.0986,-3.0986,-3.0986,-3.0986,-3.0986,-3.0986,-3.0986,-3.0634,-3.0406,-3.0406,-3.0011,-2.9792,-2.9792,-2.9792,-2.9792,-2.9792,-2.9365,-2.9365,-2.9792,-2.9365,-2.9365,-2.9792,-2.9792,-2.9792,0.0,-3.1238,0.0,-3.4773,-3.556,0.0,0.0,0.0,0.0,0.0,0.0,0.0,0.0,0.0,0.0,0.0,0.0,0.0,0.0,0.0,0.0,0.0,0.0,0.0,0.0,0.0,0.0,0.0,-3.4242,-3.3491,-3.3084,-3.2162,-3.1485,-3.1061,-3.1485,-3.184,-3.2164,-3.2854,-3.3241,-3.3339,-3.3276,-3.3451,-3.3839,-3.423,-3.4414,-3.4414,-3.4414,-3.4414,-3.4414,-3.4414,-3.4414,-3.4414,-3.4414,-3.4414,-3.4414,-3.4414,-3.4414,-3.4414,-3.4414,-3.4414,-3.4298,-3.3663,-3.2941,-3.219,-3.1495,-3.0585,-2.9822,-2.9696,-2.9897,-3.0151,-2.9988,-3.0097,-3.0241,-3.0083,-2.9736,-2.946,-2.9371,-3.0213,-3.0985,-3.1024,-3.1013,-3.1013,-3.0986,-3.1013,-3.1013,-3.0986,-3.0986,-3.0986,-3.0986,-3.0986,-3.0986,-3.0986,-3.0986,-3.0986,-3.0986,-3.0634,-3.0406,-3.0406,-3.0011,-2.9792,-2.9792,-2.9792,-2.9792,-2.9792,-2.9767,-2.9767,-2.9792,-2.9767,-2.9767,-2.9792,-2.9792,-2.9792,0.0,0.0,0.0,-3.259,-3.3501,-3.4273,0.0,0.0,0.0,0.0,0.0,0.0,0.0,0.0,0.0,0.0,0.0,0.0,0.0,0.0,0.0,0.0,0.0,0.0,0.0,0.0,0.0,0.0,0.0,-3.2609,-3.2146,-3.1514,-3.0985,-3.0595,-3.0998,-3.1458,-3.1959,-3.2309,-3.2583,-3.2739,-3.2832,-3.3164,-3.3695,-3.4176,-3.4414,-3.4414,-3.4414,-3.4414,-3.4414,-3.4414,-3.4414,-3.4414,-3.4414,-3.4414,-3.4414,-3.4414,-3.4414,-3.4472,-3.4878,-3.5058,-3.4956,-3.4283,-3.3705,-3.3049,-3.186,-3.11,-3.0541,-3.0,-2.995,-3.0072,-3.0049,-3.0104,-3.0134,-3.0085,-3.028,-3.0341,-2.9915,-3.0438,-3.0986,-3.0986,-3.1287,-3.1418,-3.1052,-3.13,-3.1418,-3.1039,-3.0986,-3.0986,-3.0986,-3.0986,-3.0986,-3.0986,-3.0986,-3.0986,-3.0986,-3.0761,-3.0533,-3.0406,-3.0152,-2.9934,-2.9792,-2.9792,-2.9792,-2.9792,-2.9792,-2.9792,-2.9792,-2.9792,-2.9792,-2.9792,-2.9792,-2.9792,-2.6229,0.0,0.0,0.0,0.0,-3.2416,0.0,0.0,0.0,0.0,0.0,0.0,0.0,0.0,0.0,0.0,0.0,0.0,0.0,0.0,0.0,0.0,0.0,0.0,0.0,0.0,0.0,0.0,0.0,0.0,-3.1381,-3.0998,-3.0672,-3.0406,-3.0772,-3.1161,-3.1582,-3.1653,-3.1859,-3.2128,-3.2367,-3.2846,-3.3521,-3.4108,-3.4414,-3.4414,-3.4414,-3.4414,-3.4414,-3.4414,-3.4414,-3.4414,-3.4414,-3.4414,-3.4414,-3.4414,-3.4545,-3.4791,-3.5261,-3.5503,-3.5491,-3.4764,-3.408,-3.3295,-3.2067,-3.1215,-3.0624,-3.0096,-3.0035,-3.0135,-3.0092,-3.0244,-3.0388,-3.0388,-3.0712,-3.0882,-3.0503,-3.0725,-3.0986,-3.0986,-3.13,-3.1431,-3.1052,-3.13,-3.1418,-3.1039,-3.0986,-3.0986,-3.0986,-3.1156,-3.1274,-3.1274,-3.1444,-3.1483,-3.1287,-3.1084,-3.0841,-3.0495,-3.0267,-3.0049,-2.9895,-2.983,-2.9792,-2.9792,-2.9792,-2.9792,-2.9792,-2.9792,-2.9792,-2.9792,-2.9792,-2.9792,0.0,0.0,0.0,0.0,0.0,0.0,0.0,0.0,0.0,0.0,0.0,0.0,0.0,0.0,0.0,0.0,0.0,0.0,0.0,0.0,0.0,0.0,0.0,0.0,0.0,0.0,0.0,0.0,-3.2511,-3.1736,-3.0932,-3.0558,-3.0406,-3.0406,-3.0733,-3.0921,-3.0986,-3.0921,-3.1108,-3.1593,-3.1955,-3.2533,-3.3304,-3.4059,-3.438,-3.438,-3.438,-3.438,-3.438,-3.4414,-3.4414,-3.4414,-3.4414,-3.4428,-3.4443,-3.4443,-3.4835,-3.5436,-3.545,-3.5702,-3.5892,-3.5082,-3.403,-3.2883,-3.2048,-3.0971,-3.0003,-2.9877,-3.0113,-3.0369,-3.02,-3.0568,-3.0986,-3.0986,-3.0986,-3.0986,-3.0986,-3.0986,-3.0986,-3.0986,-3.0986,-3.0986,-3.0986,-3.0986,-3.0986,-3.0986,-3.0986,-3.0986,-3.0986,-3.1445,-3.1797,-3.1797,-3.2346,-3.2463,-3.185,-3.163,-3.1267,-3.0737,-3.0318,-3.0113,-3.0113,-2.9895,-2.9792,-2.9792,-2.9792,-2.9792,-2.9792,-2.9792,-2.9792,-2.9792,-2.9792,-2.9792,-2.4191,0.0,0.0,0.0,0.0,0.0,0.0,0.0,0.0,0.0,0.0,0.0,0.0,0.0,0.0,0.0,0.0,0.0,0.0,0.0,0.0,0.0,0.0,0.0,0.0,0.0,0.0,0.0,-3.2547,-3.1763,-3.0998,-3.033,-3.0049,-3.019,-3.0394,-3.0545,-3.0558,-3.0545,-3.0835,-3.1384,-3.1882,-3.2461,-3.3094,-3.3701,-3.3991,-3.4054,-3.3991,-3.4059,-3.4196,-3.4346,-3.4414,-3.4414,-3.4414,-3.4704,-3.5131,-3.5131,-3.5503,-3.6112,-3.6606,-3.6663,-3.6347,-3.5399,-3.4561,-3.3614,-3.189,-3.1183,-3.0871,-3.0553,-3.0634,-3.0826,-3.0751,-3.0869,-3.0986,-3.0986,-3.0986,-3.0986,-3.0986,-3.0986,-3.0986,-3.0986,-3.0986,-3.0986,-3.0986,-3.0986,-3.0986,-3.0986,-3.0986,-3.0986,-3.0986,-3.1445,-3.1797,-3.1797,-3.2346,-3.2463,-3.185,-3.1759,-3.1447,-3.0737,-3.0584,-3.0394,-3.0113,-3.0049,-2.9934,-2.9792,-2.9792,-2.9792,-2.9792,-2.9792,-2.9792,-2.9792,-2.9792,-2.9792,-2.4603,-2.4685,0.0,0.0,0.0,0.0,0.0,-2.9429,0.0,0.0,0.0,0.0,0.0,0.0,0.0,0.0,0.0,0.0,0.0,0.0,0.0,0.0,0.0,0.0,0.0,-3.4433,-3.3942,-3.3325,-3.2547,-3.169,-3.0785,-3.0164,-2.9869,-2.9972,-3.0075,-3.0152,-3.0152,-3.0152,-3.0482,-3.1161,-3.1809,-3.2376,-3.2881,-3.3325,-3.3597,-3.366,-3.3583,-3.3722,-3.3991,-3.4264,-3.4414,-3.4414,-3.4414,-3.4806,-3.5392,-3.5392,-3.5903,-3.6635,-3.6937,-3.6891,-3.6495,-3.5143,-3.4262,-3.3434,-3.164,-3.1073,-3.1024,-3.0874,-3.0911,-3.0986,-3.0986,-3.0986,-3.0986,-3.0986,-3.0986,-3.0986,-3.0986,-3.0986,-3.0986,-3.0986,-3.0986,-3.0986,-3.0986,-3.0986,-3.0986,-3.0986,-3.1196,-3.1339,-3.1339,-3.2058,-3.2568,-3.2568,-3.3077,-3.3182,-3.262,-3.2568,-3.2241,-3.159,-3.1448,-3.128,-3.1086,-3.089,-3.0733,-3.0628,-3.0536,-3.0357,-3.0131,-2.9905,-2.9792,-2.9792,-2.9792,-2.9792,-2.5761,-2.5815,-2.5741,0.0,0.0,0.0,-2.6764,-2.7829,0.0,0.0,0.0,0.0,0.0,0.0,0.0,0.0,0.0,0.0,0.0,0.0,0.0,0.0,0.0,0.0,-3.4949,-3.4601,-3.4045,-3.3192,-3.239,-3.1468,-3.0406,-3.0011,-2.9792,-2.9792,-2.9792,-2.9792,-2.9792,-2.9792,-3.0203,-3.0986,-3.17,-3.2245,-3.2632,-3.2925,-3.3101,-3.3164,-3.3087,-3.3311,-3.3701,-3.4128,-3.4346,-3.4414,-3.4414,-3.4849,-3.5508,-3.5508,-3.6143,-3.702,-3.6782,-3.6682,-3.6314,-3.4442,-3.3431,-3.2659,-3.1326,-3.0811,-3.0736,-3.0949,-3.0986,-3.0986,-3.0986,-3.0986,-3.0986,-3.0986,-3.0986,-3.0986,-3.0986,-3.0986,-3.0986,-3.0986,-3.0986,-3.0986,-3.0986,-3.0986,-3.0986,-3.0986,-3.147,-3.1797,-3.1797,-3.2868,-3.3587,-3.3587,-3.4071,-3.4175,-3.3639,-3.3587,-3.3326,-3.2725,-3.254,-3.2433,-3.2393,-3.2019,-3.1818,-3.1818,-3.1521,-3.1173,-3.0708,-3.0143,-2.9854,-2.9792,-2.9792,-2.9792,-2.5788,-2.6027,-2.6156,-2.4972,0.0,0.0,-2.5243,-2.5948,-2.6821,0.0,0.0,0.0,0.0,0.0,0.0,0.0,0.0,0.0,0.0,0.0,0.0,0.0,0.0,0.0,-3.4979,-3.4601,-3.3942,-3.2868,-3.1492,-3.0545,-3.019,-2.9934,-2.9792,-2.9792,-2.9792,-2.9792,-2.9792,-2.9792,-3.0126,-3.0773,-3.1344,-3.175,-3.2059,-3.225,-3.2309,-3.2345,-3.2309,-3.2547,-3.2952,-3.3339,-3.3874,-3.4414,-3.4414,-3.5111,-3.6112,-3.6112,-3.6684,-3.7439,-3.7013,-3.6422,-3.5586,-3.3581,-3.2751,-3.2252,-3.0727,-3.0457,-3.0736,-3.0949,-3.0986,-3.0986,-3.0986,-3.0986,-3.0986,-3.0986,-3.0986,-3.0986,-3.0986,-3.0986,-3.0986,-3.0986,-3.0986,-3.0986,-3.0986,-3.0986,-3.0986,-3.0986,-3.147,-3.1797,-3.1797,-3.2868,-3.3587,-3.3587,-3.4071,-3.4175,-3.3639,-3.3587,-3.3326,-3.2725,-3.2659,-3.2579,-3.2433,-3.2153,-3.1952,-3.1818,-3.1521,-3.1336,-3.1235,-3.0721,-3.0231,-2.9792,-2.9792,-2.9792,-2.7679,-2.759,-2.7275,-2.5929,0.0,0.0,0.0,-2.5824,-2.657,-2.7579,0.0,0.0,0.0,0.0,0.0,0.0,0.0,0.0,0.0,0.0,0.0,0.0,0.0,0.0,-3.4638,-3.4364,-3.3604,-3.2064,-3.081,-3.0049,-2.9972,-2.9869,-2.9792,-2.9792,-2.9792,-2.9792,-2.9792,-2.9792,-3.0049,-3.0571,-3.0996,-3.1307,-3.1434,-3.1492,-3.1529,-3.1556,-3.1529,-3.1736,-3.2137,-3.2533,-3.2925,-3.3276,-3.3687,-3.4611,-3.5711,-3.5711,-3.6235,-3.6886,-3.6441,-3.5803,-3.49,-3.2998,-3.2275,-3.1895,-3.065,-3.0533,-3.0874,-3.0986,-3.0986,-3.0986,-3.0986,-3.0986,-3.0986,-3.0986,-3.0986,-3.0986,-3.0986,-3.0986,-3.0986,-3.0986,-3.0986,-3.0986,-3.0986,-3.0986,-3.0986,-3.0986,-3.1718,-3.2267,-3.2267,-3.3273,-3.3992,-3.3992,-3.4241,-3.4293,-3.4018,-3.3992,-3.3862,-3.3561,-3.3548,-3.3507,-3.3385,-3.307,-3.2781,-3.2449,-3.2323,-3.2089,-3.18,-3.1537,-3.1122,-3.0595,-3.0595,-3.0595,0.0,0.0,0.0,0.0,0.0,-2.6591,0.0,0.0,0.0,-2.7936,0.0,0.0,0.0,0.0,0.0,0.0,0.0,0.0,0.0,0.0,0.0,0.0,0.0,0.0,0.0,-3.3862,-3.2982,-3.1392,-3.0291,-2.9705,-2.9792,-2.9792,-2.9792,-2.9792,-2.9792,-2.9792,-2.9792,-2.9792,-2.9972,-3.0368,-3.0671,-3.0822,-3.0861,-3.0822,-3.0822,-3.0861,-3.0822,-3.1033,-3.1381,-3.1736,-3.1869,-3.1955,-3.2747,-3.3798,-3.4873,-3.4873,-3.5374,-3.599,-3.5575,-3.5046,-3.4243,-3.2527,-3.1733,-3.1361,-3.065,-3.0672,-3.0949,-3.0986,-3.0986,-3.0986,-3.0986,-3.0986,-3.0986,-3.0986,-3.0986,-3.0986,-3.0986,-3.0986,-3.0986,-3.0986,-3.0986,-3.0986,-3.0986,-3.0986,-3.0986,-3.0986,-3.1862,-3.2568,-3.2685,-3.36,-3.428,-3.4384,-3.4397,-3.4397,-3.4397,-3.4397,-3.4397,-3.4397,-3.4397,-3.4397,-3.4397,-3.3937,-3.3513,-3.3124,-3.3124,-3.2842,-3.2378,-3.2378,-3.2039,-3.1386,-3.1386,-3.1386,0.0,0.0,0.0,0.0,-2.7061,0.0,0.0,0.0,-2.5764,-2.5937,0.0,0.0,0.0,0.0,0.0,0.0,0.0,0.0,0.0,0.0,0.0,0.0,0.0,0.0,0.0,-3.2897,-3.1907,-3.1513,-3.0093,-2.9416,-2.9767,-2.9792,-2.9792,-2.9792,-2.9792,-2.9792,-2.9792,-2.9792,-2.9895,-3.0152,-3.0368,-3.047,-3.0482,-3.047,-3.047,-3.0482,-3.047,-3.0596,-3.0798,-3.1011,-3.1123,-3.1185,-3.1955,-3.2968,-3.4044,-3.4044,-3.4495,-3.5073,-3.4675,-3.423,-3.3575,-3.1997,-3.0933,-3.0317,-3.0585,-3.0698,-3.0773,-3.0949,-3.0986,-3.0986,-3.0986,-3.0986,-3.0986,-3.0986,-3.0986,-3.0986,-3.0986,-3.0986,-3.0986,-3.0986,-3.0986,-3.0986,-3.0986,-3.0986,-3.0986,-3.0986,-3.1522,-3.2084,-3.262,-3.3273,-3.3862,-3.4345,-3.4397,-3.4397,-3.4397,-3.4397,-3.4397,-3.4397,-3.4397,-3.4397,-3.4397,-3.3937,-3.3513,-3.3124,-3.3124,-3.3086,-3.298,-3.298,-3.2428,-3.1386,-3.1386,-3.1386,0.0,0.0,0.0,0.0,0.0,0.0,-2.5621,0.0,-2.6856,0.0,0.0,0.0,0.0,0.0,0.0,0.0,0.0,0.0,0.0,0.0,0.0,0.0,0.0,0.0,0.0,0.0,0.0,0.0,-2.8915,-2.8263,-2.9404,-2.9328,-2.9453,-2.9779,-2.9792,-2.9792,-2.9792,-2.9792,-2.983,-2.9934,-3.0011,-3.0049,-3.0049,-3.0049,-3.0049,-3.0049,-3.0049,-3.0088,-3.0164,-3.0279,-3.0318,-3.0343,-3.0659,-3.1768,-3.3184,-3.3184,-3.3754,-3.4439,-3.4105,-3.381,-3.3293,-3.1874,-3.0884,-3.0305,-3.0457,-3.0685,-3.0874,-3.0986,-3.0986,-3.0986,-3.0986,-3.0986,-3.0986,-3.0986,-3.0986,-3.0986,-3.0986,-3.0986,-3.0986,-3.0986,-3.0986,-3.0986,-3.0986,-3.0986,-3.0986,-3.0986,-3.147,-3.1889,-3.2137,-3.3012,-3.3679,-3.3901,-3.4201,-3.4397,-3.4397,-3.4397,-3.4397,-3.4397,-3.4397,-3.4272,-3.4021,-3.3797,-3.3513,-3.3124,-3.3124,-3.3124,-3.3124,-3.3124,-3.283,-3.2365,-3.2365,-3.2365,-3.0599,0.0,0.0,0.0,0.0,0.0,0.0,0.0,0.0,0.0,0.0,0.0,0.0,0.0,0.0,0.0,0.0,0.0,0.0,0.0,0.0,0.0,0.0,0.0,0.0,0.0,0.0,0.0,0.0,-2.7434,-2.8908,-2.8912,-2.9076,-2.9541,-2.9704,-2.9792,-2.9792,-2.9792,-2.9792,-2.9792,-2.9792,-2.9792,-2.9792,-2.9792,-2.9792,-2.9792,-2.9792,-2.9792,-2.9792,-2.9792,-2.9792,-2.9804,-2.9955,-3.0978,-3.2327,-3.2327,-3.297,-3.3781,-3.3598,-3.3238,-3.2718,-3.1786,-3.0963,-3.033,-3.0368,-3.0596,-3.0836,-3.0911,-3.0911,-3.0911,-3.0986,-3.0986,-3.0986,-3.0986,-3.1104,-3.1169,-3.1013,-3.1104,-3.1169,-3.1013,-3.0986,-3.0986,-3.0986,-3.0986,-3.0986,-3.0986,-3.1339,-3.1628,-3.1784,-3.2541,-3.3169,-3.3326,-3.3849,-3.4175,-3.4175,-3.4306,-3.4397,-3.4397,-3.4397,-3.4189,-3.3713,-3.3713,-3.3513,-3.3124,-3.3124,-3.3124,-3.3124,-3.3124,-3.3124,-3.3124,-3.3124,-3.3124,0.0,0.0,0.0,-2.7039,0.0,0.0,0.0,0.0,-2.8577,0.0,0.0,0.0,0.0,0.0,0.0,0.0,0.0,0.0,0.0,0.0,0.0,0.0,0.0,0.0,0.0,0.0,0.0,0.0,0.0,0.0,-2.8388,-2.8724,-2.89,-2.8913,-2.9503,-2.9792,-2.9792,-2.9792,-2.9792,-2.9792,-2.9792,-2.9792,-2.9792,-2.9792,-2.9792,-2.9792,-2.9792,-2.9792,-2.9792,-2.9792,-2.9792,-2.9842,-3.0382,-3.0922,-3.1427,-3.1427,-3.2143,-3.3111,-3.3124,-3.2407,-3.1477,-3.1627,-3.0988,-3.0152,-3.033,-3.0406,-3.0444,-3.066,-3.0698,-3.0736,-3.0949,-3.0986,-3.0986,-3.0986,-3.1418,-3.1628,-3.1104,-3.1418,-3.1615,-3.1091,-3.0986,-3.0986,-3.0986,-3.0986,-3.0986,-3.0986,-3.0999,-3.1209,-3.1732,-3.1836,-3.2071,-3.2659,-3.326,-3.3626,-3.3626,-3.4097,-3.4397,-3.4397,-3.4397,-3.4189,-3.3713,-3.3713,-3.3513,-3.3124,-3.3124,-3.3124,-3.3124,-3.3124,-3.3124,-3.3124,-3.3124,-3.3124,0.0,0.0,-2.847,-2.7755,0.0,0.0,0.0,0.0,0.0,0.0,0.0,0.0,0.0,0.0,0.0,0.0,0.0,0.0,0.0,0.0,0.0,0.0,0.0,0.0,0.0,0.0,0.0,0.0,-2.6506,0.0,0.0,-2.7913,-2.8172,-2.8863,-2.9076,-2.9402,-2.9792,-2.9792,-2.9792,-2.9792,-2.9792,-2.9792,-2.9792,-2.9792,-2.9792,-2.9792,-2.9792,-2.9792,-2.9792,-2.9792,-3.0005,-3.0357,-3.0545,-3.116,-3.1938,-3.1938,-3.2416,-3.3124,-3.3124,-3.2328,-3.1427,-3.148,-3.0857,-3.0113,-3.019,-3.0292,-3.0444,-3.066,-3.0698,-3.0736,-3.0949,-3.0986,-3.0986,-3.0986,-3.113,-3.1222,-3.1026,-3.1143,-3.1222,-3.1026,-3.0986,-3.0986,-3.0986,-3.0986,-3.0986,-3.0986,-3.0986,-3.1052,-3.1248,-3.1575,-3.1876,-3.2071,-3.2646,-3.2999,-3.2999,-3.3535,-3.4018,-3.4371,-3.4397,-3.4189,-3.3713,-3.3713,-3.3513,-3.3124,-3.3124,-3.3124,-3.3124,-3.3124,-3.3124,-3.3124,-3.3124,-3.3124,-2.8541,-2.8252,0.0,-2.7638,-2.7764,0.0,-2.7086,0.0,0.0,0.0,0.0,0.0,0.0,0.0,0.0,0.0,0.0,0.0,0.0,0.0,0.0,0.0,0.0,0.0,0.0,0.0,-2.7224,-2.7319,-2.5752,0.0,0.0,0.0,-2.7566,-2.8562,-2.8787,-2.9202,-2.9779,-2.9792,-2.9792,-2.9792,-2.9792,-2.9792,-2.9792,-2.9792,-2.9792,-2.9792,-2.9792,-2.9792,-2.9804,-3.0005,-3.0294,-3.0658,-3.1035,-3.1612,-3.2215,-3.2215,-3.2579,-3.3124,-3.3124,-3.2328,-3.1386,-3.1386,-3.0777,-2.9972,-2.9972,-3.0075,-3.0228,-3.0495,-3.0571,-3.0647,-3.0949,-3.0986,-3.0986,-3.0986,-3.1143,-3.1235,-3.1026,-3.1143,-3.1235,-3.1026,-3.0986,-3.0986,-3.0986,-3.0986,-3.0986,-3.0986,-3.0986,-3.0986,-3.0986,-3.1313,-3.1535,-3.1535,-3.2045,-3.2555,-3.2973,-3.3365,-3.3822,-3.4358,-3.4314,-3.4105,-3.3725,-3.3641,-3.3441,-3.3124,-3.3124,-3.3124,-3.3124,-3.3124,-3.3124,-3.3124,-3.3124,-3.3124]},{"header":{"parameterUnit":"m.s-1","parameterCategory":1,"la1":30.6,"la2":29.2853,"lo1":-89.7004,"lo2":-87.6739,"dy":0.0162,"dx":0.0183,"nx":112,"ny":82,"refTime":"2026-04-11T12:00:00:Z","depth":0,"parameterNumber":3,"parameterNumberName":"V-component_of_WINDS"},"data":[0.0,0.0,0.0,0.0,0.0,0.0,0.0,0.0,0.0,0.0,0.0,0.0,0.0,0.0,0.0,0.0,0.0,0.0,0.0,0.0,0.0,0.0,0.0,0.0,0.0,0.0,0.0,0.0,0.0,0.0,0.0,0.0,0.0,0.0,0.0,0.0,0.0,0.0,0.0,0.0,0.0,0.0,0.0,0.0,0.0,0.0,0.0,0.0,0.0,0.0,0.0,0.0,0.0,0.0,0.0,0.0,0.0,0.0,0.0,0.0,0.0,0.0,0.0,0.0,0.0,0.0,0.0,0.0,0.0,0.0,0.0,0.0,0.0,0.0,0.0,0.0,0.0,0.0,0.0,0.0,0.0,0.0,0.0,0.0,0.0,0.0,0.0,0.0,0.0,0.0,0.0,0.7171,0.7237,0.7092,0.655,0.5943,0.5439,0.5126,0.0,0.0,0.0,0.0,0.0,0.0,0.0,0.0,0.0,0.0,0.0,0.0,0.0,0.0,0.0,0.0,0.0,0.0,0.0,0.0,0.0,0.0,0.0,0.0,0.0,0.0,0.0,0.0,0.0,0.0,0.0,0.0,0.0,0.0,0.0,0.0,0.0,0.0,0.0,0.0,0.0,0.0,0.0,0.0,0.0,0.0,0.0,0.0,0.0,0.0,0.0,0.0,0.0,0.0,0.0,0.0,0.0,0.0,0.0,0.0,0.0,0.0,0.0,0.0,0.0,0.0,0.0,0.0,0.0,0.0,0.0,0.0,0.0,0.0,0.0,0.0,0.0,0.0,0.0,0.0,0.0,0.0,0.0,0.0,0.0,0.0,0.0,0.0,0.0,0.0,0.0,0.0,0.0,0.0,0.0,0.0,0.0,0.0,0.0,0.0,0.0,0.0,0.0,0.0,0.7469,0.8122,0.7902,0.7537,0.7123,0.6734,0.6225,0.562,0.0,0.0,0.0,0.0,0.0,0.0,0.0,0.0,0.0,0.0,0.0,0.0,0.0,0.0,0.0,0.0,0.0,0.0,0.0,0.0,0.0,0.0,0.0,0.0,0.0,0.0,0.0,0.0,0.0,0.0,0.0,0.0,0.0,0.0,0.0,0.0,0.0,0.0,0.0,0.0,0.0,0.0,0.0,0.0,0.0,0.0,0.0,0.0,0.0,0.0,0.0,0.0,0.0,0.0,0.0,0.0,0.0,0.0,0.0,0.0,0.0,0.0,0.0,0.0,0.0,0.0,0.0,0.0,0.0,0.0,0.0,0.0,0.0,0.0,0.0,0.0,0.0,0.0,0.0,0.0,0.0,0.0,0.0,0.0,0.0,0.0,0.0,0.0,0.0,0.0,0.0,0.0,0.0,0.0,0.0,0.0,0.0,0.0,0.0,0.0,0.0,0.0,0.0,0.8508,0.8818,0.9079,0.8611,0.8131,0.7751,0.7359,0.6821,0.6076,0.5223,0.0,0.0,0.0,0.0,0.0,0.0,0.0,0.0,0.0,0.0,0.0,0.0,0.0,0.0,0.0,0.0,0.0,0.0,0.0,0.0,0.0,0.0,0.0,0.0,0.0,0.0,0.0,0.0,0.0,0.0,0.0,0.0,0.0,0.0,0.0,0.0,0.0,0.0,0.0,0.0,0.0,0.0,0.0,0.0,0.0,0.0,0.0,0.0,0.0,0.0,0.0,0.0,0.0,0.0,0.0,0.0,0.0,0.0,0.0,0.0,0.0,0.0,0.0,0.0,0.0,0.0,0.0,0.0,0.0,0.0,0.0,0.0,0.0,0.0,0.0,0.0,0.0,0.0,0.0,0.0,0.0,0.0,0.0,0.0,0.0,0.0,0.0,0.0,0.0,0.0,0.0,0.0,0.0,0.0,0.0,0.0,0.0,0.0,0.0,0.0,0.0,0.0,1.0063,1.0326,1.0296,0.9733,0.9153,0.8722,0.8214,0.7551,0.6627,0.5989,0.0,0.0,0.0,0.0,0.0,0.0,0.0,0.0,0.0,0.0,0.0,0.0,0.0,0.0,0.0,0.0,0.0,0.0,0.0,0.0,0.0,0.0,0.0,0.0,0.0,0.0,0.0,0.0,0.0,0.0,0.0,0.0,0.0,0.0,0.0,0.0,0.0,0.0,0.0,0.0,0.0,0.0,0.0,0.0,0.0,0.0,0.0,0.0,0.0,0.0,0.0,0.0,0.0,0.0,0.0,0.0,0.0,0.0,0.0,0.0,0.0,0.0,0.0,0.0,0.0,0.0,0.0,0.0,0.0,0.0,0.0,0.0,0.0,0.0,0.0,0.0,0.0,0.0,0.0,0.0,0.0,0.0,0.0,0.0,0.0,0.0,0.0,0.0,0.0,0.0,0.0,0.0,0.0,0.0,0.0,0.0,0.0,0.0,0.0,0.0,0.0,0.0,1.1542,1.2054,1.2014,1.1524,1.0911,1.0123,0.9555,0.8756,0.7501,0.6499,0.0,0.0,0.0,0.0,0.0,0.0,0.0,0.0,0.0,0.0,0.0,0.0,0.0,0.0,0.0,0.0,0.0,0.0,0.0,0.0,0.0,0.0,0.0,0.0,0.0,0.0,0.0,0.0,0.0,0.0,0.0,0.0,0.0,0.0,0.0,0.0,0.0,0.0,0.0,0.0,0.0,0.0,0.0,0.0,0.0,0.0,0.0,0.0,0.0,0.0,0.0,0.0,0.0,0.0,0.0,0.0,0.0,0.0,0.0,0.0,0.0,0.0,0.0,0.0,0.0,0.0,0.0,0.0,0.0,0.0,0.0,0.0,0.0,0.0,0.0,0.0,0.0,0.0,0.0,0.0,0.0,0.0,0.0,0.0,0.0,0.0,0.0,0.0,0.0,0.0,0.0,0.0,0.0,0.0,0.0,0.0,0.0,0.0,0.0,0.0,0.0,0.0,1.2093,1.2523,0.0,1.2244,1.1668,1.1134,1.0351,0.9432,0.8389,0.0,0.0,0.0,0.0,0.0,0.0,0.0,0.0,0.0,0.0,0.0,0.0,0.0,0.0,0.0,0.0,0.0,0.0,0.0,0.0,0.0,0.0,0.0,0.0,0.0,0.0,0.0,0.0,0.0,0.0,0.0,0.0,0.0,0.0,0.0,0.0,0.0,0.0,0.0,0.0,0.0,0.0,0.0,0.0,0.0,0.0,0.0,0.0,0.0,0.0,0.0,0.0,0.0,0.0,0.0,0.0,0.0,0.0,0.0,0.0,0.0,0.0,0.0,0.0,0.0,0.0,0.0,0.0,0.0,0.0,0.0,0.0,0.0,0.0,0.0,0.0,0.0,0.0,0.0,0.0,0.0,0.0,0.0,0.0,0.0,0.0,0.0,0.0,0.0,0.0,0.0,0.0,0.0,0.0,0.0,0.0,0.0,0.0,0.0,0.0,0.0,0.0,1.2057,1.2748,1.3267,0.0,1.3259,1.2769,1.2245,1.1365,1.0402,0.9326,0.0,0.0,0.0,0.0,0.0,0.0,0.0,0.0,0.0,0.0,0.0,0.0,0.0,0.0,0.0,0.0,0.0,0.0,0.0,0.0,0.0,0.0,0.0,0.0,0.0,0.0,0.0,0.0,0.0,0.0,0.0,0.0,0.0,0.0,0.0,0.0,0.0,0.0,0.0,0.0,0.0,0.0,0.0,0.0,0.0,0.0,0.0,0.0,0.0,0.0,0.0,0.0,0.0,0.0,0.0,0.0,0.0,0.0,0.0,0.0,0.0,0.0,0.0,0.0,0.0,0.0,0.0,0.0,0.0,0.0,0.0,0.0,0.0,0.0,0.0,0.0,0.0,0.0,0.0,0.0,0.0,0.0,0.0,0.0,0.0,0.0,0.0,0.0,0.0,0.0,0.0,0.0,0.0,0.0,0.0,0.0,0.0,0.0,0.0,0.0,0.0,0.0,1.2547,1.3573,1.4434,1.5013,1.4775,1.4291,1.3592,1.2758,1.1705,0.0,0.0,0.0,0.0,0.0,0.0,0.0,0.0,0.0,0.0,0.0,0.0,0.0,0.0,0.0,0.0,0.0,0.0,0.0,0.0,0.0,0.0,0.0,0.0,0.0,0.0,0.0,0.0,0.0,0.0,0.0,0.0,0.0,0.0,0.0,0.0,0.0,0.0,0.0,0.0,0.0,0.0,0.0,0.0,0.0,0.0,0.0,0.0,0.0,0.0,0.0,0.0,0.0,0.0,0.0,0.0,0.0,0.0,0.0,0.0,0.0,0.0,0.0,0.0,0.0,0.0,0.0,0.0,0.0,0.0,0.0,0.0,0.0,0.0,0.0,0.0,0.0,0.0,0.0,0.0,0.0,0.0,0.0,0.0,0.0,0.0,0.0,0.0,0.0,0.0,0.0,0.0,0.0,0.0,0.0,0.0,0.0,0.0,0.0,0.0,0.0,0.0,0.0,1.2671,1.3763,1.4568,1.4897,1.4865,1.4661,1.4244,1.3406,1.2551,1.16,0.0,0.0,0.0,0.0,0.0,0.0,0.0,0.0,0.0,0.0,0.0,0.0,0.0,0.0,0.0,0.0,0.0,0.0,0.0,0.0,0.0,0.0,0.0,0.0,0.0,0.0,0.0,0.0,0.0,0.0,0.0,0.0,0.0,0.0,0.0,0.0,0.0,0.0,0.0,0.0,0.0,0.0,0.0,0.0,0.0,0.0,0.0,0.0,0.0,0.0,0.0,0.0,0.0,0.0,0.0,0.0,0.0,0.0,0.0,0.0,0.0,0.0,0.0,0.0,0.0,0.0,0.0,0.0,0.0,0.0,0.0,0.0,0.0,0.0,0.0,0.0,0.0,0.0,0.0,0.0,0.0,0.0,0.0,0.0,0.0,0.0,0.0,0.0,0.0,0.0,0.0,0.0,0.0,0.0,0.0,0.0,0.0,0.0,0.0,0.0,0.0,0.0,1.3212,1.4481,1.5469,1.5948,1.584,1.569,1.5454,1.4579,1.3729,1.2914,0.0,0.0,0.0,0.0,0.0,0.0,0.0,0.0,0.0,0.0,0.0,0.0,0.0,0.0,0.0,0.0,0.0,0.0,0.0,0.0,0.0,0.0,0.0,0.0,0.0,0.0,0.0,0.0,0.0,0.0,0.0,0.0,0.0,0.0,0.0,0.0,0.0,0.0,0.0,0.0,0.0,0.0,0.0,0.0,0.0,0.0,0.0,0.0,0.0,0.0,0.0,0.0,0.0,0.0,0.0,0.0,0.0,0.0,0.0,0.0,0.0,0.0,0.0,0.0,0.0,0.0,0.0,0.0,0.0,0.0,0.0,0.0,0.0,0.0,0.0,0.0,0.0,0.0,0.0,0.0,0.0,0.0,0.0,0.0,0.0,0.0,0.0,0.0,0.0,0.0,0.0,0.0,0.0,0.0,0.0,0.0,0.0,0.0,0.0,0.0,0.0,0.0,1.3852,1.5474,1.671,1.7344,1.7228,1.6978,1.6771,1.5959,1.5084,1.4119,0.0,0.0,0.0,0.0,0.0,0.0,0.0,0.0,0.0,0.0,0.0,0.0,0.0,0.0,0.0,0.0,0.0,0.0,0.0,0.0,0.0,0.0,0.0,0.0,0.0,0.0,0.0,0.0,0.0,0.0,0.0,0.0,0.0,0.0,0.0,0.0,0.0,0.0,0.0,0.0,0.0,0.0,0.0,0.0,0.0,0.0,0.0,0.0,0.0,0.0,0.0,0.0,0.0,0.0,0.0,0.0,0.0,0.0,0.0,0.0,1.9195,0.0,0.0,0.0,0.0,0.0,0.0,0.0,0.0,0.0,0.0,0.0,0.0,0.0,0.0,0.0,0.0,0.0,0.0,0.0,0.0,0.0,0.0,0.0,0.0,0.0,0.0,0.0,0.0,0.0,0.0,0.0,0.0,0.0,0.0,0.0,0.0,0.0,0.0,0.0,0.0,0.0,1.3525,1.5181,1.6197,1.6051,1.6521,1.67,1.6345,1.6179,1.5625,1.4555,1.3713,0.0,0.0,0.0,0.0,0.0,0.0,0.0,0.0,0.0,0.0,0.0,0.0,0.0,0.0,0.0,0.0,0.0,0.0,0.0,0.0,0.0,0.0,0.0,0.0,0.0,0.0,0.0,0.0,0.0,0.0,0.0,0.0,0.0,0.0,0.0,0.0,0.0,0.0,0.0,0.0,0.0,0.0,0.0,0.0,0.0,0.0,0.0,0.0,0.0,0.0,0.0,0.0,0.0,0.0,0.0,0.0,0.0,0.0,0.0,0.0,2.0311,0.0,0.0,0.0,0.0,0.0,0.0,0.0,0.0,0.0,0.0,0.0,0.0,0.0,0.0,0.0,0.0,0.0,0.0,0.0,0.0,0.0,0.0,0.0,0.0,0.0,0.0,0.0,0.0,0.0,0.0,0.0,0.0,0.0,0.0,0.0,0.0,0.0,0.0,0.0,0.0,1.422,1.5774,1.6675,1.6366,1.6863,1.7133,1.6867,1.6961,1.6629,1.5739,1.4924,0.0,0.0,0.0,0.0,0.0,0.0,0.0,0.0,0.0,0.0,0.0,0.0,0.0,0.0,0.0,0.0,0.0,0.0,0.0,0.0,0.0,0.0,0.0,0.0,0.0,0.0,0.0,0.0,0.0,0.0,0.0,0.0,0.0,0.0,0.0,0.0,0.0,0.0,0.0,0.0,0.0,0.0,0.0,0.0,0.0,0.0,0.0,0.0,0.0,0.0,0.0,0.0,0.0,2.4957,2.5091,2.4393,2.513,2.4842,2.3779,2.3197,2.2583,2.194,0.0,0.0,0.0,0.0,0.0,0.0,0.0,0.0,0.0,0.0,0.0,0.0,0.0,0.0,0.0,0.0,0.0,0.0,0.0,0.0,0.0,0.0,0.0,0.0,0.0,1.7139,1.6459,0.0,0.0,0.0,0.0,0.0,0.0,0.0,0.0,0.0,0.0,0.0,0.0,1.502,1.634,1.7113,1.6868,1.7218,1.7433,1.7298,1.7469,1.7339,1.6819,1.5979,1.5207,0.0,0.0,0.0,0.0,0.0,0.0,0.0,0.0,0.0,0.0,0.0,0.0,0.0,0.0,0.0,0.0,0.0,0.0,0.0,0.0,0.0,0.0,0.0,0.0,0.0,0.0,0.0,0.0,0.0,0.0,0.0,0.0,2.5873,2.6135,0.0,0.0,0.0,0.0,0.0,0.0,0.0,0.0,0.0,0.0,0.0,0.0,0.0,2.5903,2.6667,2.6505,2.6586,2.6953,2.689,2.6768,2.666,2.6777,2.6633,2.631,2.6202,0.0,2.2387,2.2093,0.0,0.0,0.0,0.0,0.0,0.0,0.0,0.0,0.0,0.0,0.0,0.0,0.0,0.0,0.0,0.0,0.0,0.0,0.0,0.0,0.0,0.0,1.938,1.957,1.8737,1.7946,0.0,1.7402,1.6407,1.5486,1.4729,0.0,0.0,0.0,0.0,0.0,0.0,0.0,1.4706,1.5704,1.6217,1.5839,1.6318,1.657,1.6407,1.6557,1.6566,1.6317,1.6019,1.5495,1.4801,1.4116,0.0,0.0,0.0,0.0,0.0,0.0,0.0,0.0,0.0,0.0,0.0,0.0,0.0,0.0,0.0,0.0,0.0,0.0,0.0,0.0,0.0,0.0,0.0,0.0,0.0,0.0,0.0,0.0,0.0,2.7287,2.8644,2.8386,2.7849,2.7156,0.0,0.0,0.0,0.0,0.0,0.0,0.0,0.0,0.0,2.8291,2.903,2.9661,3.0117,3.0234,3.0266,3.0314,3.0695,3.0569,3.0087,3.0287,2.992,2.9097,2.9097,2.808,2.6289,2.4196,2.2568,2.124,0.0,0.0,0.0,0.0,2.0797,2.1191,2.2383,2.2983,0.0,2.3139,0.0,0.0,0.0,0.0,0.0,0.0,0.0,0.0,0.0,0.0,2.074,2.081,2.0001,1.9203,1.933,1.9161,1.8501,0.0,1.6187,1.5556,1.4668,0.0,0.0,0.0,0.0,1.487,1.5273,1.5817,1.5946,1.5433,1.5806,1.605,1.5879,1.623,1.6453,1.6519,1.6343,1.6154,1.5977,1.505,1.4213,0.0,0.0,0.0,0.0,0.0,0.0,0.0,0.0,0.0,0.0,0.0,0.0,0.0,0.0,0.0,0.0,0.0,0.0,0.0,0.0,0.0,0.0,0.0,0.0,0.0,0.0,0.0,0.0,2.9703,3.1075,3.079,3.0466,2.9884,0.0,0.0,0.0,0.0,0.0,0.0,2.9717,3.0525,3.1228,3.1687,3.2446,3.2941,3.3164,3.3321,3.3294,3.3098,3.3619,3.3413,3.2619,3.2919,3.2358,3.1103,3.1103,3.0486,2.9327,2.6511,2.4604,2.3347,2.2443,2.205,2.2084,2.3144,2.3738,2.422,2.5294,2.5826,2.5986,2.5746,0.0,2.3444,2.2927,0.0,0.0,0.0,0.0,2.1358,2.1677,2.1869,2.2005,2.2039,2.1312,2.0585,2.0528,2.0672,2.0225,0.0,1.7546,1.7039,1.6055,0.0,0.0,0.0,0.0,1.5447,1.5668,1.5936,1.5878,1.5312,1.5484,1.5646,1.5637,1.6042,1.6475,1.6875,1.6841,1.6822,1.6914,1.5875,1.4984,1.4352,0.0,0.0,0.0,0.0,0.0,0.0,0.0,0.0,0.0,0.0,0.0,0.0,0.0,0.0,0.0,0.0,0.0,0.0,0.0,0.0,0.0,0.0,0.0,0.0,0.0,0.0,0.0,0.0,0.0,3.3553,3.2979,0.0,0.0,0.0,0.0,3.1581,3.2168,3.2629,3.3113,3.3704,3.4186,3.4669,3.474,3.5034,3.5525,3.497,3.4722,3.467,3.4204,3.3694,3.3149,3.3171,3.2622,3.167,3.167,3.0889,2.9542,2.8846,2.7891,2.679,2.639,2.5786,2.5293,2.6362,2.6743,2.6913,2.8521,2.8742,2.8431,2.8898,2.7135,2.4637,2.3722,2.2343,0.0,0.0,2.2521,2.2547,2.3496,2.3538,2.3346,2.347,2.2816,2.219,2.219,2.1816,2.086,0.0,1.8568,1.8184,1.6885,0.0,1.572,1.5439,1.5612,1.5688,1.5439,1.5811,1.5928,1.543,1.5274,1.5361,1.5683,1.5949,1.6412,1.7138,1.7399,1.7375,1.702,1.6381,1.5439,1.4136,1.3291,0.0,0.0,0.0,0.0,0.0,0.0,0.0,0.0,0.0,0.0,0.0,0.0,0.0,0.0,0.0,0.0,0.0,0.0,0.0,0.0,0.0,0.0,0.0,0.0,0.0,0.0,0.0,0.0,3.6466,3.6805,0.0,3.5746,3.5004,3.4747,3.5097,3.5743,3.6333,3.6887,3.7761,3.8179,3.8007,3.8339,3.8347,3.8044,3.7813,3.7605,3.7344,3.7187,3.6629,3.5744,3.5744,3.5173,3.4233,3.4233,3.3624,3.2652,3.25,3.0398,2.7266,2.7142,2.6872,2.6741,2.7584,2.7836,2.7822,2.8534,2.8667,2.8447,2.8171,2.7124,2.5845,2.4935,2.3961,2.3163,2.3361,2.3582,2.3768,2.392,2.4036,2.408,2.3998,2.3568,2.3042,2.2755,2.2484,2.1954,2.0629,1.9974,1.9381,1.8694,1.7513,1.685,1.7324,1.6597,1.6159,1.6631,1.6349,1.6036,1.588,1.5527,1.543,1.5672,1.6024,1.6493,1.7142,1.758,1.7848,1.7976,1.717,1.6385,1.5588,1.5037,1.4146,0.0,0.0,0.0,0.0,0.0,0.0,0.0,0.0,0.0,0.0,0.0,0.0,0.0,0.0,0.0,0.0,0.0,0.0,0.0,0.0,0.0,0.0,0.0,0.0,0.0,0.0,3.7556,3.8536,3.9047,3.8985,3.8201,3.7693,3.7381,3.7292,3.8054,3.8668,3.8906,3.9923,4.0262,3.971,4.0049,3.9957,3.9426,3.9374,3.9206,3.8945,3.8841,3.8224,3.718,3.718,3.6591,3.562,3.562,3.517,3.4527,3.4433,3.2335,2.9245,2.917,2.8998,2.8831,2.9341,2.948,2.9343,2.9119,2.9039,2.8855,2.7849,2.7245,2.6826,2.6078,2.5565,2.5141,2.4708,2.4921,2.5135,2.4765,2.4814,2.4933,2.4802,2.4575,2.4302,2.399,2.3583,2.311,2.2483,2.1371,2.0303,1.9749,1.8604,1.7935,1.8376,1.7526,1.6976,1.7244,1.6927,1.6527,1.6208,1.5879,1.5797,1.6048,1.6332,1.6714,1.7233,1.7741,1.8068,1.8174,1.7783,1.7241,1.662,1.5946,1.4884,1.3376,0.0,0.0,0.0,0.0,0.0,0.0,0.0,0.0,0.0,0.0,0.0,0.0,0.0,0.0,0.0,0.0,0.0,0.0,0.0,0.0,0.0,0.0,0.0,3.5127,3.6673,3.8254,3.9609,3.954,3.9501,3.9772,3.9066,3.8466,3.8153,3.9145,3.9534,3.8981,3.9973,4.0312,3.9735,3.9735,3.9722,3.9697,3.9438,3.9335,3.931,3.8985,3.8275,3.7255,3.7243,3.6653,3.5645,3.5645,3.5338,3.4834,3.4552,3.3801,3.2816,3.2581,3.2154,3.1705,3.1705,3.1705,3.1536,3.0477,3.0062,2.9809,2.8246,2.7702,2.7582,2.7078,2.7048,2.7089,2.6554,2.6565,2.6599,2.6045,2.591,2.591,2.591,2.591,2.591,2.591,2.5062,2.43,2.43,2.269,2.1016,1.9972,1.9482,1.9068,1.8482,1.8417,0.0,1.7301,1.751,1.7366,1.6467,1.6353,1.6467,1.6807,1.6899,1.7067,1.7401,1.7962,1.8092,1.765,1.812,1.7946,1.704,1.5914,1.4744,1.3564,0.0,0.0,0.0,0.0,0.0,0.0,0.0,0.0,0.0,0.0,0.0,0.0,0.0,0.0,0.0,0.0,0.0,0.0,0.0,0.0,0.0,3.5366,3.6245,3.6097,3.7828,3.9595,4.0699,4.1188,4.1413,4.1534,4.1288,4.0962,4.041,4.1078,4.1241,4.0689,4.1317,4.1266,4.0325,4.0676,4.0501,3.9697,4.0034,3.9982,3.9581,3.9129,3.8728,3.8416,3.8004,3.743,3.6768,3.6768,3.6324,3.5637,3.559,3.4795,3.3591,3.2829,3.2154,3.1705,3.1705,3.1464,3.0983,2.9881,2.9508,2.9376,2.8558,2.8041,2.7693,2.769,2.7477,2.7126,2.6712,2.6673,2.6599,2.6045,2.591,2.591,2.591,2.591,2.591,2.591,2.5062,2.43,2.43,2.3239,2.2126,2.1603,2.095,2.0458,2.0344,1.9521,0.0,1.9052,1.8539,1.805,1.7787,1.7437,1.7341,1.7573,1.7519,1.7553,1.776,1.7875,1.8042,1.832,1.808,1.7842,1.7591,1.6693,1.5834,0.0,0.0,0.0,0.0,0.0,0.0,0.0,0.0,0.0,0.0,0.0,0.0,0.0,0.0,0.0,0.0,0.0,0.0,0.0,0.0,0.0,0.0,3.686,3.7864,3.7764,3.9069,4.045,4.1555,4.1756,4.1907,4.2187,4.2213,4.1932,4.1326,4.1844,4.1819,4.0987,4.1517,4.1304,4.0212,4.0488,4.0337,3.9697,4.0011,4.0011,3.9697,3.9371,3.8969,3.8492,3.8165,3.7575,0.0,3.6835,3.6611,3.6146,3.6063,3.5276,0.0,0.0,0.0,0.0,0.0,3.1787,3.1362,3.0294,2.9929,2.9796,2.8991,2.853,2.8315,2.8419,2.8303,2.7974,2.7348,2.7235,2.7122,2.6352,2.6154,2.6154,2.6154,2.6154,2.6154,2.6154,2.5298,2.4528,2.4528,2.3604,0.0,2.2604,2.197,2.1495,2.1436,2.07,2.0091,1.9935,1.9422,1.8885,1.8463,1.8183,1.8093,1.8267,1.8066,0.0,0.0,0.0,1.8056,1.8572,1.8289,0.0,0.0,0.0,0.0,0.0,0.0,0.0,0.0,1.5246,1.5337,0.0,0.0,0.0,0.0,0.0,0.0,0.0,0.0,0.0,0.0,0.0,0.0,0.0,0.0,0.0,0.0,3.7638,3.927,3.9885,4.0388,4.1065,4.2099,4.1681,4.1555,4.215,4.215,4.1869,4.1326,4.1844,4.1706,4.0664,0.0,0.0,0.0,0.0,3.9823,3.9697,3.9697,3.9697,3.9697,3.9572,3.9007,3.8103,3.804,3.7437,3.6505,3.6505,3.6468,3.6358,3.6146,3.5416,3.4409,3.3966,3.3236,3.24,3.24,3.24,3.224,3.1159,0.0,0.0,2.946,2.9091,2.9091,2.9131,2.9275,2.9195,2.8127,2.7975,2.7846,2.6788,2.6499,2.6499,2.6499,2.6499,2.6499,2.6499,2.5598,2.4788,2.4788,2.3885,2.3108,2.3108,2.2665,2.2235,2.2075,2.183,2.1358,2.0458,2.0245,1.9835,1.8937,0.0,0.0,1.8893,1.8532,1.8151,1.7788,1.7811,1.8043,1.8536,1.861,1.861,1.8548,1.7971,1.7313,1.6578,1.618,1.647,1.7364,1.6321,1.6051,0.0,0.0,0.0,0.0,0.0,0.0,0.0,0.0,0.0,0.0,0.0,0.0,0.0,0.0,0.0,3.7262,3.9032,4.0551,4.1597,4.1823,4.1974,4.2187,4.1681,4.1555,4.215,4.1756,4.1401,4.13,4.1844,4.1869,4.1163,4.1706,4.1492,4.0388,4.0736,4.0588,3.9697,3.9697,3.9697,3.9685,0.0,0.0,3.8693,3.8216,3.7651,3.7023,3.7023,3.682,3.6405,3.6323,3.5671,3.4502,3.3229,3.2584,3.24,3.24,3.24,3.224,3.1159,3.0778,3.0606,2.946,2.9091,2.9131,2.9275,2.938,0.0,2.83,2.8073,2.7846,2.6788,2.6499,2.6499,2.6499,2.6499,2.6499,2.6499,2.5598,2.4788,2.4788,2.3885,2.3108,2.3108,2.2987,2.2927,2.2884,2.2481,2.2092,2.1911,2.1117,2.0523,2.0312,1.9851,1.9578,1.9604,1.9157,1.8797,1.8734,1.8346,1.8183,1.8259,1.8684,1.8721,1.8295,1.8159,1.7574,1.652,1.6903,1.719,1.7389,1.7274,1.7544,0.0,0.0,0.0,0.0,0.0,0.0,0.0,0.0,0.0,0.0,0.0,3.455,3.5391,0.0,3.7682,3.8515,4.0145,4.1542,4.2141,4.2658,4.2971,4.2627,4.2082,4.1957,4.2577,4.207,4.1743,4.1743,4.1743,4.163,4.13,4.1605,4.1367,4.0538,4.0777,4.0526,3.9697,3.9421,3.9283,3.927,3.8417,3.8015,3.8015,3.7726,3.7299,3.682,3.682,3.6669,3.6367,3.5768,3.5215,3.4568,3.3246,3.2736,3.2736,3.2736,3.2736,3.2574,3.1468,3.1083,3.0909,2.9816,2.9456,2.9456,2.9573,2.9599,2.9374,2.8386,2.8109,2.7846,2.6788,2.6499,2.6499,2.6499,2.6499,2.6499,2.6499,2.5598,2.4788,2.4788,2.3885,2.3108,2.3108,2.3108,2.3108,2.3108,2.2869,2.2594,2.2347,2.1594,2.0993,2.0729,2.015,1.9798,1.9798,1.9309,1.9008,1.9008,1.8505,1.8329,1.8581,1.8857,1.8995,1.9007,1.8744,1.8318,1.7754,1.779,1.794,1.8204,1.8275,1.8326,0.0,0.0,0.0,0.0,0.0,0.0,0.0,0.0,3.3997,3.4989,3.6081,3.6996,3.7383,3.8527,3.9499,3.9499,4.1054,4.2221,4.2323,4.3143,4.3555,4.3033,4.2642,4.2553,4.2939,4.2486,4.2053,4.1953,4.153,4.1238,4.1125,4.1326,4.1191,4.0538,4.0626,4.0362,3.9697,3.9032,3.8755,3.8906,3.8178,3.7613,3.7186,3.7186,3.6933,3.6405,3.6405,3.6405,3.6317,3.5177,3.468,3.4568,3.3508,3.3124,3.3124,3.3124,3.3124,3.296,3.1788,3.1386,3.121,3.0143,2.9792,2.9792,2.9792,2.9792,2.9553,2.8423,2.8109,2.7846,2.6788,2.6499,2.6499,2.6499,2.6499,2.6499,2.6499,2.5598,2.4788,2.4788,2.3885,2.3108,2.3108,2.3108,2.3108,2.3108,2.3108,2.2945,2.2493,2.1895,2.1345,2.0893,2.0213,1.9798,1.9798,1.9384,1.9108,1.9008,1.8581,1.8544,1.8983,1.9008,1.9196,1.9648,1.9221,1.8958,1.8845,1.853,1.8569,1.9008,1.9108,1.892,3.1531,3.239,3.3796,3.4856,3.5119,3.5282,0.0,0.0,3.6216,3.6784,3.7814,3.8554,3.831,3.9233,4.0096,4.0313,4.1401,4.2349,4.2849,4.3041,4.3064,4.2997,4.2946,4.2933,4.2997,4.2296,4.1603,4.1083,4.1197,4.1075,4.0626,4.153,4.1593,4.0551,4.0937,4.0752,3.9697,3.863,3.8366,3.8906,3.7789,3.7249,3.7186,3.7186,3.6933,3.6405,3.6405,3.6405,3.6317,3.5177,3.468,3.4568,3.3508,3.3124,3.3124,3.3124,3.3124,3.296,3.1788,3.1386,3.121,3.0143,2.9792,2.9792,2.9792,2.9792,2.9553,2.8423,2.8109,2.7846,2.6788,2.6499,2.6499,2.6499,2.6499,2.6499,2.6499,2.5598,2.4788,2.4788,2.3885,2.3108,2.3108,2.3108,2.3108,2.3108,2.3108,2.3083,2.302,2.2133,2.1496,2.1405,2.0439,1.9798,1.9798,1.9748,1.9522,1.9033,1.8945,1.8945,1.9008,1.9008,1.9033,1.9096,1.9033,1.877,1.8292,1.8707,1.8945,1.9008,1.9497,1.9685,3.3731,3.455,3.5592,3.6697,3.7475,3.8103,3.8668,3.8793,3.8931,3.9484,4.0394,4.0942,4.0476,4.127,4.1941,0.0,4.2565,4.3163,4.302,4.3292,4.3369,4.3046,4.3007,4.2848,4.2528,4.207,4.1542,4.0946,4.0583,4.0425,4.0513,4.0953,4.099,4.0538,4.0739,4.0488,3.9697,3.8906,3.8467,3.8366,3.7563,3.7023,3.6757,3.6757,3.6631,3.6392,3.6031,3.5893,3.5793,3.47,3.4248,3.4161,3.3382,3.3124,3.3124,3.3124,3.3124,3.296,3.1788,3.1386,3.121,3.0143,2.9792,2.9792,2.9792,2.9792,2.9553,2.8423,2.8109,2.7846,2.6788,2.6499,2.6499,2.6499,2.6499,2.6499,2.6499,2.5598,2.4788,2.4788,2.3885,2.3108,2.3108,2.3108,2.3108,2.3108,2.3108,2.3108,2.3108,2.2171,2.1242,2.0577,2.0075,1.9798,1.9798,1.9798,1.971,1.9497,1.9472,1.9472,1.9472,1.9472,1.9472,1.9472,1.9472,1.9371,1.9133,1.9371,1.9472,1.9459,1.9698,1.9798,3.5447,3.6282,3.7048,3.8002,3.9082,3.9986,4.0237,4.0413,4.0588,4.0786,4.143,4.1795,4.1495,4.216,4.2708,4.2709,4.3258,4.3598,4.3506,4.3572,4.348,4.3075,4.2748,4.2281,4.1698,4.1861,4.173,4.0938,4.0412,4.0231,4.0484,4.0648,4.0648,4.0496,4.0583,4.0341,3.98,3.9196,3.858,3.8002,3.745,3.6945,3.6405,3.6405,3.6405,3.638,3.578,3.542,3.5194,3.4299,3.3809,3.3633,3.3232,3.3124,3.3056,3.2893,3.283,3.2679,3.1562,3.1173,3.1022,3.0093,2.9792,2.9792,2.9792,2.9792,2.9553,2.8423,2.8109,2.7846,2.6788,2.6499,2.6499,2.6499,2.6499,2.6499,2.6499,2.5711,2.4996,2.4813,2.401,2.3296,2.3133,2.3108,2.3108,2.3108,2.3108,2.3108,2.3108,2.2171,2.1054,1.9924,1.9798,1.9798,1.9798,1.9798,1.9837,1.9862,1.9862,1.9862,1.9914,1.9914,1.9914,1.9914,1.9914,1.9888,1.9862,1.9862,1.9862,1.9862,1.9862,1.9862,3.6044,3.7136,3.8103,3.8693,3.9672,4.035,3.9835,4.0136,4.0375,3.9848,3.9979,4.0236,4.0504,4.0784,4.1413,4.2788,4.2984,4.3428,4.4526,4.3729,4.3036,4.3023,4.2043,4.1091,0.0,4.1736,4.2099,4.1,4.1106,4.1042,4.0517,4.0991,4.1042,4.0491,4.0732,4.0641,4.0083,3.9297,3.858,3.8002,3.745,3.6945,3.6405,3.6405,3.6405,3.638,3.578,3.5194,3.4655,3.4135,3.3583,3.3106,3.3124,3.3124,3.3048,3.2441,3.224,3.2089,3.1009,3.0633,3.0545,2.998,2.9792,2.9792,2.9792,2.9792,2.9553,2.8423,2.8109,2.7846,2.6788,2.6499,2.6499,2.6499,2.6499,2.6499,2.6499,2.6021,2.5423,2.4888,2.4356,2.3791,2.3195,2.3108,2.3108,2.3108,2.3108,2.3108,2.3108,2.2171,2.1054,1.9924,1.9798,1.9798,1.9798,1.9798,1.9862,1.999,1.999,2.0054,2.0182,2.0182,2.0182,2.0182,2.0182,2.0131,1.999,1.999,1.999,1.999,1.999,1.999,3.6609,3.7726,3.8718,3.9283,4.0513,4.1467,4.0915,4.1204,4.1342,4.0425,4.0311,4.0415,4.0453,4.0858,4.1471,4.233,4.3088,4.3585,4.3598,4.3585,4.331,4.2552,4.2121,0.0,0.0,0.0,0.0,3.9822,4.0039,4.0069,3.9927,4.0465,4.0696,4.0517,4.0415,4.0096,3.9563,3.9108,3.8391,3.745,3.6958,3.6581,3.6405,3.5994,3.5818,3.5768,3.4851,3.4135,3.3621,3.3432,3.3018,3.2541,3.293,3.3124,3.2998,3.2014,3.1675,3.1574,3.0859,3.062,3.052,2.9967,2.9792,2.9792,2.9792,2.9792,2.9553,2.8423,2.8109,2.7846,2.6788,2.6499,2.6499,2.6499,2.6499,2.6499,2.6499,2.6034,2.5548,2.5372,2.4607,2.3941,2.374,2.3358,2.3108,2.3108,2.3108,2.297,2.2606,2.1945,2.1232,2.0478,2.0037,1.9798,1.9798,1.9888,1.9952,1.999,2.0093,2.0156,2.0207,2.0207,2.0207,2.0207,2.0207,2.0131,1.999,2.008,2.008,1.999,2.008,2.008,3.7279,3.8555,3.9546,3.9898,4.094,4.1668,4.0915,4.1178,4.1307,4.0253,3.9779,3.9658,3.9963,4.0231,4.071,4.1703,4.2827,4.3441,4.3075,4.3337,4.3219,4.2329,4.1794,4.1036,0.0,0.0,0.0,3.906,3.954,3.9868,3.9868,4.0435,4.0808,4.0808,4.0542,4.0121,3.9534,3.9259,3.8589,3.7415,3.6906,3.6593,3.6474,3.5919,3.5475,3.5144,3.4085,3.3181,3.2533,3.2679,3.2441,3.1989,3.2767,3.3124,3.2943,3.18,3.1386,3.1286,3.057,3.0319,3.0269,2.9905,2.9792,2.9792,2.9792,2.9792,2.9591,2.8662,2.826,2.7896,2.7014,2.6637,2.6499,2.6499,2.6499,2.6499,2.6499,2.6197,2.585,2.5636,2.4883,2.423,2.4029,2.3484,2.3108,2.3108,2.3168,2.3009,2.2484,2.2094,2.1605,2.0928,2.051,2.018,1.9952,2.0029,2.0093,2.0169,2.0271,2.0322,2.0398,2.0398,2.0398,2.0398,2.0398,2.0309,2.0182,2.0271,2.0271,2.0169,2.0271,2.0271,3.8002,3.9528,4.0588,4.0563,4.0978,4.1037,3.9986,4.0124,4.0201,3.9297,3.839,3.8027,3.8868,3.8795,3.9181,4.0906,4.22,4.2984,4.2984,4.2997,4.2814,0.0,0.0,0.0,0.0,0.0,0.0,3.8762,0.0,4.037,4.037,4.0971,4.1298,4.1272,4.1008,4.056,3.9915,3.9616,3.8905,3.7855,3.7365,3.6968,3.6696,3.6113,3.5406,3.4613,3.3508,3.239,3.1399,3.1976,3.1888,3.1499,3.2629,3.3124,3.2943,3.18,3.1386,3.1235,3.0168,2.9792,2.9792,2.9792,2.9792,2.9792,2.9792,2.9792,2.9666,2.9051,2.8512,2.8009,2.7431,2.6927,2.6524,2.6499,2.6499,2.6499,2.6499,2.6499,2.6336,2.5749,2.5197,2.4632,2.4054,2.3502,2.3108,2.3138,2.33,2.3213,2.2709,2.262,2.2219,2.1259,2.1105,2.0874,2.0246,2.0207,2.0296,2.0486,2.0511,2.0587,2.0699,2.0724,2.0724,2.0724,2.0724,2.0662,2.0511,2.0537,2.0537,2.0537,2.0537,2.0537,3.8347,4.0205,4.1643,4.1229,4.1543,4.1656,4.0551,4.0255,3.9778,3.8258,3.7041,3.6348,3.6606,3.7079,0.0,3.9155,4.1063,0.0,4.2383,4.2762,0.0,4.229,0.0,4.1324,4.0305,4.0069,0.0,0.0,3.9651,3.9808,3.9808,4.0775,4.1102,4.0657,4.0361,3.9783,3.8834,3.8109,3.7608,3.7326,3.7185,3.6968,3.6684,3.5732,3.4862,3.4048,3.2918,3.1813,3.0884,3.1825,3.1888,3.1499,3.2629,3.3124,3.2943,3.18,3.1386,3.1235,3.0168,2.9792,2.9792,2.9792,2.9792,2.9792,2.9792,2.9792,2.9666,2.9051,2.8787,2.8461,2.7532,2.7216,2.7002,2.66,2.6499,2.6499,2.6499,2.6499,2.6449,2.6298,2.5473,2.4551,2.3692,2.3432,2.336,2.345,2.3509,2.3458,2.323,2.2936,2.2485,2.177,2.1349,2.0874,2.0246,2.0347,2.0436,2.0486,2.0675,2.0825,2.0923,2.0923,2.0923,2.0923,2.0923,2.086,2.0709,2.0934,2.1008,2.1008,2.1106,2.1106,3.8887,4.0715,4.2087,4.148,4.1568,4.1442,4.0099,3.9386,3.855,3.7222,3.5705,3.4813,3.5475,3.5957,3.6789,0.0,0.0,0.0,4.1794,4.2291,4.2435,0.0,4.1794,0.0,4.0501,4.0409,4.0187,0.0,3.9834,3.9965,3.9965,4.0827,4.1036,4.0435,4.0226,3.9631,3.8535,3.7824,3.7459,3.7459,3.7459,3.7307,3.7023,3.591,3.4774,3.3644,0.0,3.141,3.0489,3.1574,3.1839,3.1634,3.2798,3.3197,3.2943,3.18,3.1386,3.1235,3.0168,2.9792,2.9792,2.9792,2.9792,2.9792,2.9792,2.9792,2.9729,2.9402,2.9088,2.87,2.7871,2.7469,2.7178,2.6625,2.6499,2.6499,2.6499,2.6499,2.6411,2.6172,2.5398,2.4576,2.388,2.3568,2.3463,2.3569,2.37,2.37,2.3641,2.3418,2.299,2.2207,2.1845,2.1341,2.0487,2.0524,2.0587,2.0587,2.0812,2.101,2.118,2.118,2.118,2.118,2.118,2.1142,2.1055,2.1337,2.1506,2.1589,2.1684,2.166,3.9449,4.1175,4.212,4.1492,4.1225,4.0724,3.9044,3.7922,3.6925,3.5947,3.4225,3.3303,3.4604,3.4959,3.5796,3.8004,0.0,4.1115,4.1193,4.1625,4.1755,4.1259,4.1193,4.0984,4.0461,4.0488,4.0344,3.9873,4.0278,4.0501,4.0409,4.0984,4.101,4.0331,4.0161,3.9599,3.8606,3.8135,3.79,3.79,3.7821,3.7632,3.735,3.6185,3.4817,3.3233,3.2263,0.0,3.0202,3.136,3.1777,3.181,3.2954,3.3283,3.2943,3.18,3.1386,3.1235,3.0168,2.9792,2.9792,2.9792,2.9792,2.9792,2.9792,2.9792,2.9792,2.9792,2.9428,2.8863,2.8273,2.7745,2.7231,2.6637,2.6499,2.6499,2.6499,2.6499,2.6323,2.5711,2.5234,2.4752,2.431,2.3834,2.3569,2.3641,2.3819,2.392,2.392,2.392,2.3563,2.2608,2.2518,2.2127,2.1077,2.0906,2.0892,2.0917,2.1037,2.1229,2.1496,2.152,2.152,2.152,2.152,2.152,2.152,2.1769,2.2072,2.2325,2.2325,2.2405,3.9958,4.1564,4.2597,4.1539,4.099,4.0099,3.7965,3.6599,0.0,3.3785,3.2353,3.1602,3.228,3.3234,3.4476,3.6266,3.8436,4.0056,4.0501,4.0657,4.0684,0.0,4.0566,0.0,0.0,0.0,0.0,0.0,0.0,4.0945,4.0448,4.0984,4.0827,3.9782,3.8828,3.824,3.8044,3.7952,3.79,3.79,3.7403,3.702,3.6729,3.559,3.4195,3.2717,3.2232,0.0,3.0202,3.1492,3.1911,3.181,3.2954,3.3283,3.2943,3.18,3.1386,3.1235,3.0168,2.9792,2.9792,2.9792,2.9792,2.9792,2.9792,2.9792,2.9792,2.9792,2.9716,2.9402,2.8373,2.8034,2.7708,2.6738,2.6499,2.6499,2.6499,2.6499,2.6323,2.5711,2.5523,2.5244,2.4486,2.4292,2.4166,2.4031,2.4024,2.4054,2.4054,2.4054,2.3822,2.3117,2.3204,2.3066,2.2485,2.2083,2.1943,2.2082,2.183,2.1769,2.2067,2.2067,2.2067,2.2067,2.2067,2.2067,2.2067,2.2324,2.2849,2.3585,2.3585,2.3874,4.0311,4.1656,4.2283,4.1191,4.0275,3.9082,3.6835,0.0,0.0,3.2301,3.0763,2.9993,3.1182,3.1862,3.2986,3.5312,3.7129,3.8553,3.9416,3.9795,0.0,3.9991,4.0239,0.0,0.0,0.0,0.0,0.0,0.0,4.1193,4.0893,4.0592,4.0174,3.9625,3.8501,3.79,3.79,3.79,3.79,3.79,3.7299,3.6797,3.6298,3.5167,3.3856,3.2472,3.1987,0.0,3.0509,3.173,3.2193,3.2175,3.3303,3.3611,3.3259,3.2184,3.1696,3.1451,3.0351,2.9908,2.9792,2.9792,2.9591,2.9402,2.9691,2.9578,2.9402,2.9704,2.9792,2.9528,2.8398,2.8109,2.7821,2.6763,2.6499,2.6499,2.6499,2.6499,2.6411,2.6135,2.5799,2.5522,2.5326,2.4783,2.4445,2.4536,2.4308,2.4083,2.4083,2.4157,2.395,2.3276,2.3433,2.343,2.3043,2.2967,2.2885,2.2768,2.2706,2.2659,2.2578,2.2549,2.2549,2.2549,2.2549,2.2549,2.2563,2.3184,2.3748,2.4263,2.4625,2.495,4.0385,4.1582,4.1949,4.0789,3.9509,3.7927,3.5658,3.3629,3.1913,3.0815,2.9292,2.8625,3.0113,3.0542,3.1483,0.0,3.5626,3.6894,3.8161,3.8867,3.9285,0.0,0.0,0.0,0.0,0.0,0.0,0.0,0.0,0.0,4.1128,4.0161,3.9547,3.9416,3.8436,3.79,3.79,3.79,3.7848,3.7704,3.7103,3.6436,3.5704,3.4685,3.3478,3.2173,3.1746,0.0,0.0,3.2006,3.2498,3.2652,3.3558,3.3769,3.3418,3.2303,3.1773,3.1447,3.0469,2.9972,2.9792,2.9792,2.9402,2.9001,2.9616,2.939,2.9013,2.9628,2.9792,2.9528,2.8398,2.8109,2.7821,2.6763,2.6499,2.6499,2.6499,2.6499,2.6499,2.6499,2.6122,2.587,2.6054,2.5346,2.4805,2.4971,2.4596,2.4256,2.4109,2.4232,2.4149,2.3644,2.3842,2.3973,2.3793,2.3955,2.3957,2.3674,2.3774,2.3701,2.3431,2.3402,2.3402,2.3402,2.3402,2.3402,2.3424,2.4172,2.472,2.5038,2.5561,2.5899,4.0096,4.1287,4.1949,4.0789,3.8919,3.6759,3.455,0.0,2.9961,2.8883,2.7982,2.7587,2.8261,2.8973,3.0032,3.1823,3.3561,3.5221,3.692,3.7678,3.824,3.8736,0.0,0.0,0.0,0.0,0.0,0.0,0.0,0.0,4.0501,3.9926,3.9364,3.8815,3.8214,3.79,3.79,3.79,3.7625,3.7077,3.6475,3.5613,3.4541,3.394,3.2892,3.1578,3.1733,0.0,0.0,3.2345,3.2839,3.3129,3.3232,3.316,3.2826,3.1701,3.1173,3.0899,3.0291,2.9972,2.9792,2.9792,2.9402,2.9001,2.9616,2.939,2.9013,2.9628,2.9792,2.9528,2.8398,2.8109,2.7821,2.6763,2.6499,2.6499,2.6499,2.6499,2.6499,2.6499,2.6449,2.635,2.6131,2.6017,2.5736,2.5088,2.4953,2.473,2.4178,2.4305,2.4553,2.4811,2.498,2.5232,2.5616,2.5402,2.5317,2.5528,2.5179,2.4998,2.5073,2.5073,2.5073,2.5073,2.5073,2.5073,2.5073,2.5236,2.5667,2.6408,2.6467,2.6811,3.8497,3.9546,3.9925,3.8988,3.7204,3.5203,3.3319,3.1145,2.9327,2.8542,2.7806,2.747,2.8019,2.8478,2.9301,3.1039,3.2189,3.3416,3.5195,3.6227,3.7037,3.7612,0.0,0.0,0.0,0.0,0.0,0.0,0.0,0.0,3.9429,3.9181,3.8958,3.8723,3.8187,3.79,3.79,3.7547,3.7063,3.6449,3.5521,3.4476,3.3352,3.279,3.2045,3.1225,3.1615,0.0,0.0,3.2802,3.3338,3.3452,3.3452,3.3383,3.3159,3.1993,3.137,3.1007,3.0458,3.0075,2.9792,2.9792,2.9402,2.9001,2.9616,2.939,2.9013,2.9628,2.9792,2.9603,2.8775,2.8109,2.7494,2.709,2.6738,2.6499,2.6499,2.6499,2.6499,2.6499,2.6499,2.6526,2.6637,2.6337,2.6084,2.6028,2.5437,2.4913,2.4661,2.4646,2.4808,2.5203,2.5467,2.5839,2.6338,2.6451,2.6429,2.6283,2.6105,2.5866,2.5488,2.5473,2.5473,2.5473,2.5473,2.5473,2.5473,2.5908,2.6284,2.6602,2.7016,2.7345,3.6681,3.7971,3.8647,3.7899,3.6198,3.4336,3.2817,3.0613,2.8783,2.838,2.7723,2.733,2.7696,2.7967,2.8582,2.998,3.0843,3.1836,3.3417,3.4776,3.5822,0.0,0.0,0.0,0.0,0.0,0.0,0.0,0.0,0.0,0.0,3.8553,3.8462,3.8462,3.8109,3.79,3.79,3.7312,3.6619,3.5848,3.4868,3.3705,3.2424,3.198,3.1575,3.1261,0.0,0.0,0.0,3.3247,3.3692,3.3796,3.3456,3.3326,3.3182,3.2019,3.1319,3.0906,3.0535,3.0152,2.9792,2.9792,2.9515,2.9264,2.9666,2.939,2.9013,2.9628,2.9666,2.9453,2.9001,2.8235,2.7494,2.7318,2.7014,2.6688,2.6524,2.6499,2.6499,2.6499,2.6499,2.6602,2.6875,2.6565,2.6332,2.657,2.5931,2.5323,2.5044,2.5069,2.5238,2.5481,2.5892,2.6338,2.6814,2.7089,2.7168,2.6916,2.6911,2.6677,2.6213,2.6183,2.6183,2.6183,2.6183,2.6183,2.6183,2.6686,2.6911,2.6926,2.7375,2.76,3.4899,3.7049,3.8681,3.8133,3.6327,3.4437,3.3319,3.0495,2.8109,2.8109,2.7525,2.699,2.699,2.7281,2.7699,2.8307,2.9392,3.0518,3.1667,3.3339,0.0,0.0,0.0,0.0,0.0,0.0,0.0,0.0,0.0,0.0,0.0,3.82,3.7913,3.7913,3.79,3.79,3.79,3.7312,3.6436,3.5299,3.4685,3.3509,3.181,3.1797,3.1797,0.0,0.0,0.0,0.0,3.3587,3.3901,3.428,3.3143,3.2698,3.2568,3.1418,3.0761,3.0406,3.0406,3.0152,2.9792,2.9792,2.9792,2.9779,2.9792,2.939,2.9013,2.9628,2.9377,2.89,2.8888,2.8511,2.7959,2.7419,2.7316,2.7165,2.6612,2.6499,2.6499,2.6499,2.6499,2.6521,2.6692,2.6714,2.6625,2.6419,2.6382,2.6032,2.5118,2.5517,2.5873,2.5798,2.6336,2.6841,2.7181,2.731,2.7463,2.7585,2.7585,2.7585,2.757,2.757,2.757,2.757,2.757,2.757,2.757,2.7585,2.7585,2.7585,2.76,2.76,3.2616,3.429,3.5451,3.5317,3.4107,3.2729,3.1637,2.9691,2.7996,2.762,2.7246,2.699,2.699,2.7268,2.7686,2.8281,2.9039,3.0085,0.0,0.0,0.0,0.0,0.0,0.0,0.0,0.0,0.0,0.0,0.0,0.0,0.0,3.7991,3.79,3.79,3.79,3.79,3.79,3.6894,3.5809,3.4672,3.3692,3.2542,3.1274,3.1628,0.0,0.0,0.0,0.0,0.0,3.3992,3.4241,3.428,3.3143,3.2685,3.2555,3.1405,3.0748,3.0406,3.0406,3.0152,2.9729,2.934,2.9265,2.9302,2.8949,2.9177,2.9553,2.9741,2.9666,2.9515,2.9515,2.8812,2.8059,2.7883,2.7304,2.6713,2.6537,2.6499,2.6499,2.6499,2.6499,2.6521,2.6692,2.6794,2.6947,2.7122,2.6922,2.6735,2.6725,2.6402,2.6311,2.672,2.6852,2.7052,2.7448,2.7499,2.7549,2.76,2.76,2.76,2.76,2.76,2.76,2.76,2.76,2.76,2.76,2.76,2.76,2.76,2.76,2.76,3.0451,3.2357,3.3583,3.3387,3.2605,3.1625,3.0545,2.9001,2.7695,2.7356,2.7132,2.699,2.699,2.71,2.7392,2.7968,2.8556,2.947,0.0,0.0,0.0,0.0,0.0,0.0,0.0,0.0,0.0,0.0,0.0,0.0,3.7926,3.79,3.79,3.79,3.79,3.7795,3.7573,3.6593,3.543,3.4084,3.3143,3.2084,3.0999,3.1536,0.0,0.0,0.0,0.0,0.0,3.4254,3.428,3.4005,3.3064,3.2555,3.2254,3.1326,3.0748,3.0406,3.0406,3.0152,2.9691,2.9076,2.8849,2.8734,2.8491,2.8936,2.958,2.9465,2.9616,2.9792,2.9792,2.9101,2.836,2.816,2.7419,2.6751,2.6537,2.6499,2.6499,2.6499,2.6499,2.6521,2.6624,2.676,2.7032,2.7523,2.7439,2.7445,2.7785,2.7497,2.7312,2.7379,2.7426,2.7473,2.759,2.76,2.76,2.76,2.76,2.76,2.76,2.76,2.76,2.76,2.76,2.76,2.76,2.76,2.76,2.76,2.76,2.7735,0.0,3.0962,3.2683,3.2211,3.1682,3.0997,2.9967,2.8461,0.0,2.7231,2.7094,2.699,2.699,2.6874,2.6922,2.7464,2.8072,2.8869,0.0,3.2254,0.0,0.0,0.0,0.0,0.0,0.0,0.0,0.0,0.0,0.0,3.79,3.79,3.7887,3.7848,3.7848,3.7547,3.6946,3.6305,3.5155,3.3522,3.296,3.211,3.1065,3.1641,0.0,0.0,0.0,0.0,0.0,3.4358,3.4045,3.3535,3.2881,3.2306,3.1732,3.1196,3.0748,3.0406,3.0406,3.0152,2.973,2.9076,2.8473,2.8033,2.8227,2.8694,2.9138,2.8963,2.934,2.9792,2.9792,2.934,2.87,2.8235,2.7657,2.7115,2.66,2.6499,2.6499,2.6499,2.6499,2.6499,2.6499,2.6658,2.7019,2.7743,2.7973,2.8214,2.8488,2.8768,2.8668,2.794,2.8121,2.8147,2.7769,2.7645,2.76,2.76,2.76,2.76,2.76,2.76,2.76,2.76,2.76,2.76,2.76,2.76,2.76,2.76,2.76,2.7959,2.7157,0.0,3.0746,3.1252,3.077,2.998,0.0,2.8172,2.719,2.6776,2.6862,2.699,2.699,2.7165,2.751,2.8085,2.8673,2.9627,3.1184,0.0,0.0,0.0,0.0,0.0,0.0,0.0,0.0,0.0,0.0,3.79,3.79,3.79,3.7691,3.7233,3.722,3.692,3.6319,3.5312,3.4162,3.2894,3.2764,3.2319,3.1641,3.2712,3.3247,0.0,0.0,0.0,3.4358,3.3953,3.3705,3.3483,3.245,3.1915,3.1732,3.1196,3.0836,3.0622,3.0622,3.0356,2.9846,2.8859,2.7824,2.705,2.7085,2.7965,2.8963,2.8925,2.934,2.9792,2.9792,2.9051,2.8273,2.8134,2.7369,2.665,2.6524,2.6499,2.6499,2.6499,2.6589,2.6658,2.6658,2.7154,2.7676,2.8137,2.8643,2.916,2.9626,2.9545,2.945,2.9531,2.9284,2.9131,2.9131,2.8184,2.76,2.76,2.76,2.76,2.76,2.76,2.76,2.76,2.76,2.76,2.76,2.76,2.76,2.76,2.76,2.7959,2.634,2.8077,2.9541,2.9957,2.9564,2.8875,2.831,2.7306,2.6427,2.616,2.6163,2.6306,2.6575,2.6926,2.7406,2.8276,2.9104,0.0,0.0,0.0,0.0,0.0,0.0,0.0,0.0,0.0,0.0,0.0,0.0,3.79,3.79,3.7639,3.7338,3.7011,3.6488,3.5926,3.5325,3.4986,3.4097,3.2685,3.2973,3.2803,3.2228,3.3182,3.3587,0.0,0.0,0.0,3.4358,3.3809,3.343,3.3091,3.215,3.1641,3.1418,3.1104,3.0874,3.0698,3.0698,3.0086,2.9237,2.8616,2.7582,2.6624,2.6692,2.7397,2.8235,2.8473,2.8963,2.9453,2.9729,2.9139,2.8423,2.816,2.7457,2.6801,2.6549,2.6499,2.6499,2.6499,2.6624,2.6782,2.704,2.7543,2.8124,2.8885,2.9373,2.9901,3.0583,3.0499,3.0352,3.0285,3.0056,2.9824,2.9609,2.8933,2.8528,2.8528,2.8528,2.8528,2.8528,2.8528,2.8528,2.8528,2.8528,2.8528,2.8528,2.8528,2.8528,2.8528,2.8528,2.8846,2.5875,2.7625,2.8913,2.9001,2.8712,2.8222,2.7657,2.6666,2.585,2.585,2.5686,2.5743,2.6365,2.683,0.0,2.8595,0.0,0.0,3.4868,3.5757,0.0,0.0,0.0,0.0,0.0,0.0,0.0,0.0,0.0,3.7861,3.7769,3.7286,3.692,3.675,3.5796,3.492,3.4149,3.4737,3.4201,3.2568,3.326,3.3326,3.2855,3.3443,3.3718,3.3744,0.0,0.0,3.4345,3.3718,3.3156,3.262,3.1967,3.1418,3.0986,3.0986,3.0874,3.0723,3.0594,2.9672,2.8471,2.8348,2.7518,2.6589,2.6692,2.6952,2.7316,2.7921,2.8499,2.9026,2.9641,2.9365,2.8775,2.8348,2.7745,2.719,2.6725,2.6549,2.6499,2.6499,2.6624,2.6918,2.7451,2.7861,2.8514,2.9623,3.0007,3.0433,3.1131,3.1263,3.1127,3.066,3.0629,3.0447,2.9924,2.9879,2.9879,2.9879,2.9726,2.9606,2.9606,2.9606,2.9606,2.9606,2.9606,2.9606,2.9606,2.9606,2.9606,2.9606,2.9606,2.9909,2.5875,2.7625,2.9013,2.9528,2.9591,2.9377,2.8775,2.7821,2.7017,2.7017,2.6866,2.6921,2.7533,2.8334,2.9284,0.0,0.0,3.3587,0.0,0.0,0.0,0.0,0.0,0.0,0.0,0.0,0.0,0.0,0.0,0.0,3.7168,3.705,3.6567,3.5587,3.5391,3.4541,3.2973,3.3548,3.3221,3.1941,3.3077,3.3548,3.347,3.4018,3.428,3.428,0.0,3.4397,3.4319,3.326,3.2777,3.2581,3.1535,3.1065,3.0986,3.0986,3.0986,3.0846,3.0153,2.9471,2.8802,2.81,2.7455,2.6909,2.676,2.6743,2.6965,2.7857,2.8499,2.9026,2.9641,2.9365,2.8863,2.8787,2.8021,2.7291,2.7168,2.6826,2.6499,2.6499,2.6739,2.71,2.7643,2.8254,2.8917,2.9685,3.0221,3.0598,3.0851,3.1102,3.1277,3.1202,3.1289,3.1316,3.1212,3.1212,3.1212,3.1212,3.0193,2.9606,2.9606,2.9606,2.9606,2.9606,2.9606,2.9606,2.9606,2.9606,2.9606,2.9606,2.9606,2.9909,2.5499,2.7406,2.895,2.9252,2.9779,3.008,2.9528,2.8524,2.7645,2.7379,2.705,0.0,0.0,0.0,3.0769,3.2973,0.0,3.492,0.0,0.0,0.0,0.0,0.0,0.0,0.0,0.0,0.0,0.0,0.0,0.0,3.7024,3.6423,3.5835,3.5312,3.4698,3.3835,3.2698,3.2973,3.2672,3.181,3.2698,3.3104,3.3117,3.3705,3.3966,3.3979,0.0,3.4228,3.3901,3.3038,3.2515,3.215,3.1313,3.0986,3.0986,3.0986,3.0986,3.0947,3.0462,2.9908,2.9342,2.8867,2.8164,2.746,2.724,2.6955,2.6886,2.7832,2.8285,2.8687,2.9566,2.9591,2.9315,2.8963,2.8499,2.8009,2.7419,2.7115,2.6851,2.6549,2.6773,2.7235,2.8045,2.861,2.9261,3.019,3.0538,3.0762,3.0955,3.1102,3.1205,3.1278,3.1351,3.1409,3.1511,3.1511,3.1511,3.1511,3.0943,3.0642,3.0642,3.0642,3.0642,3.0642,3.0642,3.0642,3.0642,3.0642,3.0642,3.0642,3.0642,3.0791,2.5218,2.7029,2.8574,2.8825,2.974,3.0507,3.008,2.9214,2.8423,2.8122,0.0,0.0,0.0,3.0265,0.0,3.4852,3.5299,0.0,0.0,0.0,0.0,0.0,0.0,0.0,0.0,0.0,0.0,0.0,0.0,0.0,3.6619,3.577,3.5168,3.4907,3.4058,3.3234,3.2502,3.2489,3.228,3.181,3.2411,3.2685,3.2712,3.3313,3.3587,3.3613,3.4031,3.3979,3.3535,3.279,3.2241,3.1745,3.1209,3.0986,3.0986,3.0986,3.0986,3.0973,3.0655,3.0268,2.9829,2.9529,2.8898,2.8164,2.78,2.7385,2.7163,2.779,2.8082,2.841,2.9541,2.9792,2.9679,2.9239,2.8988,2.8662,2.7846,2.7469,2.719,2.6763,2.6862,2.7323,2.8344,2.8835,2.9519,3.0771,3.0951,3.1069,3.1395,3.1337,3.1338,3.1456,3.1382,3.1351,3.1511,3.1511,3.1511,3.1511,3.1511,3.1511,3.1511,3.1511,3.1511,3.1511,3.1511,3.1511,3.1511,3.1511,3.1511,3.1511,3.1511,3.1511,2.517,2.6493,2.7645,2.8637,2.974,3.0608,3.057,3.0093,2.9804,3.0281,0.0,0.0,0.0,3.197,3.3509,3.5048,3.5299,0.0,0.0,0.0,0.0,0.0,0.0,0.0,0.0,0.0,0.0,0.0,0.0,0.0,3.5482,3.5338,3.4816,3.3744,3.3639,3.3051,3.1876,3.1863,3.1836,3.181,3.2411,3.2685,3.2712,3.3313,3.3587,3.3587,3.3639,3.3626,3.3496,3.2332,3.1836,3.1745,3.1209,3.0986,3.0986,3.0986,3.0986,3.0908,3.0348,3.0127,3.0009,2.9474,2.9252,2.9082,2.8278,2.8014,2.7945,2.7685,2.7984,2.8606,2.9541,2.9792,2.9779,2.9741,2.9315,2.8863,2.8787,2.8009,2.7268,2.7231,2.7094,2.7323,2.8344,2.8835,2.9628,3.1211,3.1453,3.1671,3.2326,3.2032,3.1805,3.1942,3.1575,3.1351,3.1511,3.1511,3.1511,3.1511,3.1511,3.1511,3.1511,3.1511,3.1511,3.1511,3.1511,3.1511,3.1511,3.1511,3.1511,3.1511,3.1511,3.1511,2.4918,2.6248,2.7469,2.8235,2.9264,3.0193,3.0532,3.0972,3.1361,3.1562,3.1465,0.0,0.0,0.0,3.4469,3.5622,0.0,0.0,0.0,0.0,0.0,0.0,0.0,0.0,0.0,0.0,0.0,0.0,0.0,0.0,0.0,3.4933,3.4384,3.3613,3.3234,3.2646,3.181,3.1445,3.1313,3.1313,3.1888,3.2124,3.2163,3.3156,3.3391,3.3051,3.343,3.3169,3.2437,3.1993,3.1588,3.1287,3.1065,3.0986,3.0986,3.0986,3.0986,3.096,3.0738,3.066,3.0634,3.0411,2.9862,2.9235,2.8789,2.8148,2.7601,2.7592,2.7741,2.8124,2.9013,2.9528,2.9792,2.9792,2.9628,2.9365,2.8963,2.8562,2.821,2.7858,2.7954,2.8386,2.943,2.9959,3.0648,3.1948,3.2104,3.2191,3.2452,3.2358,3.2178,3.2029,3.1664,3.1438,3.1511,3.1511,3.1511,3.1511,3.1511,3.1511,3.1511,3.1511,3.1511,3.1511,3.1511,3.1511,3.1511,3.1511,3.1511,3.1511,3.1511,3.1511,2.4898,2.5903,2.6929,2.7657,2.8687,2.9716,3.0444,3.1587,3.2541,3.2704,3.2742,3.2819,3.3091,0.0,0.0,0.0,0.0,0.0,0.0,0.0,0.0,0.0,0.0,0.0,0.0,0.0,0.0,0.0,0.0,0.0,0.0,3.48,3.4153,3.3326,3.2908,3.2333,3.1536,3.1365,3.1169,3.0999,3.1744,3.1967,3.1836,3.2855,3.3077,3.2698,3.2934,3.2541,3.1784,3.1602,3.1339,3.0986,3.0986,3.0986,3.0986,3.0986,3.0986,3.096,3.0777,3.0725,3.0686,3.0503,2.9951,2.9248,2.8898,2.8252,2.7613,2.7467,2.7519,2.7776,2.8246,2.8963,2.9566,2.9741,2.9792,2.9679,2.9289,2.9089,2.8887,2.851,2.8733,2.9271,3.0241,3.0779,3.1466,3.2645,3.2817,3.289,3.3093,3.2933,3.2625,3.2073,3.1842,3.1662,3.1525,3.1511,3.1511,3.1511,3.1511,3.1511,3.1511,3.1511,3.1511,3.1511,3.1511,3.1511,3.1511,3.1511,3.1511,3.1511,3.1511,3.1615,2.5158,2.5446,2.5887,2.7017,2.8134,2.9201,3.0369,3.1901,3.3244,3.3796,3.3897,3.3852,3.373,3.367,0.0,0.0,0.0,0.0,0.0,0.0,0.0,0.0,0.0,0.0,0.0,0.0,0.0,0.0,0.0,0.0,0.0,3.4921,3.4133,3.2725,3.2685,3.2136,3.0999,3.151,3.151,3.0999,3.2136,3.2385,3.1823,3.2424,3.2685,3.2659,3.2045,3.1797,3.1745,3.1222,3.0986,3.0986,3.0986,3.0986,3.0986,3.0986,3.0986,3.0895,3.0309,3.0113,3.0009,2.9483,2.9323,2.9205,2.8603,2.842,2.8186,2.7267,2.7396,2.7701,2.7387,2.8097,2.9026,2.9641,2.9792,2.9792,2.9792,2.9479,2.9212,2.9212,2.9437,2.9824,3.0508,3.1129,3.1966,3.3318,3.3518,3.3736,3.4327,3.3862,3.3106,3.2132,3.2122,3.202,3.1541,3.1511,3.1511,3.1511,3.1511,3.1511,3.1511,3.1511,3.1511,3.1511,3.1511,3.1511,3.1511,3.1511,3.1511,3.1511,3.1511,3.1869,2.5286,2.6151,2.7055,2.816,0.0,0.0,0.0,3.2729,0.0,0.0,3.4173,3.3695,3.2992,0.0,0.0,0.0,0.0,0.0,0.0,0.0,0.0,0.0,0.0,0.0,0.0,0.0,0.0,0.0,0.0,0.0,0.0,3.4794,3.3873,3.2764,3.2306,3.1731,3.0999,3.1156,3.1156,3.0999,3.1744,3.1967,3.1823,3.2424,3.2476,3.2045,3.1876,3.1575,3.1222,3.1052,3.0986,3.0986,3.0986,3.0986,3.0986,3.0986,3.0986,3.096,3.079,3.0725,3.0712,3.0529,2.9928,2.9284,2.91,2.8369,2.7556,2.713,2.7024,2.7056,2.7251,2.7532,2.8009,2.8925,2.9503,2.9792,2.9792,2.9807,2.9961,3.0324,3.0677,3.1249,3.2263,3.2742,3.3237,3.4042,3.4124,3.4196,3.4385,3.3947,3.3524,3.324,3.2592,3.2139,3.2005,3.1677,3.1511,3.1511,3.1511,3.1511,3.1511,3.1511,3.1511,3.1511,3.1511,3.1511,3.1511,3.1511,3.1511,3.1511,3.1974,3.2303,2.5495,2.6664,2.7871,2.8988,3.0105,3.1273,3.2591,0.0,0.0,0.0,3.4135,3.3664,3.2984,3.317,0.0,0.0,0.0,0.0,0.0,0.0,0.0,0.0,0.0,0.0,0.0,0.0,0.0,0.0,0.0,0.0,0.0,3.4806,3.3807,3.2751,3.2359,3.2006,3.1666,3.1666,3.1548,3.1326,3.1641,3.168,3.1522,3.2097,3.2124,3.1797,3.1562,3.13,3.0986,3.0986,3.0986,3.0986,3.0986,3.0986,3.0986,3.0986,3.0986,3.096,3.0725,3.0647,3.0607,3.0385,2.968,2.8922,2.8864,2.8109,2.7235,2.6977,2.6794,2.6721,2.6936,2.7153,2.7507,2.8398,2.9064,2.9555,2.9555,3.0101,3.0697,3.1057,3.1649,3.234,3.3206,3.3618,3.3942,3.4346,3.4414,3.4414,3.4414,3.4166,3.3915,3.3718,3.3145,3.2727,3.2598,3.2348,3.2214,3.2288,3.2288,3.2288,3.2288,3.178,3.1511,3.1511,3.1511,3.1511,3.1511,3.1511,3.1645,3.1914,3.2303,3.2796,2.575,2.7021,2.8411,2.9591,3.0708,0.0,3.347,3.3822,3.3847,3.3884,0.0,3.3715,3.3444,0.0,0.0,0.0,0.0,0.0,0.0,0.0,0.0,0.0,0.0,0.0,0.0,0.0,0.0,0.0,0.0,0.0,0.0,3.4864,3.3926,3.2751,3.2646,3.262,3.262,3.262,3.2333,3.1732,3.1732,3.1445,3.0999,3.1484,3.1732,3.1693,3.1209,3.0986,3.0986,3.0986,3.0986,3.0986,3.0986,3.0986,3.0986,3.0986,3.0986,3.0908,3.0348,3.0179,3.0087,2.9601,2.9022,2.843,2.8222,2.776,2.7201,2.6829,2.6679,2.6658,2.6521,2.6864,2.7366,2.7869,2.8583,2.9212,2.9274,3.0357,3.1371,3.1626,3.2426,3.3199,3.3597,3.3908,3.4196,3.438,3.4414,3.4414,3.4414,3.4414,3.4249,3.3817,3.3732,3.3583,3.3263,3.3222,3.3285,3.3454,3.3499,3.3499,3.3499,3.2318,3.1645,3.1585,3.1585,3.157,3.1511,3.157,3.1899,3.2512,3.2647,3.3335,2.5605,2.7198,0.0,3.0116,3.1587,3.2847,3.3169,3.3257,3.337,3.3809,3.3558,3.3262,0.0,0.0,0.0,0.0,0.0,0.0,0.0,0.0,0.0,0.0,0.0,0.0,0.0,0.0,0.0,0.0,0.0,0.0,3.5989,3.4791,3.3681,3.2738,3.2254,3.198,3.198,3.198,3.1731,0.0,3.1169,3.1104,3.0986,3.1117,3.1169,3.1169,3.1039,3.0986,3.0986,3.0986,3.0986,3.0986,3.0986,3.0986,3.0986,3.0986,3.0986,3.096,3.0843,3.0803,3.0777,3.066,2.9928,2.9078,2.8853,2.798,2.7011,2.676,2.6624,2.6521,2.6499,2.6643,2.686,2.6987,2.8136,2.9311,2.9792,3.0713,3.1736,3.2648,3.3185,3.3632,3.4128,3.4312,3.4346,3.438,3.4414,3.4414,3.4414,3.4414,3.4356,3.4244,3.3911,3.3662,3.3595,3.3364,3.3223,3.3254,3.3392,3.3499,3.3499,3.3215,3.2826,3.2288,3.2273,3.2019,3.1511,3.2019,3.2348,3.2542,3.3574,3.4234,2.5416,0.0,0.0,3.127,0.0,3.3124,3.3124,3.3124,3.3156,3.3445,3.3269,0.0,0.0,0.0,0.0,0.0,0.0,0.0,0.0,0.0,0.0,0.0,0.0,0.0,0.0,0.0,0.0,0.0,0.0,3.6454,3.5837,3.4942,3.4133,3.3423,3.2817,3.2645,3.2935,3.2266,3.1756,3.1392,3.1117,3.0986,3.0986,3.0986,3.0986,3.0986,3.0986,3.0986,3.0986,3.0986,3.0986,3.0986,3.0986,3.0986,3.0986,3.0986,3.0986,3.0986,3.0986,3.0986,3.0934,3.066,2.998,2.9222,2.8724,2.7885,2.7079,2.6794,2.6658,2.6589,2.6521,2.6589,2.6748,2.704,2.8273,2.9512,2.9881,3.1155,3.2461,3.3241,3.3618,3.3942,3.4346,3.4414,3.4414,3.4414,3.4414,3.4414,3.4414,3.4414,3.4414,3.4414,3.4176,3.4072,3.4171,3.4077,3.4046,3.4142,3.4362,3.4457,3.4457,3.4457,3.3993,3.3006,3.2677,3.2497,3.2452,3.2497,3.2841,3.3469,3.4189,3.4683,2.5105,0.0,2.9635,3.2273,3.293,0.0,3.293,3.2855,3.2822,3.2822,0.0,0.0,0.0,0.0,0.0,0.0,0.0,0.0,0.0,0.0,0.0,0.0,0.0,0.0,0.0,0.0,0.0,0.0,0.0,3.5871,3.5275,3.4804,3.4412,3.4019,3.3524,3.3511,3.3979,3.2773,3.1976,3.1654,3.1209,3.0986,3.0986,3.0986,3.0986,3.0986,3.0986,3.0986,3.0986,3.0986,3.0986,3.0986,3.0986,3.0986,3.0986,3.0986,3.0986,3.0986,3.0986,3.0986,3.0895,3.0283,2.9745,2.9134,2.8326,2.7721,2.7201,2.6863,2.676,2.6726,2.6636,2.6726,2.7019,2.7484,2.8696,2.9795,3.0035,3.1577,3.3073,3.3638,3.3942,3.4196,3.438,3.4414,3.4414,3.4414,3.4414,3.4414,3.4414,3.4414,3.4414,3.4414,3.4414,3.4481,3.4631,3.4817,3.4968,3.5148,3.5359,3.5504,3.5504,3.5504,3.4981,3.3858,3.32,3.3066,3.3499,3.3066,3.341,3.4503,3.4638,3.4966,2.4511,0.0,3.0443,0.0,3.2328,3.2328,0.0,0.0,3.1612,0.0,0.0,0.0,0.0,0.0,0.0,0.0,0.0,0.0,0.0,0.0,0.0,0.0,0.0,0.0,0.0,0.0,0.0,0.0,3.534,3.4821,3.4167,3.3615,3.3295,3.3141,3.306,3.3098,3.3141,3.2615,3.1955,3.1104,3.1013,3.0986,3.0986,3.0986,3.0986,3.0986,3.0986,3.0986,3.0986,3.0986,3.0986,3.0986,3.0986,3.0986,3.0986,3.0986,3.0986,3.0986,3.0986,3.0986,3.0895,3.0283,2.9745,2.9134,2.8326,2.7721,2.7235,2.7011,2.6943,2.6943,2.6956,2.7302,2.7709,2.7908,2.9108,3.0391,3.1118,3.1991,3.2979,3.4095,3.4346,3.438,3.4414,3.4414,3.4414,3.4414,3.4414,3.4414,3.4414,3.4414,3.4414,3.4414,3.4414,3.4414,3.4448,3.4702,3.4902,3.4935,3.5294,3.5504,3.5504,3.5504,3.5429,3.525,3.4562,3.3978,3.3499,3.3978,3.4339,3.4518,3.51,3.5415,2.4731,2.7558,3.0099,0.0,3.2215,3.2215,3.2215,0.0,0.0,0.0,0.0,0.0,0.0,0.0,0.0,0.0,0.0,0.0,0.0,0.0,0.0,0.0,0.0,0.0,0.0,0.0,0.0,0.0,3.4578,3.4435,3.4262,3.4142,3.4103,3.4163,3.3735,3.3431,3.3344,3.2637,3.1984,3.1336,3.136,3.1272,3.1161,3.1061,3.0986,3.0986,3.0986,3.0986,3.0986,3.0986,3.0986,3.0986,3.0986,3.0986,3.0986,3.0986,3.0986,3.0986,3.0986,3.0986,3.0843,2.9954,2.9483,2.9104,2.7997,2.753,2.7436,2.7436,2.749,2.7702,2.8239,2.8619,2.9064,2.9781,3.0281,3.0944,3.2329,3.2792,3.3231,3.4216,3.4704,3.4835,3.4472,3.4704,3.482,3.4472,3.4414,3.4414,3.4414,3.4414,3.4414,3.4414,3.4414,3.4414,3.4414,3.4702,3.4902,3.4902,3.5294,3.5504,3.5504,3.5504,3.5504,3.5504,3.4831,3.4548,3.4622,3.4548,3.4698,3.5055,3.537,3.5504,0.0,0.0,2.895,3.0795,3.1364,3.146,0.0,0.0,0.0,0.0,0.0,0.0,0.0,0.0,0.0,0.0,0.0,0.0,0.0,0.0,0.0,0.0,0.0,0.0,0.0,0.0,0.0,0.0,3.396,3.4142,3.4367,3.4487,3.466,3.4879,3.4225,3.3756,3.3512,3.2613,3.2009,3.1743,3.174,3.1579,3.1384,3.1123,3.0986,3.0986,3.0986,3.0986,3.0986,3.0986,3.0986,3.0986,3.0986,3.0986,3.0986,3.0986,3.0986,3.0986,3.0986,3.0986,3.0817,2.9823,2.9428,2.9127,2.8004,2.7687,2.7756,2.7954,2.8211,2.8623,2.9405,2.9901,3.038,3.1349,3.1353,3.1572,3.2956,3.3372,3.3667,3.4279,3.4791,3.5,3.4501,3.4806,3.5,3.4486,3.4414,3.4414,3.4414,3.4414,3.4414,3.4414,3.4414,3.4414,3.4414,3.4702,3.4902,3.4902,3.5294,3.5504,3.5504,3.5504,3.5504,3.5504,3.4996,3.4996,3.5504,3.4996,3.4996,3.5504,3.5504,3.5504,0.0,2.5015,0.0,2.8285,2.8989,0.0,0.0,0.0,0.0,0.0,0.0,0.0,0.0,0.0,0.0,0.0,0.0,0.0,0.0,0.0,0.0,0.0,0.0,0.0,0.0,0.0,0.0,0.0,3.3649,3.3711,3.4111,3.3966,3.3985,3.4346,3.3985,3.3626,3.3234,3.2497,3.2101,3.2055,3.2064,3.1882,3.1556,3.1161,3.0986,3.0986,3.0986,3.0986,3.0986,3.0986,3.0986,3.0986,3.0986,3.0986,3.0986,3.0986,3.0986,3.0986,3.0986,3.0986,3.0882,3.0244,2.9791,2.9368,2.8797,2.8459,2.83,2.849,2.9125,2.9759,2.9923,3.0694,3.1453,3.1631,3.1958,3.2291,3.2478,3.3481,3.4337,3.438,3.4443,3.4443,3.4414,3.4443,3.4443,3.4414,3.4414,3.4414,3.4414,3.4414,3.4414,3.4414,3.4414,3.4414,3.4414,3.4702,3.4902,3.4902,3.5294,3.5504,3.5504,3.5504,3.5504,3.5504,3.5474,3.5474,3.5504,3.5474,3.5474,3.5504,3.5504,3.5504,0.0,0.0,0.0,2.645,2.7249,2.7878,0.0,0.0,0.0,0.0,0.0,0.0,0.0,0.0,0.0,0.0,0.0,0.0,0.0,0.0,0.0,0.0,0.0,0.0,0.0,0.0,0.0,0.0,0.0,3.3401,3.3874,3.4091,3.4337,3.4658,3.4351,3.3957,3.3458,3.3094,3.2797,3.2668,3.2547,3.2237,3.1767,3.1248,3.0986,3.0986,3.0986,3.0986,3.0986,3.0986,3.0986,3.0986,3.0986,3.0986,3.0986,3.0986,3.0986,3.1039,3.1405,3.1497,3.1406,3.0869,3.075,3.0684,2.984,2.9706,2.9947,3.0461,3.0811,3.1209,3.2013,3.2495,3.2813,3.2832,3.3262,3.355,3.3224,3.3804,3.4414,3.4414,3.4748,3.4893,3.4486,3.4762,3.4893,3.4472,3.4414,3.4414,3.4414,3.4414,3.4414,3.4414,3.4414,3.4414,3.4414,3.4616,3.4817,3.4902,3.5148,3.5359,3.5504,3.5504,3.5504,3.5504,3.5504,3.5504,3.5504,3.5504,3.5504,3.5504,3.5504,3.5504,2.1145,0.0,0.0,0.0,0.0,2.6075,0.0,0.0,0.0,0.0,0.0,0.0,0.0,0.0,0.0,0.0,0.0,0.0,0.0,0.0,0.0,0.0,0.0,0.0,0.0,0.0,0.0,0.0,0.0,0.0,3.3948,3.4351,3.4668,3.4902,3.4553,3.423,3.3868,3.3722,3.35,3.3269,3.3009,3.2561,3.195,3.1323,3.0986,3.0986,3.0986,3.0986,3.0986,3.0986,3.0986,3.0986,3.0986,3.0986,3.0986,3.0986,3.1104,3.1326,3.168,3.1967,3.2096,3.1647,3.1641,3.1734,3.0899,3.0877,3.1163,3.1646,3.1999,3.2387,3.3274,3.3663,3.3823,3.3823,3.4109,3.4298,3.3877,3.4124,3.4414,3.4414,3.4762,3.4907,3.4486,3.4762,3.4893,3.4472,3.4414,3.4414,3.4414,3.4603,3.4733,3.4733,3.4922,3.4965,3.4748,3.4903,3.4936,3.485,3.5049,3.5261,3.5392,3.5472,3.5504,3.5504,3.5504,3.5504,3.5504,3.5504,3.5504,3.5504,3.5504,3.5504,0.0,0.0,0.0,0.0,0.0,0.0,0.0,0.0,0.0,0.0,0.0,0.0,0.0,0.0,0.0,0.0,0.0,0.0,0.0,0.0,0.0,0.0,0.0,0.0,0.0,0.0,0.0,0.0,3.2868,3.3589,3.4279,3.4691,3.4902,3.4902,3.4509,3.4341,3.4414,3.4341,3.4172,3.3805,3.3381,3.2818,3.2092,3.1347,3.1024,3.1024,3.1024,3.1024,3.1024,3.0986,3.0986,3.0986,3.0986,3.0999,3.1013,3.1013,3.1365,3.1836,3.185,3.2358,3.2961,3.2571,3.2435,3.2384,3.1978,3.1862,3.1895,3.204,3.2647,3.3287,3.3467,3.3949,3.4414,3.4414,3.4414,3.4414,3.4414,3.4414,3.4414,3.4414,3.4414,3.4414,3.4414,3.4414,3.4414,3.4414,3.4414,3.4414,3.4414,3.5,3.5392,3.5392,3.5923,3.6054,3.545,3.5516,3.5341,3.4742,3.503,3.518,3.518,3.5392,3.5504,3.5504,3.5504,3.5504,3.5504,3.5504,3.5504,3.5504,3.5504,3.5504,1.9721,0.0,0.0,0.0,0.0,0.0,0.0,0.0,0.0,0.0,0.0,0.0,0.0,0.0,0.0,0.0,0.0,0.0,0.0,0.0,0.0,0.0,0.0,0.0,0.0,0.0,0.0,0.0,3.2832,3.3618,3.4351,3.4968,3.5261,3.5115,3.4887,3.4754,3.4769,3.4754,3.4471,3.4025,3.3451,3.2889,3.2309,3.1703,3.1421,3.141,3.1421,3.1347,3.1198,3.1061,3.0986,3.0986,3.0986,3.1248,3.1562,3.1562,3.1967,3.2515,3.296,3.3449,3.382,3.3519,3.3741,3.4057,3.3605,3.3439,3.3542,3.3858,3.4022,3.4085,3.4153,3.4283,3.4414,3.4414,3.4414,3.4414,3.4414,3.4414,3.4414,3.4414,3.4414,3.4414,3.4414,3.4414,3.4414,3.4414,3.4414,3.4414,3.4414,3.5,3.5392,3.5392,3.5923,3.6054,3.545,3.5427,3.5234,3.4742,3.4798,3.4964,3.518,3.5261,3.5359,3.5504,3.5504,3.5504,3.5504,3.5504,3.5504,3.5504,3.5504,3.5504,2.0327,2.0258,0.0,0.0,0.0,0.0,0.0,2.3304,0.0,0.0,0.0,0.0,0.0,0.0,0.0,0.0,0.0,0.0,0.0,0.0,0.0,0.0,0.0,0.0,0.0,3.0936,3.1445,3.2042,3.2832,3.3687,3.4568,3.5162,3.5439,3.5326,3.5213,3.5148,3.5148,3.5148,3.4835,3.423,3.352,3.2946,3.2525,3.2042,3.1813,3.1803,3.18,3.1653,3.1421,3.1123,3.0986,3.0986,3.0986,3.1339,3.1797,3.1797,3.2398,3.3277,3.3699,3.4326,3.486,3.4459,3.4789,3.5155,3.4453,3.4283,3.438,3.4515,3.4481,3.4414,3.4414,3.4414,3.4414,3.4414,3.4414,3.4414,3.4414,3.4414,3.4414,3.4414,3.4414,3.4414,3.4414,3.4414,3.4414,3.4414,3.4646,3.4806,3.4806,3.5604,3.617,3.617,3.6736,3.6852,3.6228,3.617,3.5965,3.5394,3.5468,3.559,3.576,3.5929,3.6064,3.6179,3.6231,3.6178,3.5908,3.5639,3.5504,3.5504,3.5504,3.5504,2.1378,2.1375,2.1219,0.0,0.0,0.0,2.1384,2.2335,0.0,0.0,0.0,0.0,0.0,0.0,0.0,0.0,0.0,0.0,0.0,0.0,0.0,0.0,0.0,0.0,3.0381,3.0748,3.1334,3.2123,3.296,3.3894,3.4902,3.5294,3.5504,3.5504,3.5504,3.5504,3.5504,3.5504,3.5129,3.4414,3.3624,3.3101,3.2775,3.2426,3.2245,3.2237,3.2232,3.2028,3.1703,3.1272,3.1061,3.0986,3.0986,3.1378,3.1902,3.1902,3.283,3.4071,3.43,3.5116,3.5998,3.5433,3.5616,3.5876,3.4791,3.4597,3.4664,3.4448,3.4414,3.4414,3.4414,3.4414,3.4414,3.4414,3.4414,3.4414,3.4414,3.4414,3.4414,3.4414,3.4414,3.4414,3.4414,3.4414,3.4414,3.4414,3.4951,3.5392,3.5392,3.6504,3.7302,3.7302,3.7839,3.7955,3.736,3.7302,3.7012,3.6344,3.6458,3.6579,3.6614,3.6915,3.7089,3.7089,3.7316,3.715,3.6596,3.5923,3.5579,3.5504,3.5504,3.5504,2.1591,2.1791,2.185,2.0861,0.0,0.0,2.0625,2.1059,2.1719,0.0,0.0,0.0,0.0,0.0,0.0,0.0,0.0,0.0,0.0,0.0,0.0,0.0,0.0,0.0,3.0407,3.0748,3.1445,3.2511,3.3845,3.4754,3.5115,3.5359,3.5504,3.5504,3.5504,3.5504,3.5504,3.5504,3.5195,3.4631,3.3982,3.3604,3.3417,3.3178,3.3094,3.3058,3.3094,3.2832,3.2453,3.2055,3.1519,3.0986,3.0986,3.1614,3.2515,3.2515,3.3542,3.4912,3.5278,3.6027,3.669,3.617,3.6215,3.6295,3.5347,3.4883,3.4664,3.4448,3.4414,3.4414,3.4414,3.4414,3.4414,3.4414,3.4414,3.4414,3.4414,3.4414,3.4414,3.4414,3.4414,3.4414,3.4414,3.4414,3.4414,3.4414,3.4951,3.5392,3.5392,3.6504,3.7302,3.7302,3.7839,3.7955,3.736,3.7302,3.7012,3.6344,3.6351,3.6422,3.6579,3.6825,3.7,3.7089,3.7316,3.7345,3.7225,3.6611,3.6028,3.5504,3.5504,3.5504,2.3226,2.315,2.2887,2.1757,0.0,0.0,0.0,2.1241,2.1902,2.2735,0.0,0.0,0.0,0.0,0.0,0.0,0.0,0.0,0.0,0.0,0.0,0.0,0.0,0.0,2.9846,3.0603,3.175,3.3276,3.452,3.5261,3.5326,3.5439,3.5504,3.5504,3.5504,3.5504,3.5504,3.5504,3.5261,3.4783,3.4274,3.4016,3.4005,3.3845,3.3811,3.3839,3.3811,3.3589,3.3206,3.2818,3.2426,3.2064,3.169,3.2275,3.3301,3.3301,3.4311,3.5777,3.6203,3.6833,3.7344,3.6729,3.6641,3.661,3.5414,3.4817,3.4515,3.4414,3.4414,3.4414,3.4414,3.4414,3.4414,3.4414,3.4414,3.4414,3.4414,3.4414,3.4414,3.4414,3.4414,3.4414,3.4414,3.4414,3.4414,3.4414,3.5227,3.5836,3.5836,3.6954,3.7752,3.7752,3.8028,3.8086,3.7781,3.7752,3.7607,3.7273,3.7259,3.7295,3.7405,3.7709,3.7961,3.8245,3.8351,3.8242,3.7898,3.7584,3.709,3.6462,3.6462,3.6462,0.0,0.0,0.0,0.0,0.0,2.2214,0.0,0.0,0.0,2.3131,0.0,0.0,0.0,0.0,0.0,0.0,0.0,0.0,0.0,0.0,0.0,0.0,0.0,0.0,0.0,3.049,3.206,3.3885,3.4769,3.5322,3.5504,3.5504,3.5504,3.5504,3.5504,3.5504,3.5504,3.5504,3.5326,3.4935,3.4591,3.4457,3.4501,3.4457,3.4457,3.4501,3.4457,3.424,3.3948,3.3589,3.3437,3.3381,3.2605,3.3069,3.4121,3.4121,3.5143,3.6624,3.7081,3.7582,3.7947,3.7172,3.6828,3.6477,3.5259,3.4668,3.4448,3.4414,3.4414,3.4414,3.4414,3.4414,3.4414,3.4414,3.4414,3.4414,3.4414,3.4414,3.4414,3.4414,3.4414,3.4414,3.4414,3.4414,3.4414,3.4414,3.5386,3.617,3.6301,3.7317,3.8072,3.8188,3.8202,3.8202,3.8202,3.8202,3.8202,3.8202,3.8202,3.8202,3.8202,3.8612,3.898,3.9388,3.9388,3.914,3.8586,3.8586,3.8182,3.7404,3.7404,3.7404,0.0,0.0,0.0,0.0,2.2656,0.0,0.0,0.0,2.1619,2.1716,0.0,0.0,0.0,0.0,0.0,0.0,0.0,0.0,0.0,0.0,0.0,0.0,0.0,0.0,0.0,3.0677,3.2257,3.3719,3.4164,3.4671,3.5474,3.5504,3.5504,3.5504,3.5504,3.5504,3.5504,3.5504,3.5392,3.5148,3.4935,3.482,3.4835,3.482,3.482,3.4835,3.482,3.4735,3.4582,3.4366,3.4264,3.4182,3.3381,3.3842,3.4948,3.4948,3.6033,3.7529,3.7924,3.8352,3.8539,3.763,3.6458,3.534,3.4875,3.4698,3.4631,3.4448,3.4414,3.4414,3.4414,3.4414,3.4414,3.4414,3.4414,3.4414,3.4414,3.4414,3.4414,3.4414,3.4414,3.4414,3.4414,3.4414,3.4414,3.4414,3.5009,3.5712,3.6228,3.6954,3.7607,3.8144,3.8202,3.8202,3.8202,3.8202,3.8202,3.8202,3.8202,3.8202,3.8202,3.8612,3.898,3.9388,3.9388,3.9343,3.9305,3.9305,3.8646,3.7404,3.7404,3.7404,0.0,0.0,0.0,0.0,0.0,0.0,2.1546,0.0,2.2535,0.0,0.0,0.0,0.0,0.0,0.0,0.0,0.0,0.0,0.0,0.0,0.0,0.0,0.0,0.0,0.0,0.0,0.0,0.0,3.2467,3.3165,3.4656,3.4874,3.51,3.5489,3.5504,3.5504,3.5504,3.5504,3.5472,3.5359,3.5294,3.5261,3.5261,3.5261,3.5261,3.5261,3.5261,3.5228,3.5162,3.5063,3.503,3.4983,3.4654,3.505,3.5819,3.5819,3.6755,3.8165,3.8464,3.8723,3.8809,3.7734,3.632,3.5016,3.4883,3.4683,3.4515,3.4414,3.4414,3.4414,3.4414,3.4414,3.4414,3.4414,3.4414,3.4414,3.4414,3.4414,3.4414,3.4414,3.4414,3.4414,3.4414,3.4414,3.4414,3.4414,3.4951,3.5494,3.577,3.6664,3.7404,3.7651,3.7984,3.8202,3.8202,3.8202,3.8202,3.8202,3.8202,3.8315,3.8538,3.8708,3.898,3.9388,3.9388,3.9388,3.9388,3.9388,3.9125,3.8571,3.8571,3.8571,2.7371,0.0,0.0,0.0,0.0,0.0,0.0,0.0,0.0,0.0,0.0,0.0,0.0,0.0,0.0,0.0,0.0,0.0,0.0,0.0,0.0,0.0,0.0,0.0,0.0,0.0,0.0,0.0,0.0,3.205,3.3847,3.4304,3.4728,3.5205,3.54,3.5504,3.5504,3.5504,3.5504,3.5504,3.5504,3.5504,3.5504,3.5504,3.5504,3.5504,3.5504,3.5504,3.5504,3.5504,3.5504,3.5519,3.5699,3.6111,3.662,3.662,3.7512,3.8775,3.8907,3.8831,3.8478,3.763,3.6253,3.4968,3.4935,3.4735,3.4549,3.4481,3.4481,3.4481,3.4414,3.4414,3.4414,3.4414,3.4545,3.4617,3.4443,3.4545,3.4617,3.4443,3.4414,3.4414,3.4414,3.4414,3.4414,3.4414,3.4806,3.5203,3.5378,3.622,3.6838,3.7012,3.7593,3.7955,3.7955,3.8101,3.8202,3.8202,3.8202,3.8389,3.8782,3.8782,3.898,3.9388,3.9388,3.9388,3.9388,3.9388,3.9388,3.9388,3.9388,3.9388,0.0,0.0,0.0,2.4669,0.0,0.0,0.0,0.0,2.3979,0.0,0.0,0.0,0.0,0.0,0.0,0.0,0.0,0.0,0.0,0.0,0.0,0.0,0.0,0.0,0.0,0.0,0.0,0.0,0.0,0.0,3.3238,3.408,3.4518,3.4533,3.516,3.5504,3.5504,3.5504,3.5504,3.5504,3.5504,3.5504,3.5504,3.5504,3.5504,3.5504,3.5504,3.5504,3.5504,3.5504,3.5504,3.5564,3.6207,3.6851,3.737,3.737,3.8222,3.9373,3.9388,3.8536,3.743,3.7277,3.6283,3.5148,3.4968,3.4902,3.4868,3.4731,3.4698,3.4664,3.4448,3.4414,3.4414,3.4414,3.4893,3.5203,3.4545,3.4893,3.5189,3.453,3.4414,3.4414,3.4414,3.4414,3.4414,3.4414,3.4428,3.4661,3.5319,3.5436,3.5697,3.6272,3.6939,3.7346,3.7346,3.7868,3.8202,3.8202,3.8202,3.8389,3.8782,3.8782,3.898,3.9388,3.9388,3.9388,3.9388,3.9388,3.9388,3.9388,3.9388,3.9388,0.0,0.0,2.7313,2.5995,0.0,0.0,0.0,0.0,0.0,0.0,0.0,0.0,0.0,0.0,0.0,0.0,0.0,0.0,0.0,0.0,0.0,0.0,0.0,0.0,0.0,0.0,0.0,0.0,2.9117,0.0,0.0,3.2899,3.3574,3.4474,3.4728,3.504,3.5504,3.5504,3.5504,3.5504,3.5504,3.5504,3.5504,3.5504,3.5504,3.5504,3.5504,3.5504,3.5504,3.5504,3.5759,3.6178,3.6402,3.7135,3.8063,3.8063,3.8631,3.9388,3.9388,3.8527,3.737,3.7351,3.6369,3.518,3.5115,3.5001,3.4868,3.4731,3.4698,3.4664,3.4448,3.4414,3.4414,3.4414,3.4574,3.4675,3.4457,3.4588,3.4675,3.4457,3.4414,3.4414,3.4414,3.4414,3.4414,3.4414,3.4414,3.4486,3.4704,3.5145,3.5479,3.5697,3.6257,3.6649,3.6649,3.7244,3.7781,3.8173,3.8202,3.8389,3.8782,3.8782,3.898,3.9388,3.9388,3.9388,3.9388,3.9388,3.9388,3.9388,3.9388,3.9388,2.962,2.9002,0.0,2.716,2.6695,0.0,2.482,0.0,0.0,0.0,0.0,0.0,0.0,0.0,0.0,0.0,0.0,0.0,0.0,0.0,0.0,0.0,0.0,0.0,0.0,0.0,2.6578,2.7619,2.8166,0.0,0.0,0.0,3.2706,3.4114,3.4384,3.4801,3.5489,3.5504,3.5504,3.5504,3.5504,3.5504,3.5504,3.5504,3.5504,3.5504,3.5504,3.5504,3.5519,3.5759,3.6103,3.6537,3.6985,3.7674,3.8392,3.8392,3.8826,3.9388,3.9388,3.8527,3.7404,3.7404,3.6436,3.5326,3.5326,3.5213,3.5082,3.485,3.4783,3.4716,3.4448,3.4414,3.4414,3.4414,3.4588,3.469,3.4457,3.4588,3.469,3.4457,3.4414,3.4414,3.4414,3.4414,3.4414,3.4414,3.4414,3.4414,3.4414,3.4777,3.5024,3.5024,3.559,3.6156,3.662,3.7056,3.7564,3.8159,3.8277,3.8464,3.8797,3.887,3.9068,3.9388,3.9388,3.9388,3.9388,3.9388,3.9388,3.9388,3.9388,3.9388]}]]